<?xml version="1.0" encoding="UTF-8" standalone="no" ?>
<gpx xmlns="http://www.topografix.com/GPX/1/1" xmlns:xsi="http://www.w3.org/2001/XMLSchema-instance" xsi:schemaLocation="http://www.topografix.com/GPX/1/1 http://www.topografix.com/GPX/1/1/gpx.xsd" version="1.1" creator="VisuGPX - https://www.visugpx.com">
  <metadata>
    <name>Lac Autier, lac Niré, refuge de Nice</name>
    <desc><![CDATA[Départ du pont du countet au fond de la vallée de la gordolasque.
Montée sur le lac Autier puis sur la baisse à droite du Cayre Autier pour replonger dans le vallon du mont Chamineye pour atteindre le Lac Niré, puis le refuge de Nice. Retour sur le pont du countet par le mur des Italiens]]></desc>
  </metadata>
  <trk>
    <name><![CDATA[Tour du Niré: 13 OCT 2011]]></name>
    <trkseg>
      <trkpt lat="44.0784" lon="7.40273">
        <ele>1662.26</ele>
        <time>2011-10-13T07:27:53Z</time>
      </trkpt>
      <trkpt lat="44.07841" lon="7.40272">
        <ele>1662.26</ele>
        <time>2011-10-13T07:27:54Z</time>
      </trkpt>
      <trkpt lat="44.07845" lon="7.40271">
        <ele>1663.22</ele>
        <time>2011-10-13T07:28:01Z</time>
      </trkpt>
      <trkpt lat="44.07856" lon="7.40265">
        <ele>1664.18</ele>
        <time>2011-10-13T07:28:14Z</time>
      </trkpt>
      <trkpt lat="44.07868" lon="7.40264">
        <ele>1665.14</ele>
        <time>2011-10-13T07:28:26Z</time>
      </trkpt>
      <trkpt lat="44.07877" lon="7.40269">
        <ele>1665.14</ele>
        <time>2011-10-13T07:28:36Z</time>
      </trkpt>
      <trkpt lat="44.07889" lon="7.40277">
        <ele>1666.1</ele>
        <time>2011-10-13T07:28:47Z</time>
      </trkpt>
      <trkpt lat="44.07896" lon="7.40277">
        <ele>1668.51</ele>
        <time>2011-10-13T07:28:58Z</time>
      </trkpt>
      <trkpt lat="44.07908" lon="7.40281">
        <ele>1669.47</ele>
        <time>2011-10-13T07:29:12Z</time>
      </trkpt>
      <trkpt lat="44.0792" lon="7.40281">
        <ele>1670.91</ele>
        <time>2011-10-13T07:29:24Z</time>
      </trkpt>
      <trkpt lat="44.07932" lon="7.40296">
        <ele>1671.39</ele>
        <time>2011-10-13T07:29:39Z</time>
      </trkpt>
      <trkpt lat="44.07937" lon="7.40297">
        <ele>1671.87</ele>
        <time>2011-10-13T07:29:46Z</time>
      </trkpt>
      <trkpt lat="44.07944" lon="7.40292">
        <ele>1673.31</ele>
        <time>2011-10-13T07:29:55Z</time>
      </trkpt>
      <trkpt lat="44.07948" lon="7.40291">
        <ele>1673.79</ele>
        <time>2011-10-13T07:29:59Z</time>
      </trkpt>
      <trkpt lat="44.07952" lon="7.40291">
        <ele>1674.27</ele>
        <time>2011-10-13T07:30:02Z</time>
      </trkpt>
      <trkpt lat="44.07963" lon="7.40283">
        <ele>1675.72</ele>
        <time>2011-10-13T07:30:16Z</time>
      </trkpt>
      <trkpt lat="44.07964" lon="7.40281">
        <ele>1676.2</ele>
        <time>2011-10-13T07:30:18Z</time>
      </trkpt>
      <trkpt lat="44.07977" lon="7.40277">
        <ele>1678.12</ele>
        <time>2011-10-13T07:30:32Z</time>
      </trkpt>
      <trkpt lat="44.07987" lon="7.40278">
        <ele>1679.08</ele>
        <time>2011-10-13T07:30:45Z</time>
      </trkpt>
      <trkpt lat="44.07991" lon="7.40278">
        <ele>1679.08</ele>
        <time>2011-10-13T07:30:49Z</time>
      </trkpt>
      <trkpt lat="44.08004" lon="7.40278">
        <ele>1679.56</ele>
        <time>2011-10-13T07:31:04Z</time>
      </trkpt>
      <trkpt lat="44.08012" lon="7.40274">
        <ele>1679.56</ele>
        <time>2011-10-13T07:31:11Z</time>
      </trkpt>
      <trkpt lat="44.08014" lon="7.40273">
        <ele>1679.56</ele>
        <time>2011-10-13T07:31:13Z</time>
      </trkpt>
      <trkpt lat="44.08019" lon="7.4027">
        <ele>1679.56</ele>
        <time>2011-10-13T07:31:19Z</time>
      </trkpt>
      <trkpt lat="44.08028" lon="7.40267">
        <ele>1680.04</ele>
        <time>2011-10-13T07:31:28Z</time>
      </trkpt>
      <trkpt lat="44.08036" lon="7.40253">
        <ele>1681.96</ele>
        <time>2011-10-13T07:31:43Z</time>
      </trkpt>
      <trkpt lat="44.0805" lon="7.40245">
        <ele>1686.77</ele>
        <time>2011-10-13T07:31:59Z</time>
      </trkpt>
      <trkpt lat="44.0806" lon="7.40242">
        <ele>1684.37</ele>
        <time>2011-10-13T07:32:10Z</time>
      </trkpt>
      <trkpt lat="44.08073" lon="7.40232">
        <ele>1686.77</ele>
        <time>2011-10-13T07:32:25Z</time>
      </trkpt>
      <trkpt lat="44.08083" lon="7.40219">
        <ele>1688.21</ele>
        <time>2011-10-13T07:32:39Z</time>
      </trkpt>
      <trkpt lat="44.08093" lon="7.40213">
        <ele>1689.65</ele>
        <time>2011-10-13T07:32:52Z</time>
      </trkpt>
      <trkpt lat="44.08098" lon="7.40214">
        <ele>1690.14</ele>
        <time>2011-10-13T07:32:58Z</time>
      </trkpt>
      <trkpt lat="44.0811" lon="7.40222">
        <ele>1691.58</ele>
        <time>2011-10-13T07:33:08Z</time>
      </trkpt>
      <trkpt lat="44.08119" lon="7.40212">
        <ele>1693.02</ele>
        <time>2011-10-13T07:33:19Z</time>
      </trkpt>
      <trkpt lat="44.08121" lon="7.40212">
        <ele>1693.5</ele>
        <time>2011-10-13T07:33:21Z</time>
      </trkpt>
      <trkpt lat="44.08135" lon="7.40211">
        <ele>1694.46</ele>
        <time>2011-10-13T07:33:36Z</time>
      </trkpt>
      <trkpt lat="44.08145" lon="7.40207">
        <ele>1695.42</ele>
        <time>2011-10-13T07:33:49Z</time>
      </trkpt>
      <trkpt lat="44.08152" lon="7.402">
        <ele>1697.83</ele>
        <time>2011-10-13T07:34:02Z</time>
      </trkpt>
      <trkpt lat="44.0816" lon="7.40196">
        <ele>1699.75</ele>
        <time>2011-10-13T07:34:15Z</time>
      </trkpt>
      <trkpt lat="44.08163" lon="7.40198">
        <ele>1701.19</ele>
        <time>2011-10-13T07:34:22Z</time>
      </trkpt>
      <trkpt lat="44.08165" lon="7.40198">
        <ele>1701.67</ele>
        <time>2011-10-13T07:34:24Z</time>
      </trkpt>
      <trkpt lat="44.08176" lon="7.40198">
        <ele>1704.07</ele>
        <time>2011-10-13T07:34:39Z</time>
      </trkpt>
      <trkpt lat="44.0818" lon="7.40196">
        <ele>1706.48</ele>
        <time>2011-10-13T07:34:52Z</time>
      </trkpt>
      <trkpt lat="44.0818" lon="7.40195">
        <ele>1706.48</ele>
        <time>2011-10-13T07:34:53Z</time>
      </trkpt>
      <trkpt lat="44.08185" lon="7.40186">
        <ele>1709.36</ele>
        <time>2011-10-13T07:35:05Z</time>
      </trkpt>
      <trkpt lat="44.08186" lon="7.40187">
        <ele>1709.36</ele>
        <time>2011-10-13T07:35:06Z</time>
      </trkpt>
      <trkpt lat="44.08189" lon="7.40189">
        <ele>1709.36</ele>
        <time>2011-10-13T07:35:09Z</time>
      </trkpt>
      <trkpt lat="44.08197" lon="7.40194">
        <ele>1709.36</ele>
        <time>2011-10-13T07:35:22Z</time>
      </trkpt>
      <trkpt lat="44.08207" lon="7.40192">
        <ele>1709.84</ele>
        <time>2011-10-13T07:35:35Z</time>
      </trkpt>
      <trkpt lat="44.08209" lon="7.40192">
        <ele>1709.84</ele>
        <time>2011-10-13T07:35:37Z</time>
      </trkpt>
      <trkpt lat="44.08222" lon="7.402">
        <ele>1709.36</ele>
        <time>2011-10-13T07:35:52Z</time>
      </trkpt>
      <trkpt lat="44.08228" lon="7.40201">
        <ele>1709.84</ele>
        <time>2011-10-13T07:36:00Z</time>
      </trkpt>
      <trkpt lat="44.08234" lon="7.40202">
        <ele>1710.32</ele>
        <time>2011-10-13T07:36:06Z</time>
      </trkpt>
      <trkpt lat="44.08239" lon="7.40204">
        <ele>1710.8</ele>
        <time>2011-10-13T07:36:13Z</time>
      </trkpt>
      <trkpt lat="44.08243" lon="7.40207">
        <ele>1711.28</ele>
        <time>2011-10-13T07:36:17Z</time>
      </trkpt>
      <trkpt lat="44.0825" lon="7.40206">
        <ele>1712.73</ele>
        <time>2011-10-13T07:36:27Z</time>
      </trkpt>
      <trkpt lat="44.08252" lon="7.40205">
        <ele>1713.69</ele>
        <time>2011-10-13T07:36:29Z</time>
      </trkpt>
      <trkpt lat="44.08253" lon="7.40205">
        <ele>1713.69</ele>
        <time>2011-10-13T07:36:31Z</time>
      </trkpt>
      <trkpt lat="44.08263" lon="7.40206">
        <ele>1715.13</ele>
        <time>2011-10-13T07:36:45Z</time>
      </trkpt>
      <trkpt lat="44.08273" lon="7.40202">
        <ele>1717.53</ele>
        <time>2011-10-13T07:37:01Z</time>
      </trkpt>
      <trkpt lat="44.08276" lon="7.40203">
        <ele>1718.01</ele>
        <time>2011-10-13T07:37:05Z</time>
      </trkpt>
      <trkpt lat="44.08289" lon="7.40207">
        <ele>1718.97</ele>
        <time>2011-10-13T07:37:21Z</time>
      </trkpt>
      <trkpt lat="44.08299" lon="7.40208">
        <ele>1720.9</ele>
        <time>2011-10-13T07:37:34Z</time>
      </trkpt>
      <trkpt lat="44.08304" lon="7.40211">
        <ele>1720.9</ele>
        <time>2011-10-13T07:37:40Z</time>
      </trkpt>
      <trkpt lat="44.08318" lon="7.40214">
        <ele>1722.82</ele>
        <time>2011-10-13T07:37:55Z</time>
      </trkpt>
      <trkpt lat="44.08329" lon="7.40215">
        <ele>1722.82</ele>
        <time>2011-10-13T07:38:07Z</time>
      </trkpt>
      <trkpt lat="44.08338" lon="7.4021">
        <ele>1725.22</ele>
        <time>2011-10-13T07:38:21Z</time>
      </trkpt>
      <trkpt lat="44.08348" lon="7.40206">
        <ele>1725.22</ele>
        <time>2011-10-13T07:38:34Z</time>
      </trkpt>
      <trkpt lat="44.08358" lon="7.4021">
        <ele>1726.18</ele>
        <time>2011-10-13T07:38:46Z</time>
      </trkpt>
      <trkpt lat="44.08367" lon="7.40206">
        <ele>1728.11</ele>
        <time>2011-10-13T07:38:59Z</time>
      </trkpt>
      <trkpt lat="44.08374" lon="7.40203">
        <ele>1729.55</ele>
        <time>2011-10-13T07:39:10Z</time>
      </trkpt>
      <trkpt lat="44.0838" lon="7.40211">
        <ele>1730.03</ele>
        <time>2011-10-13T07:39:23Z</time>
      </trkpt>
      <trkpt lat="44.08383" lon="7.40222">
        <ele>1727.15</ele>
        <time>2011-10-13T07:39:34Z</time>
      </trkpt>
      <trkpt lat="44.08387" lon="7.40226">
        <ele>1727.63</ele>
        <time>2011-10-13T07:39:38Z</time>
      </trkpt>
      <trkpt lat="44.08393" lon="7.40234">
        <ele>1727.63</ele>
        <time>2011-10-13T07:39:53Z</time>
      </trkpt>
      <trkpt lat="44.08395" lon="7.40241">
        <ele>1728.11</ele>
        <time>2011-10-13T07:40:03Z</time>
      </trkpt>
      <trkpt lat="44.08396" lon="7.40249">
        <ele>1727.63</ele>
        <time>2011-10-13T07:40:08Z</time>
      </trkpt>
      <trkpt lat="44.08394" lon="7.40261">
        <ele>1729.55</ele>
        <time>2011-10-13T07:40:21Z</time>
      </trkpt>
      <trkpt lat="44.08392" lon="7.40265">
        <ele>1732.91</ele>
        <time>2011-10-13T07:40:31Z</time>
      </trkpt>
      <trkpt lat="44.08394" lon="7.40266">
        <ele>1733.39</ele>
        <time>2011-10-13T07:40:36Z</time>
      </trkpt>
      <trkpt lat="44.08398" lon="7.40268">
        <ele>1734.36</ele>
        <time>2011-10-13T07:40:41Z</time>
      </trkpt>
      <trkpt lat="44.08401" lon="7.4027">
        <ele>1735.8</ele>
        <time>2011-10-13T07:40:45Z</time>
      </trkpt>
      <trkpt lat="44.08404" lon="7.40275">
        <ele>1736.76</ele>
        <time>2011-10-13T07:40:53Z</time>
      </trkpt>
      <trkpt lat="44.08408" lon="7.40283">
        <ele>1737.72</ele>
        <time>2011-10-13T07:41:04Z</time>
      </trkpt>
      <trkpt lat="44.08408" lon="7.40286">
        <ele>1737.72</ele>
        <time>2011-10-13T07:41:18Z</time>
      </trkpt>
      <trkpt lat="44.08408" lon="7.40286">
        <ele>1736.76</ele>
        <time>2011-10-13T07:41:40Z</time>
      </trkpt>
      <trkpt lat="44.08408" lon="7.40286">
        <ele>1736.28</ele>
        <time>2011-10-13T07:42:05Z</time>
      </trkpt>
      <trkpt lat="44.08408" lon="7.40286">
        <ele>1737.24</ele>
        <time>2011-10-13T07:42:12Z</time>
      </trkpt>
      <trkpt lat="44.08408" lon="7.40286">
        <ele>1737.72</ele>
        <time>2011-10-13T07:42:24Z</time>
      </trkpt>
      <trkpt lat="44.08408" lon="7.40286">
        <ele>1737.72</ele>
        <time>2011-10-13T07:42:41Z</time>
      </trkpt>
      <trkpt lat="44.08408" lon="7.40286">
        <ele>1737.72</ele>
        <time>2011-10-13T07:43:00Z</time>
      </trkpt>
      <trkpt lat="44.08409" lon="7.40286">
        <ele>1737.24</ele>
        <time>2011-10-13T07:43:26Z</time>
      </trkpt>
      <trkpt lat="44.0841" lon="7.40287">
        <ele>1737.24</ele>
        <time>2011-10-13T07:43:42Z</time>
      </trkpt>
      <trkpt lat="44.08412" lon="7.4029">
        <ele>1736.28</ele>
        <time>2011-10-13T07:44:00Z</time>
      </trkpt>
      <trkpt lat="44.08414" lon="7.40292">
        <ele>1736.28</ele>
        <time>2011-10-13T07:44:12Z</time>
      </trkpt>
      <trkpt lat="44.08419" lon="7.40298">
        <ele>1737.72</ele>
        <time>2011-10-13T07:44:25Z</time>
      </trkpt>
      <trkpt lat="44.08423" lon="7.403">
        <ele>1738.2</ele>
        <time>2011-10-13T07:44:30Z</time>
      </trkpt>
      <trkpt lat="44.08426" lon="7.40302">
        <ele>1738.2</ele>
        <time>2011-10-13T07:44:34Z</time>
      </trkpt>
      <trkpt lat="44.08428" lon="7.40304">
        <ele>1738.68</ele>
        <time>2011-10-13T07:44:37Z</time>
      </trkpt>
      <trkpt lat="44.08433" lon="7.40305">
        <ele>1739.64</ele>
        <time>2011-10-13T07:44:42Z</time>
      </trkpt>
      <trkpt lat="44.08437" lon="7.40309">
        <ele>1740.6</ele>
        <time>2011-10-13T07:44:46Z</time>
      </trkpt>
      <trkpt lat="44.08446" lon="7.40317">
        <ele>1743.01</ele>
        <time>2011-10-13T07:45:00Z</time>
      </trkpt>
      <trkpt lat="44.0845" lon="7.40323">
        <ele>1745.41</ele>
        <time>2011-10-13T07:45:13Z</time>
      </trkpt>
      <trkpt lat="44.0846" lon="7.40326">
        <ele>1747.81</ele>
        <time>2011-10-13T07:45:28Z</time>
      </trkpt>
      <trkpt lat="44.08464" lon="7.4033">
        <ele>1748.78</ele>
        <time>2011-10-13T07:45:34Z</time>
      </trkpt>
      <trkpt lat="44.08469" lon="7.40337">
        <ele>1751.18</ele>
        <time>2011-10-13T07:45:49Z</time>
      </trkpt>
      <trkpt lat="44.08474" lon="7.40343">
        <ele>1754.06</ele>
        <time>2011-10-13T07:46:02Z</time>
      </trkpt>
      <trkpt lat="44.08478" lon="7.40348">
        <ele>1756.47</ele>
        <time>2011-10-13T07:46:16Z</time>
      </trkpt>
      <trkpt lat="44.0848" lon="7.40352">
        <ele>1759.35</ele>
        <time>2011-10-13T07:46:30Z</time>
      </trkpt>
      <trkpt lat="44.08484" lon="7.40356">
        <ele>1761.27</ele>
        <time>2011-10-13T07:46:42Z</time>
      </trkpt>
      <trkpt lat="44.08487" lon="7.40363">
        <ele>1764.16</ele>
        <time>2011-10-13T07:46:57Z</time>
      </trkpt>
      <trkpt lat="44.08492" lon="7.40367">
        <ele>1765.6</ele>
        <time>2011-10-13T07:47:06Z</time>
      </trkpt>
      <trkpt lat="44.08494" lon="7.4037">
        <ele>1766.08</ele>
        <time>2011-10-13T07:47:10Z</time>
      </trkpt>
      <trkpt lat="44.08499" lon="7.40378">
        <ele>1767.52</ele>
        <time>2011-10-13T07:47:23Z</time>
      </trkpt>
      <trkpt lat="44.08499" lon="7.40382">
        <ele>1768.48</ele>
        <time>2011-10-13T07:47:30Z</time>
      </trkpt>
      <trkpt lat="44.08507" lon="7.40388">
        <ele>1770.89</ele>
        <time>2011-10-13T07:47:44Z</time>
      </trkpt>
      <trkpt lat="44.08511" lon="7.40386">
        <ele>1771.85</ele>
        <time>2011-10-13T07:47:57Z</time>
      </trkpt>
      <trkpt lat="44.08511" lon="7.40388">
        <ele>1771.37</ele>
        <time>2011-10-13T07:48:13Z</time>
      </trkpt>
      <trkpt lat="44.08506" lon="7.40387">
        <ele>1770.89</ele>
        <time>2011-10-13T07:48:20Z</time>
      </trkpt>
      <trkpt lat="44.08497" lon="7.40385">
        <ele>1771.37</ele>
        <time>2011-10-13T07:48:29Z</time>
      </trkpt>
      <trkpt lat="44.08489" lon="7.40379">
        <ele>1770.41</ele>
        <time>2011-10-13T07:48:42Z</time>
      </trkpt>
      <trkpt lat="44.08485" lon="7.40376">
        <ele>1770.41</ele>
        <time>2011-10-13T07:48:52Z</time>
      </trkpt>
      <trkpt lat="44.08482" lon="7.40374">
        <ele>1769.92</ele>
        <time>2011-10-13T07:48:55Z</time>
      </trkpt>
      <trkpt lat="44.08471" lon="7.40372">
        <ele>1771.37</ele>
        <time>2011-10-13T07:49:08Z</time>
      </trkpt>
      <trkpt lat="44.08466" lon="7.40373">
        <ele>1772.81</ele>
        <time>2011-10-13T07:49:17Z</time>
      </trkpt>
      <trkpt lat="44.08458" lon="7.40385">
        <ele>1772.81</ele>
        <time>2011-10-13T07:49:30Z</time>
      </trkpt>
      <trkpt lat="44.08461" lon="7.40397">
        <ele>1775.69</ele>
        <time>2011-10-13T07:49:43Z</time>
      </trkpt>
      <trkpt lat="44.08462" lon="7.40407">
        <ele>1777.61</ele>
        <time>2011-10-13T07:49:55Z</time>
      </trkpt>
      <trkpt lat="44.08464" lon="7.40413">
        <ele>1780.02</ele>
        <time>2011-10-13T07:50:08Z</time>
      </trkpt>
      <trkpt lat="44.08462" lon="7.40423">
        <ele>1782.42</ele>
        <time>2011-10-13T07:50:21Z</time>
      </trkpt>
      <trkpt lat="44.08464" lon="7.40426">
        <ele>1784.82</ele>
        <time>2011-10-13T07:50:34Z</time>
      </trkpt>
      <trkpt lat="44.08466" lon="7.40432">
        <ele>1787.71</ele>
        <time>2011-10-13T07:50:44Z</time>
      </trkpt>
      <trkpt lat="44.08467" lon="7.40433">
        <ele>1789.15</ele>
        <time>2011-10-13T07:50:55Z</time>
      </trkpt>
      <trkpt lat="44.08471" lon="7.40438">
        <ele>1791.55</ele>
        <time>2011-10-13T07:51:11Z</time>
      </trkpt>
      <trkpt lat="44.08472" lon="7.40439">
        <ele>1793.48</ele>
        <time>2011-10-13T07:51:26Z</time>
      </trkpt>
      <trkpt lat="44.0847" lon="7.40444">
        <ele>1795.88</ele>
        <time>2011-10-13T07:51:39Z</time>
      </trkpt>
      <trkpt lat="44.0847" lon="7.4045">
        <ele>1798.28</ele>
        <time>2011-10-13T07:51:52Z</time>
      </trkpt>
      <trkpt lat="44.0847" lon="7.40451">
        <ele>1798.28</ele>
        <time>2011-10-13T07:52:09Z</time>
      </trkpt>
      <trkpt lat="44.0847" lon="7.40451">
        <ele>1798.28</ele>
        <time>2011-10-13T07:52:30Z</time>
      </trkpt>
      <trkpt lat="44.08469" lon="7.40452">
        <ele>1798.76</ele>
        <time>2011-10-13T07:52:58Z</time>
      </trkpt>
      <trkpt lat="44.08468" lon="7.40454">
        <ele>1797.32</ele>
        <time>2011-10-13T07:53:23Z</time>
      </trkpt>
      <trkpt lat="44.08468" lon="7.40454">
        <ele>1800.21</ele>
        <time>2011-10-13T07:53:24Z</time>
      </trkpt>
      <trkpt lat="44.08468" lon="7.40454">
        <ele>1797.32</ele>
        <time>2011-10-13T07:53:25Z</time>
      </trkpt>
      <trkpt lat="44.08467" lon="7.40452">
        <ele>1798.28</ele>
        <time>2011-10-13T07:53:47Z</time>
      </trkpt>
      <trkpt lat="44.08468" lon="7.40452">
        <ele>1798.76</ele>
        <time>2011-10-13T07:54:09Z</time>
      </trkpt>
      <trkpt lat="44.08468" lon="7.40452">
        <ele>1798.76</ele>
        <time>2011-10-13T07:54:39Z</time>
      </trkpt>
      <trkpt lat="44.08469" lon="7.40452">
        <ele>1798.28</ele>
        <time>2011-10-13T07:55:07Z</time>
      </trkpt>
      <trkpt lat="44.08468" lon="7.40454">
        <ele>1798.76</ele>
        <time>2011-10-13T07:55:42Z</time>
      </trkpt>
      <trkpt lat="44.08469" lon="7.40454">
        <ele>1799.24</ele>
        <time>2011-10-13T07:56:04Z</time>
      </trkpt>
      <trkpt lat="44.08469" lon="7.40454">
        <ele>1798.28</ele>
        <time>2011-10-13T07:56:32Z</time>
      </trkpt>
      <trkpt lat="44.08469" lon="7.40454">
        <ele>1798.76</ele>
        <time>2011-10-13T07:56:39Z</time>
      </trkpt>
      <trkpt lat="44.08468" lon="7.40456">
        <ele>1798.76</ele>
        <time>2011-10-13T07:56:58Z</time>
      </trkpt>
      <trkpt lat="44.08468" lon="7.40456">
        <ele>1798.76</ele>
        <time>2011-10-13T07:57:12Z</time>
      </trkpt>
      <trkpt lat="44.08463" lon="7.40454">
        <ele>1802.13</ele>
        <time>2011-10-13T07:57:24Z</time>
      </trkpt>
      <trkpt lat="44.08459" lon="7.40457">
        <ele>1803.57</ele>
        <time>2011-10-13T07:57:31Z</time>
      </trkpt>
      <trkpt lat="44.08448" lon="7.40469">
        <ele>1805.49</ele>
        <time>2011-10-13T07:57:47Z</time>
      </trkpt>
      <trkpt lat="44.08446" lon="7.4048">
        <ele>1808.38</ele>
        <time>2011-10-13T07:58:02Z</time>
      </trkpt>
      <trkpt lat="44.08443" lon="7.40487">
        <ele>1811.74</ele>
        <time>2011-10-13T07:58:16Z</time>
      </trkpt>
      <trkpt lat="44.08445" lon="7.40497">
        <ele>1814.15</ele>
        <time>2011-10-13T07:58:30Z</time>
      </trkpt>
      <trkpt lat="44.08443" lon="7.40501">
        <ele>1817.03</ele>
        <time>2011-10-13T07:58:43Z</time>
      </trkpt>
      <trkpt lat="44.08437" lon="7.40507">
        <ele>1817.99</ele>
        <time>2011-10-13T07:58:55Z</time>
      </trkpt>
      <trkpt lat="44.08433" lon="7.40514">
        <ele>1819.91</ele>
        <time>2011-10-13T07:59:09Z</time>
      </trkpt>
      <trkpt lat="44.0843" lon="7.40522">
        <ele>1822.32</ele>
        <time>2011-10-13T07:59:21Z</time>
      </trkpt>
      <trkpt lat="44.0843" lon="7.40531">
        <ele>1824.72</ele>
        <time>2011-10-13T07:59:37Z</time>
      </trkpt>
      <trkpt lat="44.08424" lon="7.40537">
        <ele>1827.12</ele>
        <time>2011-10-13T07:59:50Z</time>
      </trkpt>
      <trkpt lat="44.08419" lon="7.40542">
        <ele>1830.01</ele>
        <time>2011-10-13T08:00:04Z</time>
      </trkpt>
      <trkpt lat="44.08418" lon="7.40542">
        <ele>1830.01</ele>
        <time>2011-10-13T08:00:05Z</time>
      </trkpt>
      <trkpt lat="44.08409" lon="7.4055">
        <ele>1832.41</ele>
        <time>2011-10-13T08:00:19Z</time>
      </trkpt>
      <trkpt lat="44.08407" lon="7.40556">
        <ele>1834.33</ele>
        <time>2011-10-13T08:00:31Z</time>
      </trkpt>
      <trkpt lat="44.08406" lon="7.4056">
        <ele>1837.22</ele>
        <time>2011-10-13T08:00:45Z</time>
      </trkpt>
      <trkpt lat="44.08403" lon="7.40568">
        <ele>1839.62</ele>
        <time>2011-10-13T08:01:00Z</time>
      </trkpt>
      <trkpt lat="44.084" lon="7.40574">
        <ele>1841.06</ele>
        <time>2011-10-13T08:01:12Z</time>
      </trkpt>
      <trkpt lat="44.08397" lon="7.40579">
        <ele>1842.5</ele>
        <time>2011-10-13T08:01:23Z</time>
      </trkpt>
      <trkpt lat="44.08396" lon="7.40584">
        <ele>1844.91</ele>
        <time>2011-10-13T08:01:35Z</time>
      </trkpt>
      <trkpt lat="44.08394" lon="7.40593">
        <ele>1847.31</ele>
        <time>2011-10-13T08:01:48Z</time>
      </trkpt>
      <trkpt lat="44.08401" lon="7.40598">
        <ele>1848.75</ele>
        <time>2011-10-13T08:02:02Z</time>
      </trkpt>
      <trkpt lat="44.084" lon="7.40604">
        <ele>1850.19</ele>
        <time>2011-10-13T08:02:15Z</time>
      </trkpt>
      <trkpt lat="44.08395" lon="7.40611">
        <ele>1852.6</ele>
        <time>2011-10-13T08:02:28Z</time>
      </trkpt>
      <trkpt lat="44.08393" lon="7.40618">
        <ele>1854.52</ele>
        <time>2011-10-13T08:02:40Z</time>
      </trkpt>
      <trkpt lat="44.08392" lon="7.40623">
        <ele>1855.96</ele>
        <time>2011-10-13T08:02:46Z</time>
      </trkpt>
      <trkpt lat="44.08384" lon="7.40631">
        <ele>1857.4</ele>
        <time>2011-10-13T08:03:01Z</time>
      </trkpt>
      <trkpt lat="44.0838" lon="7.40639">
        <ele>1859.33</ele>
        <time>2011-10-13T08:03:14Z</time>
      </trkpt>
      <trkpt lat="44.08377" lon="7.40646">
        <ele>1860.77</ele>
        <time>2011-10-13T08:03:27Z</time>
      </trkpt>
      <trkpt lat="44.08372" lon="7.4065">
        <ele>1863.65</ele>
        <time>2011-10-13T08:03:39Z</time>
      </trkpt>
      <trkpt lat="44.08365" lon="7.40655">
        <ele>1864.13</ele>
        <time>2011-10-13T08:03:51Z</time>
      </trkpt>
      <trkpt lat="44.08364" lon="7.40655">
        <ele>1864.61</ele>
        <time>2011-10-13T08:03:52Z</time>
      </trkpt>
      <trkpt lat="44.08362" lon="7.40656">
        <ele>1865.09</ele>
        <time>2011-10-13T08:03:55Z</time>
      </trkpt>
      <trkpt lat="44.08356" lon="7.40661">
        <ele>1866.54</ele>
        <time>2011-10-13T08:04:09Z</time>
      </trkpt>
      <trkpt lat="44.08359" lon="7.40669">
        <ele>1867.98</ele>
        <time>2011-10-13T08:04:19Z</time>
      </trkpt>
      <trkpt lat="44.08367" lon="7.40674">
        <ele>1869.9</ele>
        <time>2011-10-13T08:04:33Z</time>
      </trkpt>
      <trkpt lat="44.08371" lon="7.40678">
        <ele>1871.34</ele>
        <time>2011-10-13T08:04:48Z</time>
      </trkpt>
      <trkpt lat="44.08372" lon="7.40685">
        <ele>1871.82</ele>
        <time>2011-10-13T08:04:55Z</time>
      </trkpt>
      <trkpt lat="44.08379" lon="7.40693">
        <ele>1874.23</ele>
        <time>2011-10-13T08:05:10Z</time>
      </trkpt>
      <trkpt lat="44.08384" lon="7.40695">
        <ele>1876.63</ele>
        <time>2011-10-13T08:05:23Z</time>
      </trkpt>
      <trkpt lat="44.08393" lon="7.40696">
        <ele>1879.51</ele>
        <time>2011-10-13T08:05:38Z</time>
      </trkpt>
      <trkpt lat="44.08392" lon="7.40704">
        <ele>1882.88</ele>
        <time>2011-10-13T08:05:52Z</time>
      </trkpt>
      <trkpt lat="44.08396" lon="7.4071">
        <ele>1884.8</ele>
        <time>2011-10-13T08:06:06Z</time>
      </trkpt>
      <trkpt lat="44.08403" lon="7.40714">
        <ele>1887.21</ele>
        <time>2011-10-13T08:06:19Z</time>
      </trkpt>
      <trkpt lat="44.08402" lon="7.40718">
        <ele>1889.61</ele>
        <time>2011-10-13T08:06:33Z</time>
      </trkpt>
      <trkpt lat="44.08404" lon="7.4072">
        <ele>1892.01</ele>
        <time>2011-10-13T08:06:46Z</time>
      </trkpt>
      <trkpt lat="44.08411" lon="7.40721">
        <ele>1893.93</ele>
        <time>2011-10-13T08:06:59Z</time>
      </trkpt>
      <trkpt lat="44.08414" lon="7.40717">
        <ele>1896.34</ele>
        <time>2011-10-13T08:07:11Z</time>
      </trkpt>
      <trkpt lat="44.08418" lon="7.40717">
        <ele>1898.74</ele>
        <time>2011-10-13T08:07:24Z</time>
      </trkpt>
      <trkpt lat="44.08419" lon="7.40716">
        <ele>1899.22</ele>
        <time>2011-10-13T08:07:28Z</time>
      </trkpt>
      <trkpt lat="44.08424" lon="7.40694">
        <ele>1900.18</ele>
        <time>2011-10-13T08:07:43Z</time>
      </trkpt>
      <trkpt lat="44.08429" lon="7.40693">
        <ele>1900.66</ele>
        <time>2011-10-13T08:07:56Z</time>
      </trkpt>
      <trkpt lat="44.0843" lon="7.40694">
        <ele>1901.63</ele>
        <time>2011-10-13T08:08:11Z</time>
      </trkpt>
      <trkpt lat="44.0843" lon="7.40694">
        <ele>1902.11</ele>
        <time>2011-10-13T08:08:35Z</time>
      </trkpt>
      <trkpt lat="44.08431" lon="7.40695">
        <ele>1903.07</ele>
        <time>2011-10-13T08:08:49Z</time>
      </trkpt>
      <trkpt lat="44.08432" lon="7.40694">
        <ele>1903.55</ele>
        <time>2011-10-13T08:09:12Z</time>
      </trkpt>
      <trkpt lat="44.08433" lon="7.40692">
        <ele>1904.03</ele>
        <time>2011-10-13T08:09:34Z</time>
      </trkpt>
      <trkpt lat="44.08432" lon="7.40693">
        <ele>1904.51</ele>
        <time>2011-10-13T08:09:51Z</time>
      </trkpt>
      <trkpt lat="44.08432" lon="7.40693">
        <ele>1904.99</ele>
        <time>2011-10-13T08:10:15Z</time>
      </trkpt>
      <trkpt lat="44.08432" lon="7.40693">
        <ele>1904.51</ele>
        <time>2011-10-13T08:10:16Z</time>
      </trkpt>
      <trkpt lat="44.08433" lon="7.4069">
        <ele>1905.47</ele>
        <time>2011-10-13T08:10:32Z</time>
      </trkpt>
      <trkpt lat="44.08433" lon="7.4069">
        <ele>1905.47</ele>
        <time>2011-10-13T08:10:56Z</time>
      </trkpt>
      <trkpt lat="44.08433" lon="7.4069">
        <ele>1906.43</ele>
        <time>2011-10-13T08:11:12Z</time>
      </trkpt>
      <trkpt lat="44.08433" lon="7.40689">
        <ele>1906.43</ele>
        <time>2011-10-13T08:11:33Z</time>
      </trkpt>
      <trkpt lat="44.08433" lon="7.40691">
        <ele>1906.91</ele>
        <time>2011-10-13T08:11:52Z</time>
      </trkpt>
      <trkpt lat="44.08433" lon="7.40691">
        <ele>1907.87</ele>
        <time>2011-10-13T08:12:14Z</time>
      </trkpt>
      <trkpt lat="44.08433" lon="7.40691">
        <ele>1907.39</ele>
        <time>2011-10-13T08:12:34Z</time>
      </trkpt>
      <trkpt lat="44.08433" lon="7.40691">
        <ele>1905.95</ele>
        <time>2011-10-13T08:12:40Z</time>
      </trkpt>
      <trkpt lat="44.08435" lon="7.40694">
        <ele>1908.35</ele>
        <time>2011-10-13T08:12:54Z</time>
      </trkpt>
      <trkpt lat="44.08443" lon="7.40698">
        <ele>1910.28</ele>
        <time>2011-10-13T08:13:08Z</time>
      </trkpt>
      <trkpt lat="44.08447" lon="7.40701">
        <ele>1911.24</ele>
        <time>2011-10-13T08:13:15Z</time>
      </trkpt>
      <trkpt lat="44.0845" lon="7.40706">
        <ele>1914.12</ele>
        <time>2011-10-13T08:13:30Z</time>
      </trkpt>
      <trkpt lat="44.0845" lon="7.40707">
        <ele>1914.6</ele>
        <time>2011-10-13T08:13:32Z</time>
      </trkpt>
      <trkpt lat="44.08451" lon="7.40713">
        <ele>1915.56</ele>
        <time>2011-10-13T08:13:37Z</time>
      </trkpt>
      <trkpt lat="44.08456" lon="7.4072">
        <ele>1917.01</ele>
        <time>2011-10-13T08:13:50Z</time>
      </trkpt>
      <trkpt lat="44.08461" lon="7.4072">
        <ele>1918.45</ele>
        <time>2011-10-13T08:14:00Z</time>
      </trkpt>
      <trkpt lat="44.08471" lon="7.40718">
        <ele>1919.89</ele>
        <time>2011-10-13T08:14:15Z</time>
      </trkpt>
      <trkpt lat="44.08473" lon="7.40721">
        <ele>1920.37</ele>
        <time>2011-10-13T08:14:18Z</time>
      </trkpt>
      <trkpt lat="44.08482" lon="7.40726">
        <ele>1923.25</ele>
        <time>2011-10-13T08:14:32Z</time>
      </trkpt>
      <trkpt lat="44.0849" lon="7.40735">
        <ele>1926.14</ele>
        <time>2011-10-13T08:14:48Z</time>
      </trkpt>
      <trkpt lat="44.08494" lon="7.40741">
        <ele>1929.02</ele>
        <time>2011-10-13T08:15:04Z</time>
      </trkpt>
      <trkpt lat="44.08499" lon="7.40742">
        <ele>1932.39</ele>
        <time>2011-10-13T08:15:19Z</time>
      </trkpt>
      <trkpt lat="44.08499" lon="7.40739">
        <ele>1934.31</ele>
        <time>2011-10-13T08:15:28Z</time>
      </trkpt>
      <trkpt lat="44.08506" lon="7.40734">
        <ele>1936.71</ele>
        <time>2011-10-13T08:15:43Z</time>
      </trkpt>
      <trkpt lat="44.08513" lon="7.40731">
        <ele>1938.64</ele>
        <time>2011-10-13T08:15:56Z</time>
      </trkpt>
      <trkpt lat="44.08519" lon="7.40734">
        <ele>1941.04</ele>
        <time>2011-10-13T08:16:10Z</time>
      </trkpt>
      <trkpt lat="44.08525" lon="7.40734">
        <ele>1943.92</ele>
        <time>2011-10-13T08:16:23Z</time>
      </trkpt>
      <trkpt lat="44.08531" lon="7.40739">
        <ele>1946.33</ele>
        <time>2011-10-13T08:16:36Z</time>
      </trkpt>
      <trkpt lat="44.08535" lon="7.40732">
        <ele>1948.73</ele>
        <time>2011-10-13T08:16:48Z</time>
      </trkpt>
      <trkpt lat="44.08541" lon="7.40731">
        <ele>1950.65</ele>
        <time>2011-10-13T08:16:58Z</time>
      </trkpt>
      <trkpt lat="44.08547" lon="7.40729">
        <ele>1951.61</ele>
        <time>2011-10-13T08:17:10Z</time>
      </trkpt>
      <trkpt lat="44.08556" lon="7.40733">
        <ele>1954.5</ele>
        <time>2011-10-13T08:17:24Z</time>
      </trkpt>
      <trkpt lat="44.08562" lon="7.40733">
        <ele>1957.86</ele>
        <time>2011-10-13T08:17:40Z</time>
      </trkpt>
      <trkpt lat="44.08571" lon="7.4074">
        <ele>1959.3</ele>
        <time>2011-10-13T08:17:52Z</time>
      </trkpt>
      <trkpt lat="44.08578" lon="7.40745">
        <ele>1961.23</ele>
        <time>2011-10-13T08:18:04Z</time>
      </trkpt>
      <trkpt lat="44.0858" lon="7.40746">
        <ele>1962.19</ele>
        <time>2011-10-13T08:18:07Z</time>
      </trkpt>
      <trkpt lat="44.08584" lon="7.40753">
        <ele>1963.63</ele>
        <time>2011-10-13T08:18:19Z</time>
      </trkpt>
      <trkpt lat="44.0859" lon="7.4076">
        <ele>1966.03</ele>
        <time>2011-10-13T08:18:34Z</time>
      </trkpt>
      <trkpt lat="44.08597" lon="7.40767">
        <ele>1969.4</ele>
        <time>2011-10-13T08:18:47Z</time>
      </trkpt>
      <trkpt lat="44.08606" lon="7.40768">
        <ele>1971.8</ele>
        <time>2011-10-13T08:19:02Z</time>
      </trkpt>
      <trkpt lat="44.08612" lon="7.40775">
        <ele>1974.2</ele>
        <time>2011-10-13T08:19:16Z</time>
      </trkpt>
      <trkpt lat="44.08617" lon="7.40787">
        <ele>1976.61</ele>
        <time>2011-10-13T08:19:30Z</time>
      </trkpt>
      <trkpt lat="44.08618" lon="7.4079">
        <ele>1976.61</ele>
        <time>2011-10-13T08:19:33Z</time>
      </trkpt>
      <trkpt lat="44.08619" lon="7.40795">
        <ele>1976.61</ele>
        <time>2011-10-13T08:19:38Z</time>
      </trkpt>
      <trkpt lat="44.08623" lon="7.40803">
        <ele>1977.57</ele>
        <time>2011-10-13T08:19:49Z</time>
      </trkpt>
      <trkpt lat="44.08623" lon="7.4081">
        <ele>1980.93</ele>
        <time>2011-10-13T08:20:05Z</time>
      </trkpt>
      <trkpt lat="44.08625" lon="7.40814">
        <ele>1981.41</ele>
        <time>2011-10-13T08:20:11Z</time>
      </trkpt>
      <trkpt lat="44.08625" lon="7.40816">
        <ele>1981.41</ele>
        <time>2011-10-13T08:20:16Z</time>
      </trkpt>
      <trkpt lat="44.08627" lon="7.4082">
        <ele>1982.38</ele>
        <time>2011-10-13T08:20:20Z</time>
      </trkpt>
      <trkpt lat="44.0863" lon="7.40825">
        <ele>1982.38</ele>
        <time>2011-10-13T08:20:25Z</time>
      </trkpt>
      <trkpt lat="44.08634" lon="7.40834">
        <ele>1985.74</ele>
        <time>2011-10-13T08:20:38Z</time>
      </trkpt>
      <trkpt lat="44.08637" lon="7.40843">
        <ele>1988.14</ele>
        <time>2011-10-13T08:20:50Z</time>
      </trkpt>
      <trkpt lat="44.08639" lon="7.4085">
        <ele>1990.07</ele>
        <time>2011-10-13T08:21:02Z</time>
      </trkpt>
      <trkpt lat="44.0864" lon="7.40854">
        <ele>1993.43</ele>
        <time>2011-10-13T08:21:14Z</time>
      </trkpt>
      <trkpt lat="44.08642" lon="7.40856">
        <ele>1994.87</ele>
        <time>2011-10-13T08:21:24Z</time>
      </trkpt>
      <trkpt lat="44.08643" lon="7.40856">
        <ele>1995.35</ele>
        <time>2011-10-13T08:21:28Z</time>
      </trkpt>
      <trkpt lat="44.08644" lon="7.40856">
        <ele>1996.8</ele>
        <time>2011-10-13T08:21:31Z</time>
      </trkpt>
      <trkpt lat="44.08646" lon="7.40857">
        <ele>1997.76</ele>
        <time>2011-10-13T08:21:37Z</time>
      </trkpt>
      <trkpt lat="44.0865" lon="7.40863">
        <ele>2000.64</ele>
        <time>2011-10-13T08:21:50Z</time>
      </trkpt>
      <trkpt lat="44.08652" lon="7.40865">
        <ele>2002.56</ele>
        <time>2011-10-13T08:22:04Z</time>
      </trkpt>
      <trkpt lat="44.08654" lon="7.40872">
        <ele>2004.01</ele>
        <time>2011-10-13T08:22:15Z</time>
      </trkpt>
      <trkpt lat="44.08654" lon="7.40876">
        <ele>2004.97</ele>
        <time>2011-10-13T08:22:21Z</time>
      </trkpt>
      <trkpt lat="44.08653" lon="7.40881">
        <ele>2006.41</ele>
        <time>2011-10-13T08:22:26Z</time>
      </trkpt>
      <trkpt lat="44.0866" lon="7.40874">
        <ele>2007.85</ele>
        <time>2011-10-13T08:22:40Z</time>
      </trkpt>
      <trkpt lat="44.08664" lon="7.40882">
        <ele>2008.81</ele>
        <time>2011-10-13T08:22:50Z</time>
      </trkpt>
      <trkpt lat="44.0866" lon="7.40891">
        <ele>2010.73</ele>
        <time>2011-10-13T08:23:00Z</time>
      </trkpt>
      <trkpt lat="44.08665" lon="7.40899">
        <ele>2013.14</ele>
        <time>2011-10-13T08:23:13Z</time>
      </trkpt>
      <trkpt lat="44.0867" lon="7.40912">
        <ele>2016.98</ele>
        <time>2011-10-13T08:23:29Z</time>
      </trkpt>
      <trkpt lat="44.0867" lon="7.4092">
        <ele>2018.91</ele>
        <time>2011-10-13T08:23:41Z</time>
      </trkpt>
      <trkpt lat="44.08672" lon="7.40923">
        <ele>2021.31</ele>
        <time>2011-10-13T08:23:54Z</time>
      </trkpt>
      <trkpt lat="44.08677" lon="7.40931">
        <ele>2023.71</ele>
        <time>2011-10-13T08:24:09Z</time>
      </trkpt>
      <trkpt lat="44.08682" lon="7.40935">
        <ele>2024.67</ele>
        <time>2011-10-13T08:24:22Z</time>
      </trkpt>
      <trkpt lat="44.08685" lon="7.40941">
        <ele>2027.08</ele>
        <time>2011-10-13T08:24:34Z</time>
      </trkpt>
      <trkpt lat="44.08687" lon="7.4095">
        <ele>2029.96</ele>
        <time>2011-10-13T08:24:48Z</time>
      </trkpt>
      <trkpt lat="44.08692" lon="7.40951">
        <ele>2032.84</ele>
        <time>2011-10-13T08:24:58Z</time>
      </trkpt>
      <trkpt lat="44.08696" lon="7.40954">
        <ele>2034.77</ele>
        <time>2011-10-13T08:25:12Z</time>
      </trkpt>
      <trkpt lat="44.087" lon="7.40961">
        <ele>2034.77</ele>
        <time>2011-10-13T08:25:23Z</time>
      </trkpt>
      <trkpt lat="44.08699" lon="7.4097">
        <ele>2036.69</ele>
        <time>2011-10-13T08:25:36Z</time>
      </trkpt>
      <trkpt lat="44.08699" lon="7.40971">
        <ele>2036.69</ele>
        <time>2011-10-13T08:25:37Z</time>
      </trkpt>
      <trkpt lat="44.08701" lon="7.40975">
        <ele>2037.65</ele>
        <time>2011-10-13T08:25:41Z</time>
      </trkpt>
      <trkpt lat="44.08707" lon="7.40988">
        <ele>2038.13</ele>
        <time>2011-10-13T08:25:55Z</time>
      </trkpt>
      <trkpt lat="44.08709" lon="7.40988">
        <ele>2039.57</ele>
        <time>2011-10-13T08:26:07Z</time>
      </trkpt>
      <trkpt lat="44.08713" lon="7.40986">
        <ele>2040.05</ele>
        <time>2011-10-13T08:26:13Z</time>
      </trkpt>
      <trkpt lat="44.08719" lon="7.40989">
        <ele>2043.42</ele>
        <time>2011-10-13T08:26:29Z</time>
      </trkpt>
      <trkpt lat="44.08726" lon="7.40995">
        <ele>2046.3</ele>
        <time>2011-10-13T08:26:43Z</time>
      </trkpt>
      <trkpt lat="44.0873" lon="7.41">
        <ele>2048.71</ele>
        <time>2011-10-13T08:26:58Z</time>
      </trkpt>
      <trkpt lat="44.08735" lon="7.41004">
        <ele>2052.07</ele>
        <time>2011-10-13T08:27:10Z</time>
      </trkpt>
      <trkpt lat="44.08741" lon="7.41011">
        <ele>2054.96</ele>
        <time>2011-10-13T08:27:24Z</time>
      </trkpt>
      <trkpt lat="44.08742" lon="7.41015">
        <ele>2056.88</ele>
        <time>2011-10-13T08:27:37Z</time>
      </trkpt>
      <trkpt lat="44.08742" lon="7.41015">
        <ele>2059.28</ele>
        <time>2011-10-13T08:27:52Z</time>
      </trkpt>
      <trkpt lat="44.08742" lon="7.41021">
        <ele>2062.65</ele>
        <time>2011-10-13T08:28:05Z</time>
      </trkpt>
      <trkpt lat="44.08743" lon="7.41033">
        <ele>2065.05</ele>
        <time>2011-10-13T08:28:20Z</time>
      </trkpt>
      <trkpt lat="44.08746" lon="7.4104">
        <ele>2068.41</ele>
        <time>2011-10-13T08:28:37Z</time>
      </trkpt>
      <trkpt lat="44.08748" lon="7.41045">
        <ele>2070.82</ele>
        <time>2011-10-13T08:28:51Z</time>
      </trkpt>
      <trkpt lat="44.08749" lon="7.41049">
        <ele>2073.22</ele>
        <time>2011-10-13T08:29:06Z</time>
      </trkpt>
      <trkpt lat="44.08751" lon="7.41056">
        <ele>2075.62</ele>
        <time>2011-10-13T08:29:19Z</time>
      </trkpt>
      <trkpt lat="44.08751" lon="7.41058">
        <ele>2076.1</ele>
        <time>2011-10-13T08:29:21Z</time>
      </trkpt>
      <trkpt lat="44.08753" lon="7.41065">
        <ele>2078.51</ele>
        <time>2011-10-13T08:29:36Z</time>
      </trkpt>
      <trkpt lat="44.08753" lon="7.41065">
        <ele>2078.99</ele>
        <time>2011-10-13T08:29:56Z</time>
      </trkpt>
      <trkpt lat="44.08756" lon="7.41069">
        <ele>2078.51</ele>
        <time>2011-10-13T08:30:17Z</time>
      </trkpt>
      <trkpt lat="44.0876" lon="7.41076">
        <ele>2077.55</ele>
        <time>2011-10-13T08:30:28Z</time>
      </trkpt>
      <trkpt lat="44.08761" lon="7.41081">
        <ele>2076.59</ele>
        <time>2011-10-13T08:30:41Z</time>
      </trkpt>
      <trkpt lat="44.08762" lon="7.41083">
        <ele>2078.03</ele>
        <time>2011-10-13T08:30:56Z</time>
      </trkpt>
      <trkpt lat="44.08766" lon="7.41095">
        <ele>2077.55</ele>
        <time>2011-10-13T08:31:09Z</time>
      </trkpt>
      <trkpt lat="44.08768" lon="7.41101">
        <ele>2078.03</ele>
        <time>2011-10-13T08:31:20Z</time>
      </trkpt>
      <trkpt lat="44.08768" lon="7.411">
        <ele>2078.99</ele>
        <time>2011-10-13T08:31:35Z</time>
      </trkpt>
      <trkpt lat="44.08768" lon="7.411">
        <ele>2079.47</ele>
        <time>2011-10-13T08:32:03Z</time>
      </trkpt>
      <trkpt lat="44.08768" lon="7.411">
        <ele>2079.47</ele>
        <time>2011-10-13T08:32:22Z</time>
      </trkpt>
      <trkpt lat="44.08768" lon="7.41101">
        <ele>2080.43</ele>
        <time>2011-10-13T08:32:49Z</time>
      </trkpt>
      <trkpt lat="44.08768" lon="7.41101">
        <ele>2080.91</ele>
        <time>2011-10-13T08:33:15Z</time>
      </trkpt>
      <trkpt lat="44.08768" lon="7.41102">
        <ele>2080.91</ele>
        <time>2011-10-13T08:33:44Z</time>
      </trkpt>
      <trkpt lat="44.08767" lon="7.41102">
        <ele>2081.87</ele>
        <time>2011-10-13T08:34:14Z</time>
      </trkpt>
      <trkpt lat="44.08767" lon="7.41102">
        <ele>2082.35</ele>
        <time>2011-10-13T08:34:48Z</time>
      </trkpt>
      <trkpt lat="44.08767" lon="7.41102">
        <ele>2082.83</ele>
        <time>2011-10-13T08:35:20Z</time>
      </trkpt>
      <trkpt lat="44.08767" lon="7.41102">
        <ele>2082.83</ele>
        <time>2011-10-13T08:35:40Z</time>
      </trkpt>
      <trkpt lat="44.08769" lon="7.41108">
        <ele>2082.35</ele>
        <time>2011-10-13T08:35:47Z</time>
      </trkpt>
      <trkpt lat="44.08773" lon="7.41113">
        <ele>2083.31</ele>
        <time>2011-10-13T08:35:53Z</time>
      </trkpt>
      <trkpt lat="44.08784" lon="7.4112">
        <ele>2082.83</ele>
        <time>2011-10-13T08:36:06Z</time>
      </trkpt>
      <trkpt lat="44.08786" lon="7.41121">
        <ele>2082.35</ele>
        <time>2011-10-13T08:36:09Z</time>
      </trkpt>
      <trkpt lat="44.08792" lon="7.41119">
        <ele>2083.79</ele>
        <time>2011-10-13T08:36:23Z</time>
      </trkpt>
      <trkpt lat="44.08797" lon="7.41126">
        <ele>2087.16</ele>
        <time>2011-10-13T08:36:36Z</time>
      </trkpt>
      <trkpt lat="44.088" lon="7.41131">
        <ele>2090.04</ele>
        <time>2011-10-13T08:36:49Z</time>
      </trkpt>
      <trkpt lat="44.08805" lon="7.4114">
        <ele>2092.93</ele>
        <time>2011-10-13T08:37:03Z</time>
      </trkpt>
      <trkpt lat="44.08807" lon="7.41137">
        <ele>2095.33</ele>
        <time>2011-10-13T08:37:18Z</time>
      </trkpt>
      <trkpt lat="44.08807" lon="7.41137">
        <ele>2095.33</ele>
        <time>2011-10-13T08:37:19Z</time>
      </trkpt>
      <trkpt lat="44.0881" lon="7.41148">
        <ele>2098.21</ele>
        <time>2011-10-13T08:37:34Z</time>
      </trkpt>
      <trkpt lat="44.08814" lon="7.41159">
        <ele>2099.66</ele>
        <time>2011-10-13T08:37:47Z</time>
      </trkpt>
      <trkpt lat="44.08814" lon="7.4116">
        <ele>2102.54</ele>
        <time>2011-10-13T08:37:59Z</time>
      </trkpt>
      <trkpt lat="44.08817" lon="7.41159">
        <ele>2103.02</ele>
        <time>2011-10-13T08:38:04Z</time>
      </trkpt>
      <trkpt lat="44.08821" lon="7.41166">
        <ele>2105.91</ele>
        <time>2011-10-13T08:38:20Z</time>
      </trkpt>
      <trkpt lat="44.08823" lon="7.41168">
        <ele>2107.83</ele>
        <time>2011-10-13T08:38:33Z</time>
      </trkpt>
      <trkpt lat="44.08823" lon="7.41179">
        <ele>2110.71</ele>
        <time>2011-10-13T08:38:48Z</time>
      </trkpt>
      <trkpt lat="44.08823" lon="7.41179">
        <ele>2110.71</ele>
        <time>2011-10-13T08:38:50Z</time>
      </trkpt>
      <trkpt lat="44.08826" lon="7.41188">
        <ele>2112.63</ele>
        <time>2011-10-13T08:39:03Z</time>
      </trkpt>
      <trkpt lat="44.08823" lon="7.41198">
        <ele>2114.08</ele>
        <time>2011-10-13T08:39:16Z</time>
      </trkpt>
      <trkpt lat="44.08827" lon="7.41208">
        <ele>2116.48</ele>
        <time>2011-10-13T08:39:30Z</time>
      </trkpt>
      <trkpt lat="44.08829" lon="7.4122">
        <ele>2117.44</ele>
        <time>2011-10-13T08:39:44Z</time>
      </trkpt>
      <trkpt lat="44.08831" lon="7.41228">
        <ele>2117.92</ele>
        <time>2011-10-13T08:39:57Z</time>
      </trkpt>
      <trkpt lat="44.08831" lon="7.41227">
        <ele>2118.4</ele>
        <time>2011-10-13T08:40:16Z</time>
      </trkpt>
      <trkpt lat="44.08831" lon="7.41227">
        <ele>2118.88</ele>
        <time>2011-10-13T08:40:42Z</time>
      </trkpt>
      <trkpt lat="44.0883" lon="7.41227">
        <ele>2119.36</ele>
        <time>2011-10-13T08:41:14Z</time>
      </trkpt>
      <trkpt lat="44.0883" lon="7.41227">
        <ele>2119.84</ele>
        <time>2011-10-13T08:41:43Z</time>
      </trkpt>
      <trkpt lat="44.08831" lon="7.41235">
        <ele>2120.81</ele>
        <time>2011-10-13T08:41:59Z</time>
      </trkpt>
      <trkpt lat="44.08828" lon="7.41232">
        <ele>2123.69</ele>
        <time>2011-10-13T08:42:14Z</time>
      </trkpt>
      <trkpt lat="44.08833" lon="7.41235">
        <ele>2125.61</ele>
        <time>2011-10-13T08:42:27Z</time>
      </trkpt>
      <trkpt lat="44.08834" lon="7.41235">
        <ele>2127.05</ele>
        <time>2011-10-13T08:42:31Z</time>
      </trkpt>
      <trkpt lat="44.08837" lon="7.41239">
        <ele>2128.5</ele>
        <time>2011-10-13T08:42:37Z</time>
      </trkpt>
      <trkpt lat="44.08839" lon="7.41244">
        <ele>2130.42</ele>
        <time>2011-10-13T08:42:50Z</time>
      </trkpt>
      <trkpt lat="44.08839" lon="7.4125">
        <ele>2132.34</ele>
        <time>2011-10-13T08:43:04Z</time>
      </trkpt>
      <trkpt lat="44.0884" lon="7.41255">
        <ele>2135.71</ele>
        <time>2011-10-13T08:43:19Z</time>
      </trkpt>
      <trkpt lat="44.08841" lon="7.41258">
        <ele>2137.15</ele>
        <time>2011-10-13T08:43:30Z</time>
      </trkpt>
      <trkpt lat="44.08843" lon="7.41264">
        <ele>2139.55</ele>
        <time>2011-10-13T08:43:45Z</time>
      </trkpt>
      <trkpt lat="44.08846" lon="7.41266">
        <ele>2140.51</ele>
        <time>2011-10-13T08:43:49Z</time>
      </trkpt>
      <trkpt lat="44.08846" lon="7.41269">
        <ele>2140.99</ele>
        <time>2011-10-13T08:43:51Z</time>
      </trkpt>
      <trkpt lat="44.08847" lon="7.41274">
        <ele>2142.92</ele>
        <time>2011-10-13T08:44:04Z</time>
      </trkpt>
      <trkpt lat="44.08848" lon="7.41275">
        <ele>2143.4</ele>
        <time>2011-10-13T08:44:06Z</time>
      </trkpt>
      <trkpt lat="44.08854" lon="7.41285">
        <ele>2145.8</ele>
        <time>2011-10-13T08:44:20Z</time>
      </trkpt>
      <trkpt lat="44.08855" lon="7.41287">
        <ele>2147.72</ele>
        <time>2011-10-13T08:44:34Z</time>
      </trkpt>
      <trkpt lat="44.08859" lon="7.41302">
        <ele>2149.65</ele>
        <time>2011-10-13T08:44:50Z</time>
      </trkpt>
      <trkpt lat="44.08859" lon="7.41308">
        <ele>2152.53</ele>
        <time>2011-10-13T08:45:04Z</time>
      </trkpt>
      <trkpt lat="44.0886" lon="7.41311">
        <ele>2153.49</ele>
        <time>2011-10-13T08:45:10Z</time>
      </trkpt>
      <trkpt lat="44.08858" lon="7.41315">
        <ele>2155.41</ele>
        <time>2011-10-13T08:45:23Z</time>
      </trkpt>
      <trkpt lat="44.0886" lon="7.41323">
        <ele>2157.34</ele>
        <time>2011-10-13T08:45:37Z</time>
      </trkpt>
      <trkpt lat="44.08863" lon="7.41323">
        <ele>2159.74</ele>
        <time>2011-10-13T08:45:49Z</time>
      </trkpt>
      <trkpt lat="44.08868" lon="7.4132">
        <ele>2162.14</ele>
        <time>2011-10-13T08:46:03Z</time>
      </trkpt>
      <trkpt lat="44.08873" lon="7.41324">
        <ele>2163.58</ele>
        <time>2011-10-13T08:46:14Z</time>
      </trkpt>
      <trkpt lat="44.08875" lon="7.41329">
        <ele>2165.99</ele>
        <time>2011-10-13T08:46:27Z</time>
      </trkpt>
      <trkpt lat="44.08878" lon="7.41326">
        <ele>2166.95</ele>
        <time>2011-10-13T08:46:36Z</time>
      </trkpt>
      <trkpt lat="44.08884" lon="7.41333">
        <ele>2169.83</ele>
        <time>2011-10-13T08:46:49Z</time>
      </trkpt>
      <trkpt lat="44.08885" lon="7.41334">
        <ele>2173.2</ele>
        <time>2011-10-13T08:47:01Z</time>
      </trkpt>
      <trkpt lat="44.08888" lon="7.41335">
        <ele>2174.64</ele>
        <time>2011-10-13T08:47:15Z</time>
      </trkpt>
      <trkpt lat="44.08893" lon="7.41337">
        <ele>2177.04</ele>
        <time>2011-10-13T08:47:27Z</time>
      </trkpt>
      <trkpt lat="44.08895" lon="7.41338">
        <ele>2178.97</ele>
        <time>2011-10-13T08:47:40Z</time>
      </trkpt>
      <trkpt lat="44.08902" lon="7.41348">
        <ele>2181.37</ele>
        <time>2011-10-13T08:47:53Z</time>
      </trkpt>
      <trkpt lat="44.08905" lon="7.41351">
        <ele>2183.77</ele>
        <time>2011-10-13T08:48:06Z</time>
      </trkpt>
      <trkpt lat="44.08907" lon="7.41357">
        <ele>2186.18</ele>
        <time>2011-10-13T08:48:18Z</time>
      </trkpt>
      <trkpt lat="44.08907" lon="7.41352">
        <ele>2187.62</ele>
        <time>2011-10-13T08:48:33Z</time>
      </trkpt>
      <trkpt lat="44.08911" lon="7.41364">
        <ele>2190.02</ele>
        <time>2011-10-13T08:48:48Z</time>
      </trkpt>
      <trkpt lat="44.08915" lon="7.4137">
        <ele>2192.42</ele>
        <time>2011-10-13T08:49:01Z</time>
      </trkpt>
      <trkpt lat="44.08922" lon="7.41383">
        <ele>2193.87</ele>
        <time>2011-10-13T08:49:14Z</time>
      </trkpt>
      <trkpt lat="44.08925" lon="7.41388">
        <ele>2195.79</ele>
        <time>2011-10-13T08:49:27Z</time>
      </trkpt>
      <trkpt lat="44.08928" lon="7.41394">
        <ele>2198.19</ele>
        <time>2011-10-13T08:49:39Z</time>
      </trkpt>
      <trkpt lat="44.08926" lon="7.41394">
        <ele>2199.63</ele>
        <time>2011-10-13T08:49:51Z</time>
      </trkpt>
      <trkpt lat="44.08923" lon="7.41381">
        <ele>2200.11</ele>
        <time>2011-10-13T08:50:03Z</time>
      </trkpt>
      <trkpt lat="44.08926" lon="7.41371">
        <ele>2202.52</ele>
        <time>2011-10-13T08:50:16Z</time>
      </trkpt>
      <trkpt lat="44.08928" lon="7.41361">
        <ele>2204.44</ele>
        <time>2011-10-13T08:50:28Z</time>
      </trkpt>
      <trkpt lat="44.08932" lon="7.41356">
        <ele>2206.36</ele>
        <time>2011-10-13T08:50:42Z</time>
      </trkpt>
      <trkpt lat="44.08934" lon="7.41351">
        <ele>2208.29</ele>
        <time>2011-10-13T08:50:49Z</time>
      </trkpt>
      <trkpt lat="44.0894" lon="7.41347">
        <ele>2209.73</ele>
        <time>2011-10-13T08:51:01Z</time>
      </trkpt>
      <trkpt lat="44.08944" lon="7.41346">
        <ele>2211.65</ele>
        <time>2011-10-13T08:51:13Z</time>
      </trkpt>
      <trkpt lat="44.08945" lon="7.41343">
        <ele>2214.05</ele>
        <time>2011-10-13T08:51:27Z</time>
      </trkpt>
      <trkpt lat="44.0895" lon="7.41341">
        <ele>2216.46</ele>
        <time>2011-10-13T08:51:41Z</time>
      </trkpt>
      <trkpt lat="44.08952" lon="7.41342">
        <ele>2217.42</ele>
        <time>2011-10-13T08:51:54Z</time>
      </trkpt>
      <trkpt lat="44.08962" lon="7.41342">
        <ele>2219.82</ele>
        <time>2011-10-13T08:52:06Z</time>
      </trkpt>
      <trkpt lat="44.08964" lon="7.41345">
        <ele>2222.22</ele>
        <time>2011-10-13T08:52:18Z</time>
      </trkpt>
      <trkpt lat="44.08963" lon="7.41349">
        <ele>2223.67</ele>
        <time>2011-10-13T08:52:26Z</time>
      </trkpt>
      <trkpt lat="44.08963" lon="7.41355">
        <ele>2226.07</ele>
        <time>2011-10-13T08:52:39Z</time>
      </trkpt>
      <trkpt lat="44.08966" lon="7.41357">
        <ele>2227.99</ele>
        <time>2011-10-13T08:52:51Z</time>
      </trkpt>
      <trkpt lat="44.08965" lon="7.41361">
        <ele>2229.92</ele>
        <time>2011-10-13T08:53:04Z</time>
      </trkpt>
      <trkpt lat="44.08966" lon="7.41367">
        <ele>2233.28</ele>
        <time>2011-10-13T08:53:17Z</time>
      </trkpt>
      <trkpt lat="44.08964" lon="7.41374">
        <ele>2235.2</ele>
        <time>2011-10-13T08:53:31Z</time>
      </trkpt>
      <trkpt lat="44.08962" lon="7.41375">
        <ele>2236.16</ele>
        <time>2011-10-13T08:53:44Z</time>
      </trkpt>
      <trkpt lat="44.08961" lon="7.4138">
        <ele>2236.64</ele>
        <time>2011-10-13T08:53:49Z</time>
      </trkpt>
      <trkpt lat="44.0896" lon="7.4138">
        <ele>2237.13</ele>
        <time>2011-10-13T08:54:10Z</time>
      </trkpt>
      <trkpt lat="44.08962" lon="7.41381">
        <ele>2237.61</ele>
        <time>2011-10-13T08:54:22Z</time>
      </trkpt>
      <trkpt lat="44.08962" lon="7.41382">
        <ele>2238.09</ele>
        <time>2011-10-13T08:54:37Z</time>
      </trkpt>
      <trkpt lat="44.08962" lon="7.41382">
        <ele>2238.09</ele>
        <time>2011-10-13T08:54:55Z</time>
      </trkpt>
      <trkpt lat="44.08962" lon="7.41382">
        <ele>2239.05</ele>
        <time>2011-10-13T08:55:13Z</time>
      </trkpt>
      <trkpt lat="44.08963" lon="7.41384">
        <ele>2239.05</ele>
        <time>2011-10-13T08:55:32Z</time>
      </trkpt>
      <trkpt lat="44.08967" lon="7.41389">
        <ele>2241.45</ele>
        <time>2011-10-13T08:55:45Z</time>
      </trkpt>
      <trkpt lat="44.08969" lon="7.41388">
        <ele>2242.89</ele>
        <time>2011-10-13T08:55:59Z</time>
      </trkpt>
      <trkpt lat="44.08976" lon="7.41394">
        <ele>2246.26</ele>
        <time>2011-10-13T08:56:09Z</time>
      </trkpt>
      <trkpt lat="44.0898" lon="7.41397">
        <ele>2247.7</ele>
        <time>2011-10-13T08:56:26Z</time>
      </trkpt>
      <trkpt lat="44.0898" lon="7.41397">
        <ele>2247.7</ele>
        <time>2011-10-13T08:56:45Z</time>
      </trkpt>
      <trkpt lat="44.0898" lon="7.41397">
        <ele>2248.18</ele>
        <time>2011-10-13T08:57:03Z</time>
      </trkpt>
      <trkpt lat="44.0898" lon="7.41397">
        <ele>2248.66</ele>
        <time>2011-10-13T08:57:23Z</time>
      </trkpt>
      <trkpt lat="44.0898" lon="7.41397">
        <ele>2249.14</ele>
        <time>2011-10-13T08:57:41Z</time>
      </trkpt>
      <trkpt lat="44.0898" lon="7.41397">
        <ele>2249.14</ele>
        <time>2011-10-13T08:58:05Z</time>
      </trkpt>
      <trkpt lat="44.08982" lon="7.414">
        <ele>2250.1</ele>
        <time>2011-10-13T08:58:26Z</time>
      </trkpt>
      <trkpt lat="44.08983" lon="7.414">
        <ele>2249.62</ele>
        <time>2011-10-13T08:58:27Z</time>
      </trkpt>
      <trkpt lat="44.08988" lon="7.41413">
        <ele>2252.03</ele>
        <time>2011-10-13T08:58:39Z</time>
      </trkpt>
      <trkpt lat="44.08988" lon="7.41422">
        <ele>2252.99</ele>
        <time>2011-10-13T08:58:46Z</time>
      </trkpt>
      <trkpt lat="44.08989" lon="7.41426">
        <ele>2252.51</ele>
        <time>2011-10-13T08:58:48Z</time>
      </trkpt>
      <trkpt lat="44.08994" lon="7.4144">
        <ele>2253.95</ele>
        <time>2011-10-13T08:59:02Z</time>
      </trkpt>
      <trkpt lat="44.09" lon="7.41454">
        <ele>2255.87</ele>
        <time>2011-10-13T08:59:14Z</time>
      </trkpt>
      <trkpt lat="44.09008" lon="7.41468">
        <ele>2255.39</ele>
        <time>2011-10-13T08:59:25Z</time>
      </trkpt>
      <trkpt lat="44.09008" lon="7.41472">
        <ele>2255.87</ele>
        <time>2011-10-13T08:59:27Z</time>
      </trkpt>
      <trkpt lat="44.09012" lon="7.4148">
        <ele>2255.39</ele>
        <time>2011-10-13T08:59:33Z</time>
      </trkpt>
      <trkpt lat="44.09015" lon="7.41489">
        <ele>2255.87</ele>
        <time>2011-10-13T08:59:39Z</time>
      </trkpt>
      <trkpt lat="44.09016" lon="7.41496">
        <ele>2255.39</ele>
        <time>2011-10-13T08:59:44Z</time>
      </trkpt>
      <trkpt lat="44.09017" lon="7.41499">
        <ele>2255.39</ele>
        <time>2011-10-13T08:59:46Z</time>
      </trkpt>
      <trkpt lat="44.09023" lon="7.41513">
        <ele>2254.43</ele>
        <time>2011-10-13T08:59:57Z</time>
      </trkpt>
      <trkpt lat="44.09031" lon="7.41526">
        <ele>2254.91</ele>
        <time>2011-10-13T09:00:10Z</time>
      </trkpt>
      <trkpt lat="44.09035" lon="7.4154">
        <ele>2254.43</ele>
        <time>2011-10-13T09:00:20Z</time>
      </trkpt>
      <trkpt lat="44.09037" lon="7.4155">
        <ele>2254.91</ele>
        <time>2011-10-13T09:00:26Z</time>
      </trkpt>
      <trkpt lat="44.09037" lon="7.41553">
        <ele>2254.43</ele>
        <time>2011-10-13T09:00:28Z</time>
      </trkpt>
      <trkpt lat="44.09039" lon="7.41564">
        <ele>2254.43</ele>
        <time>2011-10-13T09:00:40Z</time>
      </trkpt>
      <trkpt lat="44.0904" lon="7.41569">
        <ele>2254.91</ele>
        <time>2011-10-13T09:00:54Z</time>
      </trkpt>
      <trkpt lat="44.09039" lon="7.41568">
        <ele>2255.39</ele>
        <time>2011-10-13T09:01:21Z</time>
      </trkpt>
      <trkpt lat="44.09039" lon="7.41567">
        <ele>2254.91</ele>
        <time>2011-10-13T09:01:38Z</time>
      </trkpt>
      <trkpt lat="44.09038" lon="7.41567">
        <ele>2254.91</ele>
        <time>2011-10-13T09:01:54Z</time>
      </trkpt>
      <trkpt lat="44.09038" lon="7.41567">
        <ele>2254.43</ele>
        <time>2011-10-13T09:02:10Z</time>
      </trkpt>
      <trkpt lat="44.09042" lon="7.41569">
        <ele>2255.39</ele>
        <time>2011-10-13T09:02:32Z</time>
      </trkpt>
      <trkpt lat="44.09044" lon="7.41569">
        <ele>2255.39</ele>
        <time>2011-10-13T09:02:43Z</time>
      </trkpt>
      <trkpt lat="44.09044" lon="7.41569">
        <ele>2255.87</ele>
        <time>2011-10-13T09:03:07Z</time>
      </trkpt>
      <trkpt lat="44.09044" lon="7.4157">
        <ele>2256.35</ele>
        <time>2011-10-13T09:03:26Z</time>
      </trkpt>
      <trkpt lat="44.09044" lon="7.41569">
        <ele>2256.35</ele>
        <time>2011-10-13T09:03:45Z</time>
      </trkpt>
      <trkpt lat="44.09044" lon="7.41569">
        <ele>2255.87</ele>
        <time>2011-10-13T09:04:11Z</time>
      </trkpt>
      <trkpt lat="44.09044" lon="7.4157">
        <ele>2256.83</ele>
        <time>2011-10-13T09:04:39Z</time>
      </trkpt>
      <trkpt lat="44.09044" lon="7.41569">
        <ele>2256.35</ele>
        <time>2011-10-13T09:05:01Z</time>
      </trkpt>
      <trkpt lat="44.09044" lon="7.41569">
        <ele>2256.35</ele>
        <time>2011-10-13T09:05:20Z</time>
      </trkpt>
      <trkpt lat="44.09044" lon="7.41569">
        <ele>2257.31</ele>
        <time>2011-10-13T09:05:43Z</time>
      </trkpt>
      <trkpt lat="44.09044" lon="7.41569">
        <ele>2257.31</ele>
        <time>2011-10-13T09:06:02Z</time>
      </trkpt>
      <trkpt lat="44.09043" lon="7.41569">
        <ele>2257.31</ele>
        <time>2011-10-13T09:06:24Z</time>
      </trkpt>
      <trkpt lat="44.09043" lon="7.41569">
        <ele>2257.79</ele>
        <time>2011-10-13T09:06:57Z</time>
      </trkpt>
      <trkpt lat="44.09043" lon="7.41569">
        <ele>2257.31</ele>
        <time>2011-10-13T09:07:22Z</time>
      </trkpt>
      <trkpt lat="44.09043" lon="7.41569">
        <ele>2257.31</ele>
        <time>2011-10-13T09:07:43Z</time>
      </trkpt>
      <trkpt lat="44.09043" lon="7.41569">
        <ele>2257.31</ele>
        <time>2011-10-13T09:08:06Z</time>
      </trkpt>
      <trkpt lat="44.09044" lon="7.41568">
        <ele>2258.27</ele>
        <time>2011-10-13T09:08:30Z</time>
      </trkpt>
      <trkpt lat="44.09044" lon="7.41568">
        <ele>2257.79</ele>
        <time>2011-10-13T09:08:54Z</time>
      </trkpt>
      <trkpt lat="44.09043" lon="7.41568">
        <ele>2258.27</ele>
        <time>2011-10-13T09:09:16Z</time>
      </trkpt>
      <trkpt lat="44.09043" lon="7.41568">
        <ele>2258.75</ele>
        <time>2011-10-13T09:09:47Z</time>
      </trkpt>
      <trkpt lat="44.09043" lon="7.41568">
        <ele>2258.75</ele>
        <time>2011-10-13T09:10:10Z</time>
      </trkpt>
      <trkpt lat="44.09043" lon="7.41568">
        <ele>2259.24</ele>
        <time>2011-10-13T09:10:38Z</time>
      </trkpt>
      <trkpt lat="44.09043" lon="7.41568">
        <ele>2259.24</ele>
        <time>2011-10-13T09:11:05Z</time>
      </trkpt>
      <trkpt lat="44.09042" lon="7.41568">
        <ele>2258.75</ele>
        <time>2011-10-13T09:11:36Z</time>
      </trkpt>
      <trkpt lat="44.09042" lon="7.41568">
        <ele>2259.24</ele>
        <time>2011-10-13T09:12:04Z</time>
      </trkpt>
      <trkpt lat="44.09042" lon="7.41568">
        <ele>2259.72</ele>
        <time>2011-10-13T09:12:27Z</time>
      </trkpt>
      <trkpt lat="44.09041" lon="7.41561">
        <ele>2259.24</ele>
        <time>2011-10-13T09:12:40Z</time>
      </trkpt>
      <trkpt lat="44.09041" lon="7.4155">
        <ele>2260.68</ele>
        <time>2011-10-13T09:12:48Z</time>
      </trkpt>
      <trkpt lat="44.09041" lon="7.41544">
        <ele>2260.68</ele>
        <time>2011-10-13T09:12:52Z</time>
      </trkpt>
      <trkpt lat="44.09044" lon="7.41541">
        <ele>2261.64</ele>
        <time>2011-10-13T09:12:55Z</time>
      </trkpt>
      <trkpt lat="44.09045" lon="7.41539">
        <ele>2261.16</ele>
        <time>2011-10-13T09:12:57Z</time>
      </trkpt>
      <trkpt lat="44.09044" lon="7.41524">
        <ele>2263.56</ele>
        <time>2011-10-13T09:13:11Z</time>
      </trkpt>
      <trkpt lat="44.09044" lon="7.41512">
        <ele>2265.48</ele>
        <time>2011-10-13T09:13:25Z</time>
      </trkpt>
      <trkpt lat="44.09044" lon="7.41507">
        <ele>2265.96</ele>
        <time>2011-10-13T09:13:31Z</time>
      </trkpt>
      <trkpt lat="44.09049" lon="7.41498">
        <ele>2267.41</ele>
        <time>2011-10-13T09:13:43Z</time>
      </trkpt>
      <trkpt lat="44.09051" lon="7.41497">
        <ele>2268.85</ele>
        <time>2011-10-13T09:13:47Z</time>
      </trkpt>
      <trkpt lat="44.09058" lon="7.41497">
        <ele>2269.33</ele>
        <time>2011-10-13T09:13:59Z</time>
      </trkpt>
      <trkpt lat="44.09061" lon="7.41499">
        <ele>2269.81</ele>
        <time>2011-10-13T09:14:05Z</time>
      </trkpt>
      <trkpt lat="44.09064" lon="7.41503">
        <ele>2270.77</ele>
        <time>2011-10-13T09:14:12Z</time>
      </trkpt>
      <trkpt lat="44.0907" lon="7.41498">
        <ele>2273.66</ele>
        <time>2011-10-13T09:14:25Z</time>
      </trkpt>
      <trkpt lat="44.09072" lon="7.41497">
        <ele>2274.14</ele>
        <time>2011-10-13T09:14:27Z</time>
      </trkpt>
      <trkpt lat="44.09077" lon="7.41489">
        <ele>2277.5</ele>
        <time>2011-10-13T09:14:40Z</time>
      </trkpt>
      <trkpt lat="44.0908" lon="7.41479">
        <ele>2278.94</ele>
        <time>2011-10-13T09:14:51Z</time>
      </trkpt>
      <trkpt lat="44.09087" lon="7.41471">
        <ele>2279.42</ele>
        <time>2011-10-13T09:15:05Z</time>
      </trkpt>
      <trkpt lat="44.09087" lon="7.41475">
        <ele>2280.38</ele>
        <time>2011-10-13T09:15:09Z</time>
      </trkpt>
      <trkpt lat="44.09091" lon="7.41483">
        <ele>2282.31</ele>
        <time>2011-10-13T09:15:23Z</time>
      </trkpt>
      <trkpt lat="44.09093" lon="7.41491">
        <ele>2283.75</ele>
        <time>2011-10-13T09:15:35Z</time>
      </trkpt>
      <trkpt lat="44.09097" lon="7.41499">
        <ele>2285.67</ele>
        <time>2011-10-13T09:15:48Z</time>
      </trkpt>
      <trkpt lat="44.09102" lon="7.41508">
        <ele>2287.11</ele>
        <time>2011-10-13T09:16:00Z</time>
      </trkpt>
      <trkpt lat="44.09106" lon="7.41511">
        <ele>2290.48</ele>
        <time>2011-10-13T09:16:13Z</time>
      </trkpt>
      <trkpt lat="44.0911" lon="7.41515">
        <ele>2291.92</ele>
        <time>2011-10-13T09:16:25Z</time>
      </trkpt>
      <trkpt lat="44.09114" lon="7.41516">
        <ele>2293.36</ele>
        <time>2011-10-13T09:16:31Z</time>
      </trkpt>
      <trkpt lat="44.09119" lon="7.41513">
        <ele>2295.77</ele>
        <time>2011-10-13T09:16:45Z</time>
      </trkpt>
      <trkpt lat="44.09126" lon="7.41521">
        <ele>2296.73</ele>
        <time>2011-10-13T09:16:56Z</time>
      </trkpt>
      <trkpt lat="44.09125" lon="7.41529">
        <ele>2298.17</ele>
        <time>2011-10-13T09:17:09Z</time>
      </trkpt>
      <trkpt lat="44.09126" lon="7.41541">
        <ele>2298.65</ele>
        <time>2011-10-13T09:17:22Z</time>
      </trkpt>
      <trkpt lat="44.09128" lon="7.41549">
        <ele>2299.61</ele>
        <time>2011-10-13T09:17:34Z</time>
      </trkpt>
      <trkpt lat="44.09128" lon="7.41554">
        <ele>2300.57</ele>
        <time>2011-10-13T09:17:39Z</time>
      </trkpt>
      <trkpt lat="44.0913" lon="7.41558">
        <ele>2300.57</ele>
        <time>2011-10-13T09:17:43Z</time>
      </trkpt>
      <trkpt lat="44.0913" lon="7.4157">
        <ele>2301.05</ele>
        <time>2011-10-13T09:17:53Z</time>
      </trkpt>
      <trkpt lat="44.09134" lon="7.4158">
        <ele>2302.98</ele>
        <time>2011-10-13T09:18:08Z</time>
      </trkpt>
      <trkpt lat="44.09139" lon="7.41586">
        <ele>2304.9</ele>
        <time>2011-10-13T09:18:20Z</time>
      </trkpt>
      <trkpt lat="44.09141" lon="7.41594">
        <ele>2305.38</ele>
        <time>2011-10-13T09:18:33Z</time>
      </trkpt>
      <trkpt lat="44.09143" lon="7.41595">
        <ele>2306.34</ele>
        <time>2011-10-13T09:18:36Z</time>
      </trkpt>
      <trkpt lat="44.0915" lon="7.41602">
        <ele>2307.3</ele>
        <time>2011-10-13T09:18:49Z</time>
      </trkpt>
      <trkpt lat="44.09153" lon="7.41609">
        <ele>2309.7</ele>
        <time>2011-10-13T09:19:02Z</time>
      </trkpt>
      <trkpt lat="44.09155" lon="7.41611">
        <ele>2310.67</ele>
        <time>2011-10-13T09:19:07Z</time>
      </trkpt>
      <trkpt lat="44.09158" lon="7.41618">
        <ele>2313.07</ele>
        <time>2011-10-13T09:19:20Z</time>
      </trkpt>
      <trkpt lat="44.0916" lon="7.41618">
        <ele>2313.07</ele>
        <time>2011-10-13T09:19:22Z</time>
      </trkpt>
      <trkpt lat="44.09165" lon="7.41619">
        <ele>2314.51</ele>
        <time>2011-10-13T09:19:34Z</time>
      </trkpt>
      <trkpt lat="44.0917" lon="7.41618">
        <ele>2315.47</ele>
        <time>2011-10-13T09:19:47Z</time>
      </trkpt>
      <trkpt lat="44.09174" lon="7.41623">
        <ele>2318.36</ele>
        <time>2011-10-13T09:19:56Z</time>
      </trkpt>
      <trkpt lat="44.09177" lon="7.41624">
        <ele>2321.24</ele>
        <time>2011-10-13T09:20:09Z</time>
      </trkpt>
      <trkpt lat="44.0918" lon="7.41626">
        <ele>2321.24</ele>
        <time>2011-10-13T09:20:24Z</time>
      </trkpt>
      <trkpt lat="44.09181" lon="7.41632">
        <ele>2323.64</ele>
        <time>2011-10-13T09:20:31Z</time>
      </trkpt>
      <trkpt lat="44.09184" lon="7.41638">
        <ele>2327.01</ele>
        <time>2011-10-13T09:20:41Z</time>
      </trkpt>
      <trkpt lat="44.09187" lon="7.41638">
        <ele>2327.97</ele>
        <time>2011-10-13T09:20:52Z</time>
      </trkpt>
      <trkpt lat="44.09189" lon="7.41636">
        <ele>2327.01</ele>
        <time>2011-10-13T09:21:02Z</time>
      </trkpt>
      <trkpt lat="44.09189" lon="7.41636">
        <ele>2327.49</ele>
        <time>2011-10-13T09:21:20Z</time>
      </trkpt>
      <trkpt lat="44.09191" lon="7.41638">
        <ele>2324.12</ele>
        <time>2011-10-13T09:21:34Z</time>
      </trkpt>
      <trkpt lat="44.09195" lon="7.4164">
        <ele>2323.64</ele>
        <time>2011-10-13T09:21:45Z</time>
      </trkpt>
      <trkpt lat="44.09196" lon="7.41641">
        <ele>2321.72</ele>
        <time>2011-10-13T09:22:00Z</time>
      </trkpt>
      <trkpt lat="44.09199" lon="7.41643">
        <ele>2322.68</ele>
        <time>2011-10-13T09:22:16Z</time>
      </trkpt>
      <trkpt lat="44.092" lon="7.41644">
        <ele>2322.2</ele>
        <time>2011-10-13T09:22:31Z</time>
      </trkpt>
      <trkpt lat="44.092" lon="7.41644">
        <ele>2322.2</ele>
        <time>2011-10-13T09:22:47Z</time>
      </trkpt>
      <trkpt lat="44.092" lon="7.41644">
        <ele>2322.68</ele>
        <time>2011-10-13T09:23:11Z</time>
      </trkpt>
      <trkpt lat="44.09205" lon="7.4165">
        <ele>2323.16</ele>
        <time>2011-10-13T09:23:24Z</time>
      </trkpt>
      <trkpt lat="44.09207" lon="7.41654">
        <ele>2324.12</ele>
        <time>2011-10-13T09:23:31Z</time>
      </trkpt>
      <trkpt lat="44.09209" lon="7.41656">
        <ele>2324.12</ele>
        <time>2011-10-13T09:23:33Z</time>
      </trkpt>
      <trkpt lat="44.09214" lon="7.41656">
        <ele>2322.2</ele>
        <time>2011-10-13T09:23:47Z</time>
      </trkpt>
      <trkpt lat="44.09216" lon="7.41653">
        <ele>2322.68</ele>
        <time>2011-10-13T09:23:59Z</time>
      </trkpt>
      <trkpt lat="44.09219" lon="7.4165">
        <ele>2325.09</ele>
        <time>2011-10-13T09:24:12Z</time>
      </trkpt>
      <trkpt lat="44.09221" lon="7.41652">
        <ele>2325.57</ele>
        <time>2011-10-13T09:24:14Z</time>
      </trkpt>
      <trkpt lat="44.09224" lon="7.41658">
        <ele>2329.89</ele>
        <time>2011-10-13T09:24:24Z</time>
      </trkpt>
      <trkpt lat="44.0923" lon="7.41668">
        <ele>2331.33</ele>
        <time>2011-10-13T09:24:35Z</time>
      </trkpt>
      <trkpt lat="44.09238" lon="7.41675">
        <ele>2334.7</ele>
        <time>2011-10-13T09:24:47Z</time>
      </trkpt>
      <trkpt lat="44.09244" lon="7.41678">
        <ele>2337.1</ele>
        <time>2011-10-13T09:25:00Z</time>
      </trkpt>
      <trkpt lat="44.09248" lon="7.41676">
        <ele>2339.99</ele>
        <time>2011-10-13T09:25:13Z</time>
      </trkpt>
      <trkpt lat="44.09252" lon="7.4168">
        <ele>2340.95</ele>
        <time>2011-10-13T09:25:20Z</time>
      </trkpt>
      <trkpt lat="44.09259" lon="7.41682">
        <ele>2344.31</ele>
        <time>2011-10-13T09:25:33Z</time>
      </trkpt>
      <trkpt lat="44.09264" lon="7.41685">
        <ele>2348.16</ele>
        <time>2011-10-13T09:25:48Z</time>
      </trkpt>
      <trkpt lat="44.0927" lon="7.41691">
        <ele>2349.6</ele>
        <time>2011-10-13T09:26:00Z</time>
      </trkpt>
      <trkpt lat="44.09273" lon="7.41702">
        <ele>2350.56</ele>
        <time>2011-10-13T09:26:10Z</time>
      </trkpt>
      <trkpt lat="44.09275" lon="7.41705">
        <ele>2351.52</ele>
        <time>2011-10-13T09:26:25Z</time>
      </trkpt>
      <trkpt lat="44.09275" lon="7.41706">
        <ele>2351.52</ele>
        <time>2011-10-13T09:26:28Z</time>
      </trkpt>
      <trkpt lat="44.09277" lon="7.41719">
        <ele>2352</ele>
        <time>2011-10-13T09:26:41Z</time>
      </trkpt>
      <trkpt lat="44.09281" lon="7.41726">
        <ele>2352.48</ele>
        <time>2011-10-13T09:26:51Z</time>
      </trkpt>
      <trkpt lat="44.09288" lon="7.41729">
        <ele>2353.93</ele>
        <time>2011-10-13T09:27:03Z</time>
      </trkpt>
      <trkpt lat="44.09294" lon="7.41728">
        <ele>2355.37</ele>
        <time>2011-10-13T09:27:15Z</time>
      </trkpt>
      <trkpt lat="44.09302" lon="7.41731">
        <ele>2357.77</ele>
        <time>2011-10-13T09:27:26Z</time>
      </trkpt>
      <trkpt lat="44.09303" lon="7.41734">
        <ele>2357.29</ele>
        <time>2011-10-13T09:27:29Z</time>
      </trkpt>
      <trkpt lat="44.09303" lon="7.41739">
        <ele>2358.73</ele>
        <time>2011-10-13T09:27:45Z</time>
      </trkpt>
      <trkpt lat="44.09303" lon="7.41739">
        <ele>2358.73</ele>
        <time>2011-10-13T09:28:09Z</time>
      </trkpt>
      <trkpt lat="44.09307" lon="7.41742">
        <ele>2360.17</ele>
        <time>2011-10-13T09:28:30Z</time>
      </trkpt>
      <trkpt lat="44.0931" lon="7.41744">
        <ele>2363.54</ele>
        <time>2011-10-13T09:28:40Z</time>
      </trkpt>
      <trkpt lat="44.0931" lon="7.41747">
        <ele>2364.98</ele>
        <time>2011-10-13T09:28:43Z</time>
      </trkpt>
      <trkpt lat="44.09311" lon="7.41747">
        <ele>2365.46</ele>
        <time>2011-10-13T09:28:49Z</time>
      </trkpt>
      <trkpt lat="44.09315" lon="7.41747">
        <ele>2367.38</ele>
        <time>2011-10-13T09:28:55Z</time>
      </trkpt>
      <trkpt lat="44.09319" lon="7.41757">
        <ele>2367.86</ele>
        <time>2011-10-13T09:29:08Z</time>
      </trkpt>
      <trkpt lat="44.09323" lon="7.41762">
        <ele>2369.31</ele>
        <time>2011-10-13T09:29:23Z</time>
      </trkpt>
      <trkpt lat="44.09323" lon="7.41762">
        <ele>2369.31</ele>
        <time>2011-10-13T09:29:38Z</time>
      </trkpt>
      <trkpt lat="44.09325" lon="7.41766">
        <ele>2370.27</ele>
        <time>2011-10-13T09:29:46Z</time>
      </trkpt>
      <trkpt lat="44.09329" lon="7.41766">
        <ele>2369.31</ele>
        <time>2011-10-13T09:29:58Z</time>
      </trkpt>
      <trkpt lat="44.09335" lon="7.4177">
        <ele>2368.83</ele>
        <time>2011-10-13T09:30:11Z</time>
      </trkpt>
      <trkpt lat="44.09347" lon="7.4177">
        <ele>2369.79</ele>
        <time>2011-10-13T09:30:25Z</time>
      </trkpt>
      <trkpt lat="44.0935" lon="7.41771">
        <ele>2370.27</ele>
        <time>2011-10-13T09:30:32Z</time>
      </trkpt>
      <trkpt lat="44.09356" lon="7.41777">
        <ele>2370.75</ele>
        <time>2011-10-13T09:30:45Z</time>
      </trkpt>
      <trkpt lat="44.09361" lon="7.41778">
        <ele>2372.67</ele>
        <time>2011-10-13T09:31:00Z</time>
      </trkpt>
      <trkpt lat="44.09363" lon="7.41778">
        <ele>2373.63</ele>
        <time>2011-10-13T09:31:02Z</time>
      </trkpt>
      <trkpt lat="44.09372" lon="7.41781">
        <ele>2374.59</ele>
        <time>2011-10-13T09:31:15Z</time>
      </trkpt>
      <trkpt lat="44.09378" lon="7.4178">
        <ele>2376.52</ele>
        <time>2011-10-13T09:31:27Z</time>
      </trkpt>
      <trkpt lat="44.09381" lon="7.41779">
        <ele>2377</ele>
        <time>2011-10-13T09:31:31Z</time>
      </trkpt>
      <trkpt lat="44.09386" lon="7.41779">
        <ele>2378.44</ele>
        <time>2011-10-13T09:31:45Z</time>
      </trkpt>
      <trkpt lat="44.09389" lon="7.41778">
        <ele>2378.92</ele>
        <time>2011-10-13T09:31:52Z</time>
      </trkpt>
      <trkpt lat="44.09395" lon="7.41778">
        <ele>2381.8</ele>
        <time>2011-10-13T09:32:07Z</time>
      </trkpt>
      <trkpt lat="44.09399" lon="7.41777">
        <ele>2384.21</ele>
        <time>2011-10-13T09:32:22Z</time>
      </trkpt>
      <trkpt lat="44.09404" lon="7.41777">
        <ele>2385.65</ele>
        <time>2011-10-13T09:32:34Z</time>
      </trkpt>
      <trkpt lat="44.09408" lon="7.41785">
        <ele>2388.53</ele>
        <time>2011-10-13T09:32:47Z</time>
      </trkpt>
      <trkpt lat="44.09408" lon="7.4179">
        <ele>2389.49</ele>
        <time>2011-10-13T09:32:58Z</time>
      </trkpt>
      <trkpt lat="44.09412" lon="7.41803">
        <ele>2392.86</ele>
        <time>2011-10-13T09:33:15Z</time>
      </trkpt>
      <trkpt lat="44.0941" lon="7.41804">
        <ele>2393.34</ele>
        <time>2011-10-13T09:33:29Z</time>
      </trkpt>
      <trkpt lat="44.0941" lon="7.41804">
        <ele>2393.34</ele>
        <time>2011-10-13T09:33:49Z</time>
      </trkpt>
      <trkpt lat="44.0941" lon="7.41804">
        <ele>2393.34</ele>
        <time>2011-10-13T09:34:12Z</time>
      </trkpt>
      <trkpt lat="44.0941" lon="7.41804">
        <ele>2393.34</ele>
        <time>2011-10-13T09:34:33Z</time>
      </trkpt>
      <trkpt lat="44.09409" lon="7.41804">
        <ele>2392.86</ele>
        <time>2011-10-13T09:34:48Z</time>
      </trkpt>
      <trkpt lat="44.09409" lon="7.41804">
        <ele>2393.34</ele>
        <time>2011-10-13T09:35:06Z</time>
      </trkpt>
      <trkpt lat="44.09409" lon="7.41804">
        <ele>2393.34</ele>
        <time>2011-10-13T09:35:28Z</time>
      </trkpt>
      <trkpt lat="44.09409" lon="7.41805">
        <ele>2393.34</ele>
        <time>2011-10-13T09:35:46Z</time>
      </trkpt>
      <trkpt lat="44.09409" lon="7.41805">
        <ele>2393.34</ele>
        <time>2011-10-13T09:36:11Z</time>
      </trkpt>
      <trkpt lat="44.09409" lon="7.41803">
        <ele>2393.82</ele>
        <time>2011-10-13T09:36:35Z</time>
      </trkpt>
      <trkpt lat="44.09409" lon="7.41804">
        <ele>2393.82</ele>
        <time>2011-10-13T09:37:03Z</time>
      </trkpt>
      <trkpt lat="44.09409" lon="7.41804">
        <ele>2393.34</ele>
        <time>2011-10-13T09:37:26Z</time>
      </trkpt>
      <trkpt lat="44.09409" lon="7.41804">
        <ele>2393.34</ele>
        <time>2011-10-13T09:37:48Z</time>
      </trkpt>
      <trkpt lat="44.09409" lon="7.41804">
        <ele>2393.82</ele>
        <time>2011-10-13T09:38:14Z</time>
      </trkpt>
      <trkpt lat="44.0941" lon="7.41805">
        <ele>2393.34</ele>
        <time>2011-10-13T09:38:39Z</time>
      </trkpt>
      <trkpt lat="44.0941" lon="7.41805">
        <ele>2393.34</ele>
        <time>2011-10-13T09:38:57Z</time>
      </trkpt>
      <trkpt lat="44.0941" lon="7.41805">
        <ele>2394.3</ele>
        <time>2011-10-13T09:39:21Z</time>
      </trkpt>
      <trkpt lat="44.0941" lon="7.41805">
        <ele>2394.3</ele>
        <time>2011-10-13T09:39:42Z</time>
      </trkpt>
      <trkpt lat="44.0941" lon="7.41805">
        <ele>2393.34</ele>
        <time>2011-10-13T09:40:07Z</time>
      </trkpt>
      <trkpt lat="44.0941" lon="7.41805">
        <ele>2393.34</ele>
        <time>2011-10-13T09:40:31Z</time>
      </trkpt>
      <trkpt lat="44.0941" lon="7.41805">
        <ele>2393.34</ele>
        <time>2011-10-13T09:40:53Z</time>
      </trkpt>
      <trkpt lat="44.09409" lon="7.41807">
        <ele>2392.86</ele>
        <time>2011-10-13T09:41:17Z</time>
      </trkpt>
      <trkpt lat="44.09411" lon="7.41818">
        <ele>2395.26</ele>
        <time>2011-10-13T09:41:30Z</time>
      </trkpt>
      <trkpt lat="44.09411" lon="7.4182">
        <ele>2395.26</ele>
        <time>2011-10-13T09:41:33Z</time>
      </trkpt>
      <trkpt lat="44.09411" lon="7.41831">
        <ele>2397.18</ele>
        <time>2011-10-13T09:41:45Z</time>
      </trkpt>
      <trkpt lat="44.09409" lon="7.41845">
        <ele>2398.63</ele>
        <time>2011-10-13T09:42:00Z</time>
      </trkpt>
      <trkpt lat="44.09414" lon="7.41849">
        <ele>2401.03</ele>
        <time>2011-10-13T09:42:16Z</time>
      </trkpt>
      <trkpt lat="44.09413" lon="7.4185">
        <ele>2402.47</ele>
        <time>2011-10-13T09:42:22Z</time>
      </trkpt>
      <trkpt lat="44.09418" lon="7.41858">
        <ele>2404.88</ele>
        <time>2011-10-13T09:42:35Z</time>
      </trkpt>
      <trkpt lat="44.09415" lon="7.4187">
        <ele>2407.76</ele>
        <time>2011-10-13T09:42:52Z</time>
      </trkpt>
      <trkpt lat="44.09414" lon="7.41876">
        <ele>2410.16</ele>
        <time>2011-10-13T09:43:05Z</time>
      </trkpt>
      <trkpt lat="44.09413" lon="7.4188">
        <ele>2412.57</ele>
        <time>2011-10-13T09:43:19Z</time>
      </trkpt>
      <trkpt lat="44.09415" lon="7.41888">
        <ele>2415.45</ele>
        <time>2011-10-13T09:43:33Z</time>
      </trkpt>
      <trkpt lat="44.09415" lon="7.41894">
        <ele>2417.37</ele>
        <time>2011-10-13T09:43:48Z</time>
      </trkpt>
      <trkpt lat="44.09417" lon="7.41898">
        <ele>2419.78</ele>
        <time>2011-10-13T09:44:01Z</time>
      </trkpt>
      <trkpt lat="44.09421" lon="7.41897">
        <ele>2421.7</ele>
        <time>2011-10-13T09:44:15Z</time>
      </trkpt>
      <trkpt lat="44.09423" lon="7.41898">
        <ele>2422.66</ele>
        <time>2011-10-13T09:44:23Z</time>
      </trkpt>
      <trkpt lat="44.09423" lon="7.41899">
        <ele>2423.62</ele>
        <time>2011-10-13T09:44:29Z</time>
      </trkpt>
      <trkpt lat="44.09426" lon="7.41901">
        <ele>2424.1</ele>
        <time>2011-10-13T09:44:31Z</time>
      </trkpt>
      <trkpt lat="44.09428" lon="7.41901">
        <ele>2426.02</ele>
        <time>2011-10-13T09:44:47Z</time>
      </trkpt>
      <trkpt lat="44.0943" lon="7.41902">
        <ele>2427.47</ele>
        <time>2011-10-13T09:44:51Z</time>
      </trkpt>
      <trkpt lat="44.09432" lon="7.41903">
        <ele>2427.95</ele>
        <time>2011-10-13T09:44:57Z</time>
      </trkpt>
      <trkpt lat="44.09436" lon="7.41909">
        <ele>2430.35</ele>
        <time>2011-10-13T09:45:13Z</time>
      </trkpt>
      <trkpt lat="44.09439" lon="7.41912">
        <ele>2433.23</ele>
        <time>2011-10-13T09:45:25Z</time>
      </trkpt>
      <trkpt lat="44.09439" lon="7.41916">
        <ele>2435.16</ele>
        <time>2011-10-13T09:45:41Z</time>
      </trkpt>
      <trkpt lat="44.09444" lon="7.41916">
        <ele>2438.52</ele>
        <time>2011-10-13T09:45:56Z</time>
      </trkpt>
      <trkpt lat="44.09444" lon="7.41915">
        <ele>2440.44</ele>
        <time>2011-10-13T09:46:09Z</time>
      </trkpt>
      <trkpt lat="44.09446" lon="7.41918">
        <ele>2442.85</ele>
        <time>2011-10-13T09:46:24Z</time>
      </trkpt>
      <trkpt lat="44.09449" lon="7.41924">
        <ele>2443.33</ele>
        <time>2011-10-13T09:46:35Z</time>
      </trkpt>
      <trkpt lat="44.09449" lon="7.41924">
        <ele>2443.33</ele>
        <time>2011-10-13T09:46:58Z</time>
      </trkpt>
      <trkpt lat="44.09449" lon="7.41923">
        <ele>2443.81</ele>
        <time>2011-10-13T09:47:16Z</time>
      </trkpt>
      <trkpt lat="44.09449" lon="7.41923">
        <ele>2442.85</ele>
        <time>2011-10-13T09:47:34Z</time>
      </trkpt>
      <trkpt lat="44.09449" lon="7.41923">
        <ele>2440.92</ele>
        <time>2011-10-13T09:47:39Z</time>
      </trkpt>
      <trkpt lat="44.09449" lon="7.41924">
        <ele>2442.85</ele>
        <time>2011-10-13T09:47:45Z</time>
      </trkpt>
      <trkpt lat="44.09449" lon="7.41923">
        <ele>2443.33</ele>
        <time>2011-10-13T09:48:08Z</time>
      </trkpt>
      <trkpt lat="44.09449" lon="7.41923">
        <ele>2441.89</ele>
        <time>2011-10-13T09:48:13Z</time>
      </trkpt>
      <trkpt lat="44.0945" lon="7.41922">
        <ele>2442.85</ele>
        <time>2011-10-13T09:48:27Z</time>
      </trkpt>
      <trkpt lat="44.09451" lon="7.41922">
        <ele>2443.81</ele>
        <time>2011-10-13T09:48:43Z</time>
      </trkpt>
      <trkpt lat="44.09451" lon="7.41922">
        <ele>2442.85</ele>
        <time>2011-10-13T09:48:48Z</time>
      </trkpt>
      <trkpt lat="44.0945" lon="7.41922">
        <ele>2443.81</ele>
        <time>2011-10-13T09:49:20Z</time>
      </trkpt>
      <trkpt lat="44.0945" lon="7.41922">
        <ele>2444.29</ele>
        <time>2011-10-13T09:49:40Z</time>
      </trkpt>
      <trkpt lat="44.0945" lon="7.41921">
        <ele>2441.89</ele>
        <time>2011-10-13T09:50:06Z</time>
      </trkpt>
      <trkpt lat="44.0945" lon="7.41921">
        <ele>2444.77</ele>
        <time>2011-10-13T09:50:13Z</time>
      </trkpt>
      <trkpt lat="44.0945" lon="7.41921">
        <ele>2444.77</ele>
        <time>2011-10-13T09:50:29Z</time>
      </trkpt>
      <trkpt lat="44.09448" lon="7.41925">
        <ele>2444.77</ele>
        <time>2011-10-13T09:50:35Z</time>
      </trkpt>
      <trkpt lat="44.09446" lon="7.41932">
        <ele>2444.29</ele>
        <time>2011-10-13T09:50:50Z</time>
      </trkpt>
      <trkpt lat="44.09445" lon="7.41938">
        <ele>2447.17</ele>
        <time>2011-10-13T09:51:07Z</time>
      </trkpt>
      <trkpt lat="44.09449" lon="7.41944">
        <ele>2449.58</ele>
        <time>2011-10-13T09:51:20Z</time>
      </trkpt>
      <trkpt lat="44.0945" lon="7.41949">
        <ele>2450.06</ele>
        <time>2011-10-13T09:51:24Z</time>
      </trkpt>
      <trkpt lat="44.09452" lon="7.4196">
        <ele>2452.46</ele>
        <time>2011-10-13T09:51:38Z</time>
      </trkpt>
      <trkpt lat="44.09452" lon="7.41972">
        <ele>2454.86</ele>
        <time>2011-10-13T09:51:51Z</time>
      </trkpt>
      <trkpt lat="44.09451" lon="7.41977">
        <ele>2457.75</ele>
        <time>2011-10-13T09:52:04Z</time>
      </trkpt>
      <trkpt lat="44.09453" lon="7.41978">
        <ele>2459.67</ele>
        <time>2011-10-13T09:52:15Z</time>
      </trkpt>
      <trkpt lat="44.09454" lon="7.41987">
        <ele>2462.55</ele>
        <time>2011-10-13T09:52:30Z</time>
      </trkpt>
      <trkpt lat="44.09454" lon="7.41991">
        <ele>2464.48</ele>
        <time>2011-10-13T09:52:44Z</time>
      </trkpt>
      <trkpt lat="44.09454" lon="7.41991">
        <ele>2464</ele>
        <time>2011-10-13T09:53:14Z</time>
      </trkpt>
      <trkpt lat="44.09454" lon="7.41991">
        <ele>2463.04</ele>
        <time>2011-10-13T09:53:41Z</time>
      </trkpt>
      <trkpt lat="44.09453" lon="7.41993">
        <ele>2464.48</ele>
        <time>2011-10-13T09:54:07Z</time>
      </trkpt>
      <trkpt lat="44.09451" lon="7.41996">
        <ele>2466.4</ele>
        <time>2011-10-13T09:54:19Z</time>
      </trkpt>
      <trkpt lat="44.0945" lon="7.42004">
        <ele>2469.76</ele>
        <time>2011-10-13T09:54:33Z</time>
      </trkpt>
      <trkpt lat="44.09452" lon="7.42008">
        <ele>2472.65</ele>
        <time>2011-10-13T09:54:46Z</time>
      </trkpt>
      <trkpt lat="44.09452" lon="7.42008">
        <ele>2474.09</ele>
        <time>2011-10-13T09:54:55Z</time>
      </trkpt>
      <trkpt lat="44.09453" lon="7.42013">
        <ele>2476.97</ele>
        <time>2011-10-13T09:55:08Z</time>
      </trkpt>
      <trkpt lat="44.09455" lon="7.42013">
        <ele>2478.42</ele>
        <time>2011-10-13T09:55:23Z</time>
      </trkpt>
      <trkpt lat="44.09458" lon="7.42012">
        <ele>2480.34</ele>
        <time>2011-10-13T09:55:37Z</time>
      </trkpt>
      <trkpt lat="44.09458" lon="7.42012">
        <ele>2480.82</ele>
        <time>2011-10-13T09:55:39Z</time>
      </trkpt>
      <trkpt lat="44.09454" lon="7.42019">
        <ele>2483.7</ele>
        <time>2011-10-13T09:55:57Z</time>
      </trkpt>
      <trkpt lat="44.09454" lon="7.42023">
        <ele>2486.11</ele>
        <time>2011-10-13T09:56:11Z</time>
      </trkpt>
      <trkpt lat="44.09454" lon="7.42024">
        <ele>2488.03</ele>
        <time>2011-10-13T09:56:21Z</time>
      </trkpt>
      <trkpt lat="44.09457" lon="7.4203">
        <ele>2489.95</ele>
        <time>2011-10-13T09:56:32Z</time>
      </trkpt>
      <trkpt lat="44.09457" lon="7.42032">
        <ele>2491.39</ele>
        <time>2011-10-13T09:56:44Z</time>
      </trkpt>
      <trkpt lat="44.09457" lon="7.42036">
        <ele>2490.91</ele>
        <time>2011-10-13T09:57:04Z</time>
      </trkpt>
      <trkpt lat="44.09458" lon="7.42039">
        <ele>2494.28</ele>
        <time>2011-10-13T09:57:10Z</time>
      </trkpt>
      <trkpt lat="44.09458" lon="7.42039">
        <ele>2494.28</ele>
        <time>2011-10-13T09:57:11Z</time>
      </trkpt>
      <trkpt lat="44.09458" lon="7.42039">
        <ele>2494.28</ele>
        <time>2011-10-13T09:57:28Z</time>
      </trkpt>
      <trkpt lat="44.09459" lon="7.42039">
        <ele>2494.28</ele>
        <time>2011-10-13T09:57:50Z</time>
      </trkpt>
      <trkpt lat="44.0946" lon="7.4204">
        <ele>2494.76</ele>
        <time>2011-10-13T09:58:06Z</time>
      </trkpt>
      <trkpt lat="44.09459" lon="7.42045">
        <ele>2497.64</ele>
        <time>2011-10-13T09:58:17Z</time>
      </trkpt>
      <trkpt lat="44.0946" lon="7.42047">
        <ele>2498.12</ele>
        <time>2011-10-13T09:58:20Z</time>
      </trkpt>
      <trkpt lat="44.09462" lon="7.42049">
        <ele>2498.6</ele>
        <time>2011-10-13T09:58:23Z</time>
      </trkpt>
      <trkpt lat="44.09464" lon="7.42054">
        <ele>2498.6</ele>
        <time>2011-10-13T09:58:26Z</time>
      </trkpt>
      <trkpt lat="44.09469" lon="7.42061">
        <ele>2498.6</ele>
        <time>2011-10-13T09:58:33Z</time>
      </trkpt>
      <trkpt lat="44.0947" lon="7.4207">
        <ele>2499.57</ele>
        <time>2011-10-13T09:58:47Z</time>
      </trkpt>
      <trkpt lat="44.0947" lon="7.4207">
        <ele>2499.08</ele>
        <time>2011-10-13T09:59:05Z</time>
      </trkpt>
      <trkpt lat="44.09471" lon="7.42073">
        <ele>2501.01</ele>
        <time>2011-10-13T09:59:17Z</time>
      </trkpt>
      <trkpt lat="44.09475" lon="7.42083">
        <ele>2502.93</ele>
        <time>2011-10-13T09:59:32Z</time>
      </trkpt>
      <trkpt lat="44.09477" lon="7.4209">
        <ele>2503.89</ele>
        <time>2011-10-13T09:59:47Z</time>
      </trkpt>
      <trkpt lat="44.0948" lon="7.42092">
        <ele>2504.37</ele>
        <time>2011-10-13T09:59:50Z</time>
      </trkpt>
      <trkpt lat="44.09482" lon="7.42099">
        <ele>2504.85</ele>
        <time>2011-10-13T09:59:56Z</time>
      </trkpt>
      <trkpt lat="44.09481" lon="7.42114">
        <ele>2505.33</ele>
        <time>2011-10-13T10:00:10Z</time>
      </trkpt>
      <trkpt lat="44.0948" lon="7.42126">
        <ele>2508.22</ele>
        <time>2011-10-13T10:00:22Z</time>
      </trkpt>
      <trkpt lat="44.09482" lon="7.42131">
        <ele>2507.26</ele>
        <time>2011-10-13T10:00:27Z</time>
      </trkpt>
      <trkpt lat="44.09487" lon="7.42144">
        <ele>2508.7</ele>
        <time>2011-10-13T10:00:39Z</time>
      </trkpt>
      <trkpt lat="44.09486" lon="7.42146">
        <ele>2509.66</ele>
        <time>2011-10-13T10:00:41Z</time>
      </trkpt>
      <trkpt lat="44.09487" lon="7.42158">
        <ele>2509.66</ele>
        <time>2011-10-13T10:00:52Z</time>
      </trkpt>
      <trkpt lat="44.09491" lon="7.4217">
        <ele>2510.62</ele>
        <time>2011-10-13T10:01:05Z</time>
      </trkpt>
      <trkpt lat="44.09491" lon="7.42172">
        <ele>2510.62</ele>
        <time>2011-10-13T10:01:07Z</time>
      </trkpt>
      <trkpt lat="44.09492" lon="7.42177">
        <ele>2510.62</ele>
        <time>2011-10-13T10:01:17Z</time>
      </trkpt>
      <trkpt lat="44.09494" lon="7.42181">
        <ele>2511.58</ele>
        <time>2011-10-13T10:01:29Z</time>
      </trkpt>
      <trkpt lat="44.09496" lon="7.42182">
        <ele>2512.54</ele>
        <time>2011-10-13T10:01:44Z</time>
      </trkpt>
      <trkpt lat="44.09496" lon="7.42185">
        <ele>2513.5</ele>
        <time>2011-10-13T10:01:58Z</time>
      </trkpt>
      <trkpt lat="44.09497" lon="7.42185">
        <ele>2514.47</ele>
        <time>2011-10-13T10:02:22Z</time>
      </trkpt>
      <trkpt lat="44.09497" lon="7.42185">
        <ele>2514.95</ele>
        <time>2011-10-13T10:02:39Z</time>
      </trkpt>
      <trkpt lat="44.09497" lon="7.42186">
        <ele>2514.95</ele>
        <time>2011-10-13T10:03:00Z</time>
      </trkpt>
      <trkpt lat="44.09497" lon="7.42186">
        <ele>2514.47</ele>
        <time>2011-10-13T10:03:21Z</time>
      </trkpt>
      <trkpt lat="44.09497" lon="7.42186">
        <ele>2514.47</ele>
        <time>2011-10-13T10:03:41Z</time>
      </trkpt>
      <trkpt lat="44.09497" lon="7.42187">
        <ele>2514.95</ele>
        <time>2011-10-13T10:03:58Z</time>
      </trkpt>
      <trkpt lat="44.09497" lon="7.42187">
        <ele>2514.95</ele>
        <time>2011-10-13T10:04:13Z</time>
      </trkpt>
      <trkpt lat="44.09498" lon="7.42186">
        <ele>2514.95</ele>
        <time>2011-10-13T10:04:33Z</time>
      </trkpt>
      <trkpt lat="44.09498" lon="7.42186">
        <ele>2513.98</ele>
        <time>2011-10-13T10:04:52Z</time>
      </trkpt>
      <trkpt lat="44.09498" lon="7.42186">
        <ele>2514.47</ele>
        <time>2011-10-13T10:05:12Z</time>
      </trkpt>
      <trkpt lat="44.09502" lon="7.42188">
        <ele>2515.91</ele>
        <time>2011-10-13T10:05:35Z</time>
      </trkpt>
      <trkpt lat="44.09507" lon="7.42195">
        <ele>2515.43</ele>
        <time>2011-10-13T10:05:43Z</time>
      </trkpt>
      <trkpt lat="44.09509" lon="7.422">
        <ele>2515.91</ele>
        <time>2011-10-13T10:05:47Z</time>
      </trkpt>
      <trkpt lat="44.09512" lon="7.42209">
        <ele>2514.47</ele>
        <time>2011-10-13T10:05:59Z</time>
      </trkpt>
      <trkpt lat="44.09513" lon="7.42211">
        <ele>2513.98</ele>
        <time>2011-10-13T10:06:02Z</time>
      </trkpt>
      <trkpt lat="44.09518" lon="7.42225">
        <ele>2512.54</ele>
        <time>2011-10-13T10:06:13Z</time>
      </trkpt>
      <trkpt lat="44.09522" lon="7.42234">
        <ele>2513.02</ele>
        <time>2011-10-13T10:06:23Z</time>
      </trkpt>
      <trkpt lat="44.09526" lon="7.42245">
        <ele>2513.98</ele>
        <time>2011-10-13T10:06:37Z</time>
      </trkpt>
      <trkpt lat="44.09533" lon="7.42254">
        <ele>2514.95</ele>
        <time>2011-10-13T10:06:49Z</time>
      </trkpt>
      <trkpt lat="44.09535" lon="7.42257">
        <ele>2515.91</ele>
        <time>2011-10-13T10:06:52Z</time>
      </trkpt>
      <trkpt lat="44.09536" lon="7.42258">
        <ele>2516.39</ele>
        <time>2011-10-13T10:06:55Z</time>
      </trkpt>
      <trkpt lat="44.0954" lon="7.42258">
        <ele>2516.39</ele>
        <time>2011-10-13T10:06:59Z</time>
      </trkpt>
      <trkpt lat="44.09542" lon="7.42258">
        <ele>2516.87</ele>
        <time>2011-10-13T10:07:04Z</time>
      </trkpt>
      <trkpt lat="44.09541" lon="7.42255">
        <ele>2517.35</ele>
        <time>2011-10-13T10:07:20Z</time>
      </trkpt>
      <trkpt lat="44.09546" lon="7.42266">
        <ele>2517.83</ele>
        <time>2011-10-13T10:07:34Z</time>
      </trkpt>
      <trkpt lat="44.09547" lon="7.42268">
        <ele>2518.79</ele>
        <time>2011-10-13T10:07:47Z</time>
      </trkpt>
      <trkpt lat="44.09553" lon="7.4227">
        <ele>2521.68</ele>
        <time>2011-10-13T10:08:04Z</time>
      </trkpt>
      <trkpt lat="44.09555" lon="7.4227">
        <ele>2520.23</ele>
        <time>2011-10-13T10:08:08Z</time>
      </trkpt>
      <trkpt lat="44.09555" lon="7.42271">
        <ele>2520.23</ele>
        <time>2011-10-13T10:08:11Z</time>
      </trkpt>
      <trkpt lat="44.09562" lon="7.42281">
        <ele>2522.16</ele>
        <time>2011-10-13T10:08:26Z</time>
      </trkpt>
      <trkpt lat="44.09562" lon="7.42282">
        <ele>2523.6</ele>
        <time>2011-10-13T10:08:29Z</time>
      </trkpt>
      <trkpt lat="44.09568" lon="7.42291">
        <ele>2524.08</ele>
        <time>2011-10-13T10:08:43Z</time>
      </trkpt>
      <trkpt lat="44.09573" lon="7.42294">
        <ele>2526.48</ele>
        <time>2011-10-13T10:08:56Z</time>
      </trkpt>
      <trkpt lat="44.09576" lon="7.42295">
        <ele>2526.96</ele>
        <time>2011-10-13T10:09:00Z</time>
      </trkpt>
      <trkpt lat="44.09581" lon="7.42297">
        <ele>2527.44</ele>
        <time>2011-10-13T10:09:07Z</time>
      </trkpt>
      <trkpt lat="44.09586" lon="7.423">
        <ele>2529.37</ele>
        <time>2011-10-13T10:09:19Z</time>
      </trkpt>
      <trkpt lat="44.09592" lon="7.42306">
        <ele>2528.89</ele>
        <time>2011-10-13T10:09:34Z</time>
      </trkpt>
      <trkpt lat="44.09594" lon="7.42307">
        <ele>2527.92</ele>
        <time>2011-10-13T10:09:38Z</time>
      </trkpt>
      <trkpt lat="44.09595" lon="7.4231">
        <ele>2528.89</ele>
        <time>2011-10-13T10:09:40Z</time>
      </trkpt>
      <trkpt lat="44.09598" lon="7.42321">
        <ele>2531.29</ele>
        <time>2011-10-13T10:09:56Z</time>
      </trkpt>
      <trkpt lat="44.096" lon="7.42322">
        <ele>2533.21</ele>
        <time>2011-10-13T10:10:09Z</time>
      </trkpt>
      <trkpt lat="44.09602" lon="7.42322">
        <ele>2533.21</ele>
        <time>2011-10-13T10:10:26Z</time>
      </trkpt>
      <trkpt lat="44.09606" lon="7.42322">
        <ele>2534.65</ele>
        <time>2011-10-13T10:10:38Z</time>
      </trkpt>
      <trkpt lat="44.09607" lon="7.42321">
        <ele>2535.13</ele>
        <time>2011-10-13T10:10:39Z</time>
      </trkpt>
      <trkpt lat="44.09613" lon="7.42313">
        <ele>2536.58</ele>
        <time>2011-10-13T10:10:50Z</time>
      </trkpt>
      <trkpt lat="44.09619" lon="7.42308">
        <ele>2537.06</ele>
        <time>2011-10-13T10:11:01Z</time>
      </trkpt>
      <trkpt lat="44.0962" lon="7.4231">
        <ele>2537.06</ele>
        <time>2011-10-13T10:11:14Z</time>
      </trkpt>
      <trkpt lat="44.09621" lon="7.42313">
        <ele>2538.02</ele>
        <time>2011-10-13T10:11:28Z</time>
      </trkpt>
      <trkpt lat="44.09621" lon="7.42313">
        <ele>2538.5</ele>
        <time>2011-10-13T10:11:39Z</time>
      </trkpt>
      <trkpt lat="44.09623" lon="7.42314">
        <ele>2538.98</ele>
        <time>2011-10-13T10:11:45Z</time>
      </trkpt>
      <trkpt lat="44.09627" lon="7.42314">
        <ele>2542.34</ele>
        <time>2011-10-13T10:11:54Z</time>
      </trkpt>
      <trkpt lat="44.09627" lon="7.42314">
        <ele>2542.82</ele>
        <time>2011-10-13T10:11:56Z</time>
      </trkpt>
      <trkpt lat="44.09635" lon="7.42322">
        <ele>2544.27</ele>
        <time>2011-10-13T10:12:06Z</time>
      </trkpt>
      <trkpt lat="44.09639" lon="7.42319">
        <ele>2545.71</ele>
        <time>2011-10-13T10:12:18Z</time>
      </trkpt>
      <trkpt lat="44.09645" lon="7.42322">
        <ele>2548.59</ele>
        <time>2011-10-13T10:12:30Z</time>
      </trkpt>
      <trkpt lat="44.0965" lon="7.42327">
        <ele>2550.51</ele>
        <time>2011-10-13T10:12:41Z</time>
      </trkpt>
      <trkpt lat="44.09651" lon="7.42327">
        <ele>2551.48</ele>
        <time>2011-10-13T10:12:54Z</time>
      </trkpt>
      <trkpt lat="44.09655" lon="7.42326">
        <ele>2550.03</ele>
        <time>2011-10-13T10:13:00Z</time>
      </trkpt>
      <trkpt lat="44.09657" lon="7.42327">
        <ele>2551</ele>
        <time>2011-10-13T10:13:02Z</time>
      </trkpt>
      <trkpt lat="44.09658" lon="7.42327">
        <ele>2552.92</ele>
        <time>2011-10-13T10:13:03Z</time>
      </trkpt>
      <trkpt lat="44.09661" lon="7.42324">
        <ele>2552.44</ele>
        <time>2011-10-13T10:13:06Z</time>
      </trkpt>
      <trkpt lat="44.09662" lon="7.42321">
        <ele>2555.32</ele>
        <time>2011-10-13T10:13:11Z</time>
      </trkpt>
      <trkpt lat="44.09667" lon="7.42318">
        <ele>2555.32</ele>
        <time>2011-10-13T10:13:25Z</time>
      </trkpt>
      <trkpt lat="44.09672" lon="7.4232">
        <ele>2558.21</ele>
        <time>2011-10-13T10:13:34Z</time>
      </trkpt>
      <trkpt lat="44.09677" lon="7.42318">
        <ele>2559.17</ele>
        <time>2011-10-13T10:13:46Z</time>
      </trkpt>
      <trkpt lat="44.09676" lon="7.42315">
        <ele>2562.05</ele>
        <time>2011-10-13T10:13:57Z</time>
      </trkpt>
      <trkpt lat="44.09679" lon="7.42313">
        <ele>2563.49</ele>
        <time>2011-10-13T10:14:10Z</time>
      </trkpt>
      <trkpt lat="44.09685" lon="7.4231">
        <ele>2565.9</ele>
        <time>2011-10-13T10:14:24Z</time>
      </trkpt>
      <trkpt lat="44.0969" lon="7.42311">
        <ele>2567.82</ele>
        <time>2011-10-13T10:14:33Z</time>
      </trkpt>
      <trkpt lat="44.09695" lon="7.42311">
        <ele>2568.78</ele>
        <time>2011-10-13T10:14:46Z</time>
      </trkpt>
      <trkpt lat="44.09697" lon="7.42312">
        <ele>2572.14</ele>
        <time>2011-10-13T10:14:50Z</time>
      </trkpt>
      <trkpt lat="44.09701" lon="7.42308">
        <ele>2574.07</ele>
        <time>2011-10-13T10:14:57Z</time>
      </trkpt>
      <trkpt lat="44.09702" lon="7.42304">
        <ele>2575.51</ele>
        <time>2011-10-13T10:15:06Z</time>
      </trkpt>
      <trkpt lat="44.09703" lon="7.42304">
        <ele>2577.43</ele>
        <time>2011-10-13T10:15:08Z</time>
      </trkpt>
      <trkpt lat="44.09705" lon="7.42304">
        <ele>2572.63</ele>
        <time>2011-10-13T10:15:13Z</time>
      </trkpt>
      <trkpt lat="44.09705" lon="7.42304">
        <ele>2574.55</ele>
        <time>2011-10-13T10:15:14Z</time>
      </trkpt>
      <trkpt lat="44.09707" lon="7.42306">
        <ele>2576.95</ele>
        <time>2011-10-13T10:15:16Z</time>
      </trkpt>
      <trkpt lat="44.09706" lon="7.42306">
        <ele>2575.99</ele>
        <time>2011-10-13T10:15:19Z</time>
      </trkpt>
      <trkpt lat="44.09705" lon="7.42306">
        <ele>2576.95</ele>
        <time>2011-10-13T10:15:25Z</time>
      </trkpt>
      <trkpt lat="44.09705" lon="7.42304">
        <ele>2575.03</ele>
        <time>2011-10-13T10:15:28Z</time>
      </trkpt>
      <trkpt lat="44.09706" lon="7.42301">
        <ele>2576.47</ele>
        <time>2011-10-13T10:15:31Z</time>
      </trkpt>
      <trkpt lat="44.09706" lon="7.423">
        <ele>2573.11</ele>
        <time>2011-10-13T10:15:32Z</time>
      </trkpt>
      <trkpt lat="44.09707" lon="7.423">
        <ele>2570.22</ele>
        <time>2011-10-13T10:15:33Z</time>
      </trkpt>
      <trkpt lat="44.09708" lon="7.423">
        <ele>2572.63</ele>
        <time>2011-10-13T10:15:34Z</time>
      </trkpt>
      <trkpt lat="44.09708" lon="7.423">
        <ele>2574.07</ele>
        <time>2011-10-13T10:15:35Z</time>
      </trkpt>
      <trkpt lat="44.09709" lon="7.42296">
        <ele>2570.7</ele>
        <time>2011-10-13T10:15:40Z</time>
      </trkpt>
      <trkpt lat="44.0971" lon="7.42295">
        <ele>2572.14</ele>
        <time>2011-10-13T10:15:43Z</time>
      </trkpt>
      <trkpt lat="44.09711" lon="7.42294">
        <ele>2569.74</ele>
        <time>2011-10-13T10:15:44Z</time>
      </trkpt>
      <trkpt lat="44.09707" lon="7.42294">
        <ele>2572.14</ele>
        <time>2011-10-13T10:15:53Z</time>
      </trkpt>
      <trkpt lat="44.09705" lon="7.42298">
        <ele>2575.51</ele>
        <time>2011-10-13T10:15:57Z</time>
      </trkpt>
      <trkpt lat="44.09705" lon="7.423">
        <ele>2576.95</ele>
        <time>2011-10-13T10:15:59Z</time>
      </trkpt>
      <trkpt lat="44.09706" lon="7.423">
        <ele>2580.32</ele>
        <time>2011-10-13T10:16:01Z</time>
      </trkpt>
      <trkpt lat="44.09706" lon="7.423">
        <ele>2579.35</ele>
        <time>2011-10-13T10:16:02Z</time>
      </trkpt>
      <trkpt lat="44.09705" lon="7.42302">
        <ele>2575.99</ele>
        <time>2011-10-13T10:16:04Z</time>
      </trkpt>
      <trkpt lat="44.09705" lon="7.42306">
        <ele>2573.59</ele>
        <time>2011-10-13T10:16:09Z</time>
      </trkpt>
      <trkpt lat="44.09705" lon="7.42308">
        <ele>2574.07</ele>
        <time>2011-10-13T10:16:11Z</time>
      </trkpt>
      <trkpt lat="44.09703" lon="7.4231">
        <ele>2571.66</ele>
        <time>2011-10-13T10:16:24Z</time>
      </trkpt>
      <trkpt lat="44.09703" lon="7.4231">
        <ele>2570.22</ele>
        <time>2011-10-13T10:16:35Z</time>
      </trkpt>
      <trkpt lat="44.09703" lon="7.4231">
        <ele>2572.14</ele>
        <time>2011-10-13T10:16:36Z</time>
      </trkpt>
      <trkpt lat="44.09703" lon="7.4231">
        <ele>2573.59</ele>
        <time>2011-10-13T10:16:52Z</time>
      </trkpt>
      <trkpt lat="44.09703" lon="7.4231">
        <ele>2572.14</ele>
        <time>2011-10-13T10:16:53Z</time>
      </trkpt>
      <trkpt lat="44.09703" lon="7.4231">
        <ele>2570.22</ele>
        <time>2011-10-13T10:16:54Z</time>
      </trkpt>
      <trkpt lat="44.09703" lon="7.4231">
        <ele>2572.63</ele>
        <time>2011-10-13T10:16:55Z</time>
      </trkpt>
      <trkpt lat="44.09704" lon="7.4231">
        <ele>2571.66</ele>
        <time>2011-10-13T10:17:22Z</time>
      </trkpt>
      <trkpt lat="44.09704" lon="7.4231">
        <ele>2572.14</ele>
        <time>2011-10-13T10:17:38Z</time>
      </trkpt>
      <trkpt lat="44.09704" lon="7.4231">
        <ele>2570.7</ele>
        <time>2011-10-13T10:18:03Z</time>
      </trkpt>
      <trkpt lat="44.09705" lon="7.4231">
        <ele>2570.22</ele>
        <time>2011-10-13T10:18:31Z</time>
      </trkpt>
      <trkpt lat="44.09705" lon="7.4231">
        <ele>2570.22</ele>
        <time>2011-10-13T10:18:52Z</time>
      </trkpt>
      <trkpt lat="44.09705" lon="7.4231">
        <ele>2570.7</ele>
        <time>2011-10-13T10:19:08Z</time>
      </trkpt>
      <trkpt lat="44.09705" lon="7.4231">
        <ele>2568.3</ele>
        <time>2011-10-13T10:19:11Z</time>
      </trkpt>
      <trkpt lat="44.09705" lon="7.42309">
        <ele>2565.42</ele>
        <time>2011-10-13T10:19:36Z</time>
      </trkpt>
      <trkpt lat="44.09705" lon="7.42309">
        <ele>2565.42</ele>
        <time>2011-10-13T10:19:37Z</time>
      </trkpt>
      <trkpt lat="44.09705" lon="7.42309">
        <ele>2569.26</ele>
        <time>2011-10-13T10:19:45Z</time>
      </trkpt>
      <trkpt lat="44.09705" lon="7.42309">
        <ele>2569.26</ele>
        <time>2011-10-13T10:19:55Z</time>
      </trkpt>
      <trkpt lat="44.09705" lon="7.42309">
        <ele>2568.78</ele>
        <time>2011-10-13T10:20:05Z</time>
      </trkpt>
      <trkpt lat="44.09705" lon="7.42309">
        <ele>2570.22</ele>
        <time>2011-10-13T10:20:06Z</time>
      </trkpt>
      <trkpt lat="44.097" lon="7.42311">
        <ele>2569.26</ele>
        <time>2011-10-13T10:20:30Z</time>
      </trkpt>
      <trkpt lat="44.097" lon="7.42311">
        <ele>2568.3</ele>
        <time>2011-10-13T10:20:34Z</time>
      </trkpt>
      <trkpt lat="44.09701" lon="7.42309">
        <ele>2570.22</ele>
        <time>2011-10-13T10:20:38Z</time>
      </trkpt>
      <trkpt lat="44.097" lon="7.42309">
        <ele>2567.82</ele>
        <time>2011-10-13T10:20:46Z</time>
      </trkpt>
      <trkpt lat="44.097" lon="7.42309">
        <ele>2569.74</ele>
        <time>2011-10-13T10:20:51Z</time>
      </trkpt>
      <trkpt lat="44.097" lon="7.42309">
        <ele>2571.66</ele>
        <time>2011-10-13T10:21:02Z</time>
      </trkpt>
      <trkpt lat="44.09701" lon="7.42309">
        <ele>2572.14</ele>
        <time>2011-10-13T10:21:10Z</time>
      </trkpt>
      <trkpt lat="44.097" lon="7.42308">
        <ele>2571.66</ele>
        <time>2011-10-13T10:21:26Z</time>
      </trkpt>
      <trkpt lat="44.097" lon="7.42308">
        <ele>2571.66</ele>
        <time>2011-10-13T10:22:01Z</time>
      </trkpt>
      <trkpt lat="44.097" lon="7.42308">
        <ele>2572.14</ele>
        <time>2011-10-13T10:22:25Z</time>
      </trkpt>
      <trkpt lat="44.09701" lon="7.42314">
        <ele>2571.66</ele>
        <time>2011-10-13T10:22:33Z</time>
      </trkpt>
      <trkpt lat="44.097" lon="7.42316">
        <ele>2571.66</ele>
        <time>2011-10-13T10:22:36Z</time>
      </trkpt>
      <trkpt lat="44.09701" lon="7.42311">
        <ele>2570.7</ele>
        <time>2011-10-13T10:22:54Z</time>
      </trkpt>
      <trkpt lat="44.09703" lon="7.42312">
        <ele>2571.18</ele>
        <time>2011-10-13T10:23:12Z</time>
      </trkpt>
      <trkpt lat="44.09703" lon="7.42309">
        <ele>2571.66</ele>
        <time>2011-10-13T10:23:26Z</time>
      </trkpt>
      <trkpt lat="44.09701" lon="7.42311">
        <ele>2571.66</ele>
        <time>2011-10-13T10:23:50Z</time>
      </trkpt>
      <trkpt lat="44.09702" lon="7.42309">
        <ele>2571.66</ele>
        <time>2011-10-13T10:24:21Z</time>
      </trkpt>
      <trkpt lat="44.09702" lon="7.42309">
        <ele>2571.66</ele>
        <time>2011-10-13T10:24:51Z</time>
      </trkpt>
      <trkpt lat="44.09701" lon="7.42309">
        <ele>2571.18</ele>
        <time>2011-10-13T10:25:22Z</time>
      </trkpt>
      <trkpt lat="44.09701" lon="7.42309">
        <ele>2570.7</ele>
        <time>2011-10-13T10:25:47Z</time>
      </trkpt>
      <trkpt lat="44.09702" lon="7.42308">
        <ele>2571.66</ele>
        <time>2011-10-13T10:26:16Z</time>
      </trkpt>
      <trkpt lat="44.09702" lon="7.42308">
        <ele>2571.66</ele>
        <time>2011-10-13T10:26:48Z</time>
      </trkpt>
      <trkpt lat="44.09702" lon="7.42308">
        <ele>2571.66</ele>
        <time>2011-10-13T10:27:11Z</time>
      </trkpt>
      <trkpt lat="44.09703" lon="7.4231">
        <ele>2571.66</ele>
        <time>2011-10-13T10:27:25Z</time>
      </trkpt>
      <trkpt lat="44.09701" lon="7.42308">
        <ele>2571.66</ele>
        <time>2011-10-13T10:27:54Z</time>
      </trkpt>
      <trkpt lat="44.09705" lon="7.42306">
        <ele>2571.66</ele>
        <time>2011-10-13T10:28:23Z</time>
      </trkpt>
      <trkpt lat="44.09704" lon="7.42306">
        <ele>2572.14</ele>
        <time>2011-10-13T10:28:46Z</time>
      </trkpt>
      <trkpt lat="44.09703" lon="7.42305">
        <ele>2573.11</ele>
        <time>2011-10-13T10:29:04Z</time>
      </trkpt>
      <trkpt lat="44.09703" lon="7.42305">
        <ele>2573.59</ele>
        <time>2011-10-13T10:29:23Z</time>
      </trkpt>
      <trkpt lat="44.09703" lon="7.42305">
        <ele>2572.63</ele>
        <time>2011-10-13T10:29:45Z</time>
      </trkpt>
      <trkpt lat="44.09703" lon="7.42305">
        <ele>2573.59</ele>
        <time>2011-10-13T10:30:02Z</time>
      </trkpt>
      <trkpt lat="44.09703" lon="7.42304">
        <ele>2573.11</ele>
        <time>2011-10-13T10:30:41Z</time>
      </trkpt>
      <trkpt lat="44.09703" lon="7.42304">
        <ele>2573.59</ele>
        <time>2011-10-13T10:30:58Z</time>
      </trkpt>
      <trkpt lat="44.09703" lon="7.42304">
        <ele>2572.14</ele>
        <time>2011-10-13T10:31:00Z</time>
      </trkpt>
      <trkpt lat="44.09705" lon="7.42305">
        <ele>2572.14</ele>
        <time>2011-10-13T10:31:17Z</time>
      </trkpt>
      <trkpt lat="44.09705" lon="7.42306">
        <ele>2572.63</ele>
        <time>2011-10-13T10:31:35Z</time>
      </trkpt>
      <trkpt lat="44.09705" lon="7.42306">
        <ele>2573.11</ele>
        <time>2011-10-13T10:31:59Z</time>
      </trkpt>
      <trkpt lat="44.09704" lon="7.42306">
        <ele>2573.59</ele>
        <time>2011-10-13T10:32:19Z</time>
      </trkpt>
      <trkpt lat="44.09704" lon="7.42306">
        <ele>2573.11</ele>
        <time>2011-10-13T10:32:44Z</time>
      </trkpt>
      <trkpt lat="44.09704" lon="7.42305">
        <ele>2572.63</ele>
        <time>2011-10-13T10:33:06Z</time>
      </trkpt>
      <trkpt lat="44.09704" lon="7.42305">
        <ele>2572.63</ele>
        <time>2011-10-13T10:33:37Z</time>
      </trkpt>
      <trkpt lat="44.09704" lon="7.42305">
        <ele>2572.63</ele>
        <time>2011-10-13T10:34:02Z</time>
      </trkpt>
      <trkpt lat="44.09704" lon="7.42305">
        <ele>2572.14</ele>
        <time>2011-10-13T10:34:25Z</time>
      </trkpt>
      <trkpt lat="44.09704" lon="7.42305">
        <ele>2573.11</ele>
        <time>2011-10-13T10:34:51Z</time>
      </trkpt>
      <trkpt lat="44.09704" lon="7.42306">
        <ele>2573.59</ele>
        <time>2011-10-13T10:35:14Z</time>
      </trkpt>
      <trkpt lat="44.09704" lon="7.42306">
        <ele>2573.59</ele>
        <time>2011-10-13T10:35:39Z</time>
      </trkpt>
      <trkpt lat="44.09704" lon="7.42307">
        <ele>2574.55</ele>
        <time>2011-10-13T10:36:12Z</time>
      </trkpt>
      <trkpt lat="44.09703" lon="7.42308">
        <ele>2574.55</ele>
        <time>2011-10-13T10:36:38Z</time>
      </trkpt>
      <trkpt lat="44.09703" lon="7.42308">
        <ele>2574.07</ele>
        <time>2011-10-13T10:36:42Z</time>
      </trkpt>
      <trkpt lat="44.09703" lon="7.4231">
        <ele>2574.55</ele>
        <time>2011-10-13T10:36:54Z</time>
      </trkpt>
      <trkpt lat="44.09703" lon="7.42311">
        <ele>2573.11</ele>
        <time>2011-10-13T10:37:11Z</time>
      </trkpt>
      <trkpt lat="44.0971" lon="7.42314">
        <ele>2571.18</ele>
        <time>2011-10-13T10:37:22Z</time>
      </trkpt>
      <trkpt lat="44.09711" lon="7.42314">
        <ele>2569.74</ele>
        <time>2011-10-13T10:37:28Z</time>
      </trkpt>
      <trkpt lat="44.09713" lon="7.42313">
        <ele>2568.3</ele>
        <time>2011-10-13T10:37:40Z</time>
      </trkpt>
      <trkpt lat="44.09719" lon="7.42313">
        <ele>2566.38</ele>
        <time>2011-10-13T10:37:52Z</time>
      </trkpt>
      <trkpt lat="44.09719" lon="7.4231">
        <ele>2565.42</ele>
        <time>2011-10-13T10:38:05Z</time>
      </trkpt>
      <trkpt lat="44.09719" lon="7.42311">
        <ele>2565.42</ele>
        <time>2011-10-13T10:38:18Z</time>
      </trkpt>
      <trkpt lat="44.0972" lon="7.42308">
        <ele>2565.42</ele>
        <time>2011-10-13T10:38:33Z</time>
      </trkpt>
      <trkpt lat="44.09721" lon="7.42304">
        <ele>2562.05</ele>
        <time>2011-10-13T10:38:48Z</time>
      </trkpt>
      <trkpt lat="44.09722" lon="7.423">
        <ele>2559.65</ele>
        <time>2011-10-13T10:39:01Z</time>
      </trkpt>
      <trkpt lat="44.09727" lon="7.42302">
        <ele>2556.76</ele>
        <time>2011-10-13T10:39:13Z</time>
      </trkpt>
      <trkpt lat="44.09735" lon="7.42316">
        <ele>2555.32</ele>
        <time>2011-10-13T10:39:27Z</time>
      </trkpt>
      <trkpt lat="44.09734" lon="7.42323">
        <ele>2554.84</ele>
        <time>2011-10-13T10:39:45Z</time>
      </trkpt>
      <trkpt lat="44.09734" lon="7.42325">
        <ele>2552.92</ele>
        <time>2011-10-13T10:40:02Z</time>
      </trkpt>
      <trkpt lat="44.09732" lon="7.42328">
        <ele>2551</ele>
        <time>2011-10-13T10:40:18Z</time>
      </trkpt>
      <trkpt lat="44.09732" lon="7.42328">
        <ele>2550.51</ele>
        <time>2011-10-13T10:40:35Z</time>
      </trkpt>
      <trkpt lat="44.09732" lon="7.42328">
        <ele>2551</ele>
        <time>2011-10-13T10:40:53Z</time>
      </trkpt>
      <trkpt lat="44.09731" lon="7.42328">
        <ele>2551</ele>
        <time>2011-10-13T10:41:14Z</time>
      </trkpt>
      <trkpt lat="44.09729" lon="7.42327">
        <ele>2551.48</ele>
        <time>2011-10-13T10:41:40Z</time>
      </trkpt>
      <trkpt lat="44.09729" lon="7.42327">
        <ele>2551.48</ele>
        <time>2011-10-13T10:41:57Z</time>
      </trkpt>
      <trkpt lat="44.09729" lon="7.42328">
        <ele>2551.48</ele>
        <time>2011-10-13T10:42:18Z</time>
      </trkpt>
      <trkpt lat="44.09729" lon="7.42328">
        <ele>2551</ele>
        <time>2011-10-13T10:42:20Z</time>
      </trkpt>
      <trkpt lat="44.0973" lon="7.42331">
        <ele>2551.96</ele>
        <time>2011-10-13T10:42:41Z</time>
      </trkpt>
      <trkpt lat="44.0973" lon="7.42331">
        <ele>2551.96</ele>
        <time>2011-10-13T10:42:47Z</time>
      </trkpt>
      <trkpt lat="44.09733" lon="7.42334">
        <ele>2549.55</ele>
        <time>2011-10-13T10:43:04Z</time>
      </trkpt>
      <trkpt lat="44.09735" lon="7.42331">
        <ele>2547.15</ele>
        <time>2011-10-13T10:43:15Z</time>
      </trkpt>
      <trkpt lat="44.09735" lon="7.42324">
        <ele>2543.31</ele>
        <time>2011-10-13T10:43:27Z</time>
      </trkpt>
      <trkpt lat="44.09737" lon="7.42313">
        <ele>2540.42</ele>
        <time>2011-10-13T10:43:38Z</time>
      </trkpt>
      <trkpt lat="44.09737" lon="7.42312">
        <ele>2539.46</ele>
        <time>2011-10-13T10:43:39Z</time>
      </trkpt>
      <trkpt lat="44.0974" lon="7.42308">
        <ele>2538.02</ele>
        <time>2011-10-13T10:43:43Z</time>
      </trkpt>
      <trkpt lat="44.09744" lon="7.42303">
        <ele>2535.13</ele>
        <time>2011-10-13T10:43:55Z</time>
      </trkpt>
      <trkpt lat="44.09747" lon="7.42304">
        <ele>2532.73</ele>
        <time>2011-10-13T10:44:00Z</time>
      </trkpt>
      <trkpt lat="44.09752" lon="7.42303">
        <ele>2529.85</ele>
        <time>2011-10-13T10:44:12Z</time>
      </trkpt>
      <trkpt lat="44.09753" lon="7.42303">
        <ele>2526.48</ele>
        <time>2011-10-13T10:44:17Z</time>
      </trkpt>
      <trkpt lat="44.09759" lon="7.42306">
        <ele>2525.52</ele>
        <time>2011-10-13T10:44:31Z</time>
      </trkpt>
      <trkpt lat="44.0976" lon="7.42296">
        <ele>2523.12</ele>
        <time>2011-10-13T10:44:44Z</time>
      </trkpt>
      <trkpt lat="44.09765" lon="7.42297">
        <ele>2520.71</ele>
        <time>2011-10-13T10:44:55Z</time>
      </trkpt>
      <trkpt lat="44.09767" lon="7.42294">
        <ele>2517.83</ele>
        <time>2011-10-13T10:45:07Z</time>
      </trkpt>
      <trkpt lat="44.0977" lon="7.42295">
        <ele>2515.43</ele>
        <time>2011-10-13T10:45:15Z</time>
      </trkpt>
      <trkpt lat="44.09776" lon="7.42304">
        <ele>2514.47</ele>
        <time>2011-10-13T10:45:25Z</time>
      </trkpt>
      <trkpt lat="44.09781" lon="7.42309">
        <ele>2512.54</ele>
        <time>2011-10-13T10:45:33Z</time>
      </trkpt>
      <trkpt lat="44.09785" lon="7.42319">
        <ele>2511.1</ele>
        <time>2011-10-13T10:45:45Z</time>
      </trkpt>
      <trkpt lat="44.09786" lon="7.4232">
        <ele>2509.66</ele>
        <time>2011-10-13T10:45:48Z</time>
      </trkpt>
      <trkpt lat="44.09786" lon="7.42315">
        <ele>2507.74</ele>
        <time>2011-10-13T10:45:56Z</time>
      </trkpt>
      <trkpt lat="44.0979" lon="7.42305">
        <ele>2502.93</ele>
        <time>2011-10-13T10:46:07Z</time>
      </trkpt>
      <trkpt lat="44.09793" lon="7.42296">
        <ele>2501.97</ele>
        <time>2011-10-13T10:46:20Z</time>
      </trkpt>
      <trkpt lat="44.09793" lon="7.42291">
        <ele>2499.57</ele>
        <time>2011-10-13T10:46:27Z</time>
      </trkpt>
      <trkpt lat="44.09797" lon="7.42285">
        <ele>2496.2</ele>
        <time>2011-10-13T10:46:37Z</time>
      </trkpt>
      <trkpt lat="44.09798" lon="7.42273">
        <ele>2493.32</ele>
        <time>2011-10-13T10:46:50Z</time>
      </trkpt>
      <trkpt lat="44.09805" lon="7.42275">
        <ele>2490.91</ele>
        <time>2011-10-13T10:47:01Z</time>
      </trkpt>
      <trkpt lat="44.09806" lon="7.42268">
        <ele>2488.51</ele>
        <time>2011-10-13T10:47:15Z</time>
      </trkpt>
      <trkpt lat="44.0981" lon="7.42267">
        <ele>2486.11</ele>
        <time>2011-10-13T10:47:27Z</time>
      </trkpt>
      <trkpt lat="44.09815" lon="7.4226">
        <ele>2483.22</ele>
        <time>2011-10-13T10:47:40Z</time>
      </trkpt>
      <trkpt lat="44.09822" lon="7.42261">
        <ele>2480.82</ele>
        <time>2011-10-13T10:47:54Z</time>
      </trkpt>
      <trkpt lat="44.09822" lon="7.42261">
        <ele>2480.82</ele>
        <time>2011-10-13T10:48:06Z</time>
      </trkpt>
      <trkpt lat="44.09826" lon="7.42259">
        <ele>2478.9</ele>
        <time>2011-10-13T10:48:17Z</time>
      </trkpt>
      <trkpt lat="44.09829" lon="7.42251">
        <ele>2477.45</ele>
        <time>2011-10-13T10:48:30Z</time>
      </trkpt>
      <trkpt lat="44.0983" lon="7.42242">
        <ele>2474.57</ele>
        <time>2011-10-13T10:48:48Z</time>
      </trkpt>
      <trkpt lat="44.09831" lon="7.42238">
        <ele>2473.13</ele>
        <time>2011-10-13T10:49:00Z</time>
      </trkpt>
      <trkpt lat="44.09835" lon="7.42233">
        <ele>2471.21</ele>
        <time>2011-10-13T10:49:13Z</time>
      </trkpt>
      <trkpt lat="44.09835" lon="7.42232">
        <ele>2470.24</ele>
        <time>2011-10-13T10:49:16Z</time>
      </trkpt>
      <trkpt lat="44.09834" lon="7.4222">
        <ele>2468.32</ele>
        <time>2011-10-13T10:49:30Z</time>
      </trkpt>
      <trkpt lat="44.09834" lon="7.42216">
        <ele>2466.4</ele>
        <time>2011-10-13T10:49:41Z</time>
      </trkpt>
      <trkpt lat="44.09841" lon="7.42211">
        <ele>2463.52</ele>
        <time>2011-10-13T10:49:55Z</time>
      </trkpt>
      <trkpt lat="44.09842" lon="7.42202">
        <ele>2461.59</ele>
        <time>2011-10-13T10:50:10Z</time>
      </trkpt>
      <trkpt lat="44.0984" lon="7.42192">
        <ele>2460.15</ele>
        <time>2011-10-13T10:50:24Z</time>
      </trkpt>
      <trkpt lat="44.09836" lon="7.42185">
        <ele>2459.67</ele>
        <time>2011-10-13T10:50:33Z</time>
      </trkpt>
      <trkpt lat="44.09835" lon="7.42179">
        <ele>2458.71</ele>
        <time>2011-10-13T10:50:47Z</time>
      </trkpt>
      <trkpt lat="44.09836" lon="7.42171">
        <ele>2457.75</ele>
        <time>2011-10-13T10:50:59Z</time>
      </trkpt>
      <trkpt lat="44.09835" lon="7.42168">
        <ele>2456.79</ele>
        <time>2011-10-13T10:51:07Z</time>
      </trkpt>
      <trkpt lat="44.09835" lon="7.42163">
        <ele>2455.82</ele>
        <time>2011-10-13T10:51:21Z</time>
      </trkpt>
      <trkpt lat="44.09835" lon="7.4216">
        <ele>2454.86</ele>
        <time>2011-10-13T10:51:35Z</time>
      </trkpt>
      <trkpt lat="44.09836" lon="7.4215">
        <ele>2453.42</ele>
        <time>2011-10-13T10:51:48Z</time>
      </trkpt>
      <trkpt lat="44.09838" lon="7.42148">
        <ele>2450.54</ele>
        <time>2011-10-13T10:52:02Z</time>
      </trkpt>
      <trkpt lat="44.09836" lon="7.42139">
        <ele>2449.58</ele>
        <time>2011-10-13T10:52:14Z</time>
      </trkpt>
      <trkpt lat="44.0984" lon="7.42142">
        <ele>2448.13</ele>
        <time>2011-10-13T10:52:26Z</time>
      </trkpt>
      <trkpt lat="44.09845" lon="7.42143">
        <ele>2446.21</ele>
        <time>2011-10-13T10:52:35Z</time>
      </trkpt>
      <trkpt lat="44.09848" lon="7.42138">
        <ele>2444.77</ele>
        <time>2011-10-13T10:52:50Z</time>
      </trkpt>
      <trkpt lat="44.09853" lon="7.42132">
        <ele>2444.77</ele>
        <time>2011-10-13T10:53:01Z</time>
      </trkpt>
      <trkpt lat="44.09856" lon="7.42125">
        <ele>2445.73</ele>
        <time>2011-10-13T10:53:16Z</time>
      </trkpt>
      <trkpt lat="44.09856" lon="7.42124">
        <ele>2445.25</ele>
        <time>2011-10-13T10:53:22Z</time>
      </trkpt>
      <trkpt lat="44.09858" lon="7.42118">
        <ele>2446.69</ele>
        <time>2011-10-13T10:53:27Z</time>
      </trkpt>
      <trkpt lat="44.09866" lon="7.4211">
        <ele>2446.21</ele>
        <time>2011-10-13T10:53:41Z</time>
      </trkpt>
      <trkpt lat="44.09867" lon="7.42107">
        <ele>2446.69</ele>
        <time>2011-10-13T10:53:53Z</time>
      </trkpt>
      <trkpt lat="44.09864" lon="7.42106">
        <ele>2444.77</ele>
        <time>2011-10-13T10:54:08Z</time>
      </trkpt>
      <trkpt lat="44.09866" lon="7.421">
        <ele>2442.37</ele>
        <time>2011-10-13T10:54:20Z</time>
      </trkpt>
      <trkpt lat="44.09865" lon="7.42099">
        <ele>2439.96</ele>
        <time>2011-10-13T10:54:34Z</time>
      </trkpt>
      <trkpt lat="44.09865" lon="7.42095">
        <ele>2437.08</ele>
        <time>2011-10-13T10:54:48Z</time>
      </trkpt>
      <trkpt lat="44.09864" lon="7.42094">
        <ele>2435.64</ele>
        <time>2011-10-13T10:55:02Z</time>
      </trkpt>
      <trkpt lat="44.09865" lon="7.42092">
        <ele>2434.2</ele>
        <time>2011-10-13T10:55:09Z</time>
      </trkpt>
      <trkpt lat="44.09862" lon="7.42089">
        <ele>2433.23</ele>
        <time>2011-10-13T10:55:15Z</time>
      </trkpt>
      <trkpt lat="44.09864" lon="7.42088">
        <ele>2433.23</ele>
        <time>2011-10-13T10:55:17Z</time>
      </trkpt>
      <trkpt lat="44.09871" lon="7.42082">
        <ele>2430.35</ele>
        <time>2011-10-13T10:55:30Z</time>
      </trkpt>
      <trkpt lat="44.09873" lon="7.42076">
        <ele>2428.91</ele>
        <time>2011-10-13T10:55:45Z</time>
      </trkpt>
      <trkpt lat="44.09873" lon="7.42073">
        <ele>2426.99</ele>
        <time>2011-10-13T10:55:57Z</time>
      </trkpt>
      <trkpt lat="44.09871" lon="7.42071">
        <ele>2426.02</ele>
        <time>2011-10-13T10:56:03Z</time>
      </trkpt>
      <trkpt lat="44.09871" lon="7.42066">
        <ele>2424.58</ele>
        <time>2011-10-13T10:56:19Z</time>
      </trkpt>
      <trkpt lat="44.09871" lon="7.42066">
        <ele>2424.1</ele>
        <time>2011-10-13T10:56:39Z</time>
      </trkpt>
      <trkpt lat="44.09875" lon="7.42062">
        <ele>2421.7</ele>
        <time>2011-10-13T10:56:51Z</time>
      </trkpt>
      <trkpt lat="44.09882" lon="7.42057">
        <ele>2419.3</ele>
        <time>2011-10-13T10:57:02Z</time>
      </trkpt>
      <trkpt lat="44.09888" lon="7.42054">
        <ele>2416.89</ele>
        <time>2011-10-13T10:57:15Z</time>
      </trkpt>
      <trkpt lat="44.0989" lon="7.4205">
        <ele>2414.97</ele>
        <time>2011-10-13T10:57:27Z</time>
      </trkpt>
      <trkpt lat="44.09893" lon="7.4204">
        <ele>2412.57</ele>
        <time>2011-10-13T10:57:39Z</time>
      </trkpt>
      <trkpt lat="44.09898" lon="7.42039">
        <ele>2410.64</ele>
        <time>2011-10-13T10:57:49Z</time>
      </trkpt>
      <trkpt lat="44.09901" lon="7.42036">
        <ele>2410.16</ele>
        <time>2011-10-13T10:57:53Z</time>
      </trkpt>
      <trkpt lat="44.09906" lon="7.42039">
        <ele>2411.12</ele>
        <time>2011-10-13T10:57:57Z</time>
      </trkpt>
      <trkpt lat="44.09917" lon="7.42041">
        <ele>2411.6</ele>
        <time>2011-10-13T10:58:11Z</time>
      </trkpt>
      <trkpt lat="44.09921" lon="7.42041">
        <ele>2410.16</ele>
        <time>2011-10-13T10:58:23Z</time>
      </trkpt>
      <trkpt lat="44.09914" lon="7.42044">
        <ele>2411.12</ele>
        <time>2011-10-13T10:58:36Z</time>
      </trkpt>
      <trkpt lat="44.09912" lon="7.42045">
        <ele>2412.09</ele>
        <time>2011-10-13T10:58:39Z</time>
      </trkpt>
      <trkpt lat="44.0991" lon="7.42045">
        <ele>2412.57</ele>
        <time>2011-10-13T10:58:41Z</time>
      </trkpt>
      <trkpt lat="44.09904" lon="7.4204">
        <ele>2411.12</ele>
        <time>2011-10-13T10:58:55Z</time>
      </trkpt>
      <trkpt lat="44.09904" lon="7.42039">
        <ele>2411.12</ele>
        <time>2011-10-13T10:59:30Z</time>
      </trkpt>
      <trkpt lat="44.09904" lon="7.42039">
        <ele>2411.6</ele>
        <time>2011-10-13T10:59:56Z</time>
      </trkpt>
      <trkpt lat="44.09904" lon="7.4204">
        <ele>2411.6</ele>
        <time>2011-10-13T10:59:58Z</time>
      </trkpt>
      <trkpt lat="44.09912" lon="7.42043">
        <ele>2410.64</ele>
        <time>2011-10-13T11:00:18Z</time>
      </trkpt>
      <trkpt lat="44.09917" lon="7.4204">
        <ele>2411.12</ele>
        <time>2011-10-13T11:00:25Z</time>
      </trkpt>
      <trkpt lat="44.09921" lon="7.4204">
        <ele>2409.68</ele>
        <time>2011-10-13T11:00:32Z</time>
      </trkpt>
      <trkpt lat="44.09921" lon="7.42036">
        <ele>2409.2</ele>
        <time>2011-10-13T11:00:38Z</time>
      </trkpt>
      <trkpt lat="44.09922" lon="7.42029">
        <ele>2407.28</ele>
        <time>2011-10-13T11:00:51Z</time>
      </trkpt>
      <trkpt lat="44.09927" lon="7.42024">
        <ele>2403.91</ele>
        <time>2011-10-13T11:01:01Z</time>
      </trkpt>
      <trkpt lat="44.09931" lon="7.42019">
        <ele>2402.47</ele>
        <time>2011-10-13T11:01:12Z</time>
      </trkpt>
      <trkpt lat="44.09931" lon="7.4201">
        <ele>2399.11</ele>
        <time>2011-10-13T11:01:23Z</time>
      </trkpt>
      <trkpt lat="44.09938" lon="7.42004">
        <ele>2395.74</ele>
        <time>2011-10-13T11:01:35Z</time>
      </trkpt>
      <trkpt lat="44.09944" lon="7.41999">
        <ele>2394.78</ele>
        <time>2011-10-13T11:01:47Z</time>
      </trkpt>
      <trkpt lat="44.09952" lon="7.4199">
        <ele>2392.86</ele>
        <time>2011-10-13T11:02:01Z</time>
      </trkpt>
      <trkpt lat="44.09959" lon="7.41985">
        <ele>2389.49</ele>
        <time>2011-10-13T11:02:11Z</time>
      </trkpt>
      <trkpt lat="44.09964" lon="7.41978">
        <ele>2386.61</ele>
        <time>2011-10-13T11:02:23Z</time>
      </trkpt>
      <trkpt lat="44.09969" lon="7.41973">
        <ele>2383.73</ele>
        <time>2011-10-13T11:02:34Z</time>
      </trkpt>
      <trkpt lat="44.09973" lon="7.41966">
        <ele>2383.25</ele>
        <time>2011-10-13T11:02:45Z</time>
      </trkpt>
      <trkpt lat="44.09976" lon="7.4196">
        <ele>2382.28</ele>
        <time>2011-10-13T11:02:58Z</time>
      </trkpt>
      <trkpt lat="44.09982" lon="7.41956">
        <ele>2382.76</ele>
        <time>2011-10-13T11:03:13Z</time>
      </trkpt>
      <trkpt lat="44.09983" lon="7.41954">
        <ele>2382.76</ele>
        <time>2011-10-13T11:03:18Z</time>
      </trkpt>
      <trkpt lat="44.09987" lon="7.41953">
        <ele>2383.25</ele>
        <time>2011-10-13T11:03:31Z</time>
      </trkpt>
      <trkpt lat="44.09994" lon="7.41943">
        <ele>2383.73</ele>
        <time>2011-10-13T11:03:45Z</time>
      </trkpt>
      <trkpt lat="44.09994" lon="7.41942">
        <ele>2383.25</ele>
        <time>2011-10-13T11:03:54Z</time>
      </trkpt>
      <trkpt lat="44.09998" lon="7.41938">
        <ele>2382.76</ele>
        <time>2011-10-13T11:04:00Z</time>
      </trkpt>
      <trkpt lat="44.09999" lon="7.41932">
        <ele>2382.28</ele>
        <time>2011-10-13T11:04:04Z</time>
      </trkpt>
      <trkpt lat="44.10008" lon="7.41918">
        <ele>2381.32</ele>
        <time>2011-10-13T11:04:17Z</time>
      </trkpt>
      <trkpt lat="44.10012" lon="7.41904">
        <ele>2379.88</ele>
        <time>2011-10-13T11:04:26Z</time>
      </trkpt>
      <trkpt lat="44.1002" lon="7.41889">
        <ele>2380.84</ele>
        <time>2011-10-13T11:04:38Z</time>
      </trkpt>
      <trkpt lat="44.10021" lon="7.4189">
        <ele>2380.84</ele>
        <time>2011-10-13T11:04:52Z</time>
      </trkpt>
      <trkpt lat="44.10021" lon="7.4189">
        <ele>2380.36</ele>
        <time>2011-10-13T11:05:09Z</time>
      </trkpt>
      <trkpt lat="44.1002" lon="7.4189">
        <ele>2380.84</ele>
        <time>2011-10-13T11:05:33Z</time>
      </trkpt>
      <trkpt lat="44.1002" lon="7.4189">
        <ele>2380.84</ele>
        <time>2011-10-13T11:05:56Z</time>
      </trkpt>
      <trkpt lat="44.10022" lon="7.4189">
        <ele>2380.84</ele>
        <time>2011-10-13T11:06:23Z</time>
      </trkpt>
      <trkpt lat="44.10022" lon="7.4189">
        <ele>2380.36</ele>
        <time>2011-10-13T11:06:40Z</time>
      </trkpt>
      <trkpt lat="44.10022" lon="7.4189">
        <ele>2380.84</ele>
        <time>2011-10-13T11:06:59Z</time>
      </trkpt>
      <trkpt lat="44.10022" lon="7.4189">
        <ele>2381.32</ele>
        <time>2011-10-13T11:07:20Z</time>
      </trkpt>
      <trkpt lat="44.10022" lon="7.4189">
        <ele>2380.36</ele>
        <time>2011-10-13T11:07:45Z</time>
      </trkpt>
      <trkpt lat="44.10023" lon="7.41889">
        <ele>2379.4</ele>
        <time>2011-10-13T11:08:02Z</time>
      </trkpt>
      <trkpt lat="44.10023" lon="7.41889">
        <ele>2380.36</ele>
        <time>2011-10-13T11:08:31Z</time>
      </trkpt>
      <trkpt lat="44.10023" lon="7.41889">
        <ele>2381.32</ele>
        <time>2011-10-13T11:08:32Z</time>
      </trkpt>
      <trkpt lat="44.10037" lon="7.4188">
        <ele>2381.32</ele>
        <time>2011-10-13T11:08:44Z</time>
      </trkpt>
      <trkpt lat="44.1004" lon="7.41873">
        <ele>2381.32</ele>
        <time>2011-10-13T11:08:50Z</time>
      </trkpt>
      <trkpt lat="44.10041" lon="7.4186">
        <ele>2380.84</ele>
        <time>2011-10-13T11:09:02Z</time>
      </trkpt>
      <trkpt lat="44.1004" lon="7.41858">
        <ele>2381.32</ele>
        <time>2011-10-13T11:09:05Z</time>
      </trkpt>
      <trkpt lat="44.10046" lon="7.41851">
        <ele>2380.36</ele>
        <time>2011-10-13T11:09:14Z</time>
      </trkpt>
      <trkpt lat="44.10049" lon="7.41848">
        <ele>2380.84</ele>
        <time>2011-10-13T11:09:17Z</time>
      </trkpt>
      <trkpt lat="44.1006" lon="7.41849">
        <ele>2381.32</ele>
        <time>2011-10-13T11:09:25Z</time>
      </trkpt>
      <trkpt lat="44.10066" lon="7.41843">
        <ele>2381.32</ele>
        <time>2011-10-13T11:09:33Z</time>
      </trkpt>
      <trkpt lat="44.10074" lon="7.41833">
        <ele>2382.28</ele>
        <time>2011-10-13T11:09:47Z</time>
      </trkpt>
      <trkpt lat="44.10079" lon="7.41823">
        <ele>2383.73</ele>
        <time>2011-10-13T11:10:00Z</time>
      </trkpt>
      <trkpt lat="44.10081" lon="7.41815">
        <ele>2385.65</ele>
        <time>2011-10-13T11:10:13Z</time>
      </trkpt>
      <trkpt lat="44.10081" lon="7.41809">
        <ele>2386.13</ele>
        <time>2011-10-13T11:10:21Z</time>
      </trkpt>
      <trkpt lat="44.10085" lon="7.418">
        <ele>2387.57</ele>
        <time>2011-10-13T11:10:33Z</time>
      </trkpt>
      <trkpt lat="44.10085" lon="7.41789">
        <ele>2389.49</ele>
        <time>2011-10-13T11:10:45Z</time>
      </trkpt>
      <trkpt lat="44.10084" lon="7.41785">
        <ele>2389.97</ele>
        <time>2011-10-13T11:10:49Z</time>
      </trkpt>
      <trkpt lat="44.10085" lon="7.4178">
        <ele>2389.49</ele>
        <time>2011-10-13T11:10:53Z</time>
      </trkpt>
      <trkpt lat="44.10086" lon="7.41769">
        <ele>2387.57</ele>
        <time>2011-10-13T11:11:05Z</time>
      </trkpt>
      <trkpt lat="44.10088" lon="7.41755">
        <ele>2386.13</ele>
        <time>2011-10-13T11:11:19Z</time>
      </trkpt>
      <trkpt lat="44.10091" lon="7.41745">
        <ele>2385.17</ele>
        <time>2011-10-13T11:11:29Z</time>
      </trkpt>
      <trkpt lat="44.10092" lon="7.41734">
        <ele>2383.73</ele>
        <time>2011-10-13T11:11:41Z</time>
      </trkpt>
      <trkpt lat="44.10092" lon="7.41726">
        <ele>2384.21</ele>
        <time>2011-10-13T11:11:48Z</time>
      </trkpt>
      <trkpt lat="44.10095" lon="7.41719">
        <ele>2385.17</ele>
        <time>2011-10-13T11:11:53Z</time>
      </trkpt>
      <trkpt lat="44.10099" lon="7.41711">
        <ele>2386.61</ele>
        <time>2011-10-13T11:12:03Z</time>
      </trkpt>
      <trkpt lat="44.10101" lon="7.41695">
        <ele>2386.13</ele>
        <time>2011-10-13T11:12:16Z</time>
      </trkpt>
      <trkpt lat="44.10109" lon="7.41684">
        <ele>2386.13</ele>
        <time>2011-10-13T11:12:29Z</time>
      </trkpt>
      <trkpt lat="44.10114" lon="7.4168">
        <ele>2387.57</ele>
        <time>2011-10-13T11:12:43Z</time>
      </trkpt>
      <trkpt lat="44.10112" lon="7.41673">
        <ele>2386.13</ele>
        <time>2011-10-13T11:12:53Z</time>
      </trkpt>
      <trkpt lat="44.10111" lon="7.41661">
        <ele>2384.21</ele>
        <time>2011-10-13T11:13:06Z</time>
      </trkpt>
      <trkpt lat="44.10113" lon="7.41648">
        <ele>2383.25</ele>
        <time>2011-10-13T11:13:19Z</time>
      </trkpt>
      <trkpt lat="44.10116" lon="7.4164">
        <ele>2383.25</ele>
        <time>2011-10-13T11:13:36Z</time>
      </trkpt>
      <trkpt lat="44.10117" lon="7.41631">
        <ele>2382.76</ele>
        <time>2011-10-13T11:13:48Z</time>
      </trkpt>
      <trkpt lat="44.10117" lon="7.41627">
        <ele>2380.84</ele>
        <time>2011-10-13T11:13:53Z</time>
      </trkpt>
      <trkpt lat="44.10115" lon="7.41616">
        <ele>2380.36</ele>
        <time>2011-10-13T11:14:05Z</time>
      </trkpt>
      <trkpt lat="44.10116" lon="7.41611">
        <ele>2379.88</ele>
        <time>2011-10-13T11:14:11Z</time>
      </trkpt>
      <trkpt lat="44.10119" lon="7.41603">
        <ele>2380.36</ele>
        <time>2011-10-13T11:14:18Z</time>
      </trkpt>
      <trkpt lat="44.10122" lon="7.41596">
        <ele>2380.36</ele>
        <time>2011-10-13T11:14:25Z</time>
      </trkpt>
      <trkpt lat="44.10121" lon="7.41587">
        <ele>2380.36</ele>
        <time>2011-10-13T11:14:31Z</time>
      </trkpt>
      <trkpt lat="44.10122" lon="7.41565">
        <ele>2380.84</ele>
        <time>2011-10-13T11:14:45Z</time>
      </trkpt>
      <trkpt lat="44.10125" lon="7.41546">
        <ele>2380.36</ele>
        <time>2011-10-13T11:14:56Z</time>
      </trkpt>
      <trkpt lat="44.10125" lon="7.41531">
        <ele>2379.88</ele>
        <time>2011-10-13T11:15:05Z</time>
      </trkpt>
      <trkpt lat="44.10125" lon="7.41527">
        <ele>2379.88</ele>
        <time>2011-10-13T11:15:08Z</time>
      </trkpt>
      <trkpt lat="44.10123" lon="7.41519">
        <ele>2379.4</ele>
        <time>2011-10-13T11:15:13Z</time>
      </trkpt>
      <trkpt lat="44.10123" lon="7.41515">
        <ele>2379.88</ele>
        <time>2011-10-13T11:15:15Z</time>
      </trkpt>
      <trkpt lat="44.10124" lon="7.41508">
        <ele>2380.36</ele>
        <time>2011-10-13T11:15:19Z</time>
      </trkpt>
      <trkpt lat="44.10127" lon="7.41495">
        <ele>2380.84</ele>
        <time>2011-10-13T11:15:34Z</time>
      </trkpt>
      <trkpt lat="44.10128" lon="7.41482">
        <ele>2380.36</ele>
        <time>2011-10-13T11:15:41Z</time>
      </trkpt>
      <trkpt lat="44.10131" lon="7.41458">
        <ele>2379.4</ele>
        <time>2011-10-13T11:15:57Z</time>
      </trkpt>
      <trkpt lat="44.1013" lon="7.4145">
        <ele>2380.36</ele>
        <time>2011-10-13T11:16:07Z</time>
      </trkpt>
      <trkpt lat="44.10127" lon="7.41423">
        <ele>2378.44</ele>
        <time>2011-10-13T11:16:23Z</time>
      </trkpt>
      <trkpt lat="44.10127" lon="7.41423">
        <ele>2378.44</ele>
        <time>2011-10-13T11:16:24Z</time>
      </trkpt>
      <trkpt lat="44.10121" lon="7.41397">
        <ele>2377.48</ele>
        <time>2011-10-13T11:16:39Z</time>
      </trkpt>
      <trkpt lat="44.10119" lon="7.41391">
        <ele>2377.48</ele>
        <time>2011-10-13T11:16:42Z</time>
      </trkpt>
      <trkpt lat="44.10121" lon="7.4136">
        <ele>2377</ele>
        <time>2011-10-13T11:16:59Z</time>
      </trkpt>
      <trkpt lat="44.10121" lon="7.41335">
        <ele>2376.04</ele>
        <time>2011-10-13T11:17:13Z</time>
      </trkpt>
      <trkpt lat="44.10119" lon="7.41322">
        <ele>2376.04</ele>
        <time>2011-10-13T11:17:21Z</time>
      </trkpt>
      <trkpt lat="44.10118" lon="7.41308">
        <ele>2377</ele>
        <time>2011-10-13T11:17:33Z</time>
      </trkpt>
      <trkpt lat="44.10116" lon="7.41294">
        <ele>2377</ele>
        <time>2011-10-13T11:17:46Z</time>
      </trkpt>
      <trkpt lat="44.10115" lon="7.41279">
        <ele>2377</ele>
        <time>2011-10-13T11:17:56Z</time>
      </trkpt>
      <trkpt lat="44.10111" lon="7.41262">
        <ele>2376.52</ele>
        <time>2011-10-13T11:18:09Z</time>
      </trkpt>
      <trkpt lat="44.10109" lon="7.41252">
        <ele>2375.07</ele>
        <time>2011-10-13T11:18:17Z</time>
      </trkpt>
      <trkpt lat="44.10109" lon="7.41245">
        <ele>2375.07</ele>
        <time>2011-10-13T11:18:23Z</time>
      </trkpt>
      <trkpt lat="44.10109" lon="7.41241">
        <ele>2375.55</ele>
        <time>2011-10-13T11:18:27Z</time>
      </trkpt>
      <trkpt lat="44.10106" lon="7.41228">
        <ele>2375.07</ele>
        <time>2011-10-13T11:18:39Z</time>
      </trkpt>
      <trkpt lat="44.10102" lon="7.41223">
        <ele>2373.15</ele>
        <time>2011-10-13T11:18:49Z</time>
      </trkpt>
      <trkpt lat="44.10101" lon="7.41216">
        <ele>2372.67</ele>
        <time>2011-10-13T11:18:54Z</time>
      </trkpt>
      <trkpt lat="44.10101" lon="7.41208">
        <ele>2372.19</ele>
        <time>2011-10-13T11:19:00Z</time>
      </trkpt>
      <trkpt lat="44.10098" lon="7.41196">
        <ele>2370.27</ele>
        <time>2011-10-13T11:19:09Z</time>
      </trkpt>
      <trkpt lat="44.10096" lon="7.41192">
        <ele>2371.23</ele>
        <time>2011-10-13T11:19:13Z</time>
      </trkpt>
      <trkpt lat="44.10094" lon="7.41185">
        <ele>2372.67</ele>
        <time>2011-10-13T11:19:18Z</time>
      </trkpt>
      <trkpt lat="44.10093" lon="7.41177">
        <ele>2372.67</ele>
        <time>2011-10-13T11:19:24Z</time>
      </trkpt>
      <trkpt lat="44.10094" lon="7.41163">
        <ele>2372.67</ele>
        <time>2011-10-13T11:19:37Z</time>
      </trkpt>
      <trkpt lat="44.10092" lon="7.41154">
        <ele>2369.31</ele>
        <time>2011-10-13T11:19:49Z</time>
      </trkpt>
      <trkpt lat="44.10091" lon="7.41153">
        <ele>2368.35</ele>
        <time>2011-10-13T11:19:51Z</time>
      </trkpt>
      <trkpt lat="44.10085" lon="7.41143">
        <ele>2368.35</ele>
        <time>2011-10-13T11:20:04Z</time>
      </trkpt>
      <trkpt lat="44.10079" lon="7.41135">
        <ele>2365.46</ele>
        <time>2011-10-13T11:20:18Z</time>
      </trkpt>
      <trkpt lat="44.1008" lon="7.41137">
        <ele>2365.94</ele>
        <time>2011-10-13T11:20:39Z</time>
      </trkpt>
      <trkpt lat="44.1008" lon="7.41137">
        <ele>2365.94</ele>
        <time>2011-10-13T11:20:56Z</time>
      </trkpt>
      <trkpt lat="44.1008" lon="7.41136">
        <ele>2365.46</ele>
        <time>2011-10-13T11:21:11Z</time>
      </trkpt>
      <trkpt lat="44.10079" lon="7.41138">
        <ele>2364.98</ele>
        <time>2011-10-13T11:21:28Z</time>
      </trkpt>
      <trkpt lat="44.10079" lon="7.41138">
        <ele>2365.94</ele>
        <time>2011-10-13T11:21:58Z</time>
      </trkpt>
      <trkpt lat="44.10079" lon="7.41138">
        <ele>2365.46</ele>
        <time>2011-10-13T11:22:11Z</time>
      </trkpt>
      <trkpt lat="44.10079" lon="7.41138">
        <ele>2365.94</ele>
        <time>2011-10-13T11:22:40Z</time>
      </trkpt>
      <trkpt lat="44.10079" lon="7.41138">
        <ele>2364.98</ele>
        <time>2011-10-13T11:23:03Z</time>
      </trkpt>
      <trkpt lat="44.10079" lon="7.41138">
        <ele>2366.42</ele>
        <time>2011-10-13T11:23:06Z</time>
      </trkpt>
      <trkpt lat="44.10082" lon="7.41127">
        <ele>2364.98</ele>
        <time>2011-10-13T11:23:35Z</time>
      </trkpt>
      <trkpt lat="44.10086" lon="7.41119">
        <ele>2365.46</ele>
        <time>2011-10-13T11:23:53Z</time>
      </trkpt>
      <trkpt lat="44.1009" lon="7.41102">
        <ele>2366.9</ele>
        <time>2011-10-13T11:24:28Z</time>
      </trkpt>
      <trkpt lat="44.1009" lon="7.41098">
        <ele>2368.83</ele>
        <time>2011-10-13T11:24:55Z</time>
      </trkpt>
      <trkpt lat="44.1009" lon="7.41098">
        <ele>2369.79</ele>
        <time>2011-10-13T11:25:31Z</time>
      </trkpt>
      <trkpt lat="44.1009" lon="7.41098">
        <ele>2368.83</ele>
        <time>2011-10-13T11:25:52Z</time>
      </trkpt>
      <trkpt lat="44.10089" lon="7.41097">
        <ele>2370.27</ele>
        <time>2011-10-13T11:25:54Z</time>
      </trkpt>
      <trkpt lat="44.10089" lon="7.41097">
        <ele>2372.67</ele>
        <time>2011-10-13T11:26:30Z</time>
      </trkpt>
      <trkpt lat="44.10088" lon="7.41098">
        <ele>2374.11</ele>
        <time>2011-10-13T11:27:06Z</time>
      </trkpt>
      <trkpt lat="44.10088" lon="7.41098">
        <ele>2376.04</ele>
        <time>2011-10-13T11:27:45Z</time>
      </trkpt>
      <trkpt lat="44.10088" lon="7.41098">
        <ele>2377.48</ele>
        <time>2011-10-13T11:28:21Z</time>
      </trkpt>
      <trkpt lat="44.10088" lon="7.41098">
        <ele>2376.04</ele>
        <time>2011-10-13T11:28:59Z</time>
      </trkpt>
      <trkpt lat="44.10087" lon="7.41099">
        <ele>2377.48</ele>
        <time>2011-10-13T11:29:31Z</time>
      </trkpt>
      <trkpt lat="44.10087" lon="7.41099">
        <ele>2379.88</ele>
        <time>2011-10-13T11:30:08Z</time>
      </trkpt>
      <trkpt lat="44.10087" lon="7.411">
        <ele>2379.88</ele>
        <time>2011-10-13T11:30:46Z</time>
      </trkpt>
      <trkpt lat="44.10086" lon="7.41101">
        <ele>2380.84</ele>
        <time>2011-10-13T11:31:15Z</time>
      </trkpt>
      <trkpt lat="44.10086" lon="7.41101">
        <ele>2380.84</ele>
        <time>2011-10-13T11:31:26Z</time>
      </trkpt>
      <trkpt lat="44.10086" lon="7.41101">
        <ele>2381.32</ele>
        <time>2011-10-13T11:31:35Z</time>
      </trkpt>
      <trkpt lat="44.10086" lon="7.41101">
        <ele>2378.92</ele>
        <time>2011-10-13T11:32:01Z</time>
      </trkpt>
      <trkpt lat="44.10086" lon="7.41101">
        <ele>2382.28</ele>
        <time>2011-10-13T11:32:18Z</time>
      </trkpt>
      <trkpt lat="44.10086" lon="7.41102">
        <ele>2382.28</ele>
        <time>2011-10-13T11:32:52Z</time>
      </trkpt>
      <trkpt lat="44.10086" lon="7.41102">
        <ele>2381.8</ele>
        <time>2011-10-13T11:33:27Z</time>
      </trkpt>
      <trkpt lat="44.10086" lon="7.41102">
        <ele>2383.25</ele>
        <time>2011-10-13T11:34:01Z</time>
      </trkpt>
      <trkpt lat="44.10086" lon="7.41102">
        <ele>2383.25</ele>
        <time>2011-10-13T11:34:33Z</time>
      </trkpt>
      <trkpt lat="44.10086" lon="7.41102">
        <ele>2381.8</ele>
        <time>2011-10-13T11:35:09Z</time>
      </trkpt>
      <trkpt lat="44.10086" lon="7.41103">
        <ele>2381.8</ele>
        <time>2011-10-13T11:35:30Z</time>
      </trkpt>
      <trkpt lat="44.10086" lon="7.41104">
        <ele>2381.8</ele>
        <time>2011-10-13T11:36:09Z</time>
      </trkpt>
      <trkpt lat="44.10086" lon="7.41105">
        <ele>2382.28</ele>
        <time>2011-10-13T11:36:37Z</time>
      </trkpt>
      <trkpt lat="44.10087" lon="7.41106">
        <ele>2382.28</ele>
        <time>2011-10-13T11:37:16Z</time>
      </trkpt>
      <trkpt lat="44.10087" lon="7.41106">
        <ele>2382.76</ele>
        <time>2011-10-13T11:37:50Z</time>
      </trkpt>
      <trkpt lat="44.10087" lon="7.41106">
        <ele>2383.25</ele>
        <time>2011-10-13T11:37:52Z</time>
      </trkpt>
      <trkpt lat="44.10086" lon="7.41108">
        <ele>2382.28</ele>
        <time>2011-10-13T11:38:28Z</time>
      </trkpt>
      <trkpt lat="44.10087" lon="7.41108">
        <ele>2382.76</ele>
        <time>2011-10-13T11:39:01Z</time>
      </trkpt>
      <trkpt lat="44.10087" lon="7.41108">
        <ele>2383.25</ele>
        <time>2011-10-13T11:39:34Z</time>
      </trkpt>
      <trkpt lat="44.10086" lon="7.41108">
        <ele>2383.73</ele>
        <time>2011-10-13T11:40:06Z</time>
      </trkpt>
      <trkpt lat="44.1008" lon="7.41105">
        <ele>2382.76</ele>
        <time>2011-10-13T11:40:27Z</time>
      </trkpt>
      <trkpt lat="44.1008" lon="7.41115">
        <ele>2382.76</ele>
        <time>2011-10-13T11:40:41Z</time>
      </trkpt>
      <trkpt lat="44.1008" lon="7.41115">
        <ele>2382.76</ele>
        <time>2011-10-13T11:41:09Z</time>
      </trkpt>
      <trkpt lat="44.1008" lon="7.41116">
        <ele>2383.25</ele>
        <time>2011-10-13T11:41:39Z</time>
      </trkpt>
      <trkpt lat="44.1008" lon="7.41116">
        <ele>2384.21</ele>
        <time>2011-10-13T11:42:13Z</time>
      </trkpt>
      <trkpt lat="44.1008" lon="7.41117">
        <ele>2383.73</ele>
        <time>2011-10-13T11:42:46Z</time>
      </trkpt>
      <trkpt lat="44.1008" lon="7.41117">
        <ele>2382.76</ele>
        <time>2011-10-13T11:43:18Z</time>
      </trkpt>
      <trkpt lat="44.1008" lon="7.41118">
        <ele>2382.76</ele>
        <time>2011-10-13T11:43:53Z</time>
      </trkpt>
      <trkpt lat="44.1008" lon="7.41118">
        <ele>2381.8</ele>
        <time>2011-10-13T11:44:29Z</time>
      </trkpt>
      <trkpt lat="44.1008" lon="7.41119">
        <ele>2383.25</ele>
        <time>2011-10-13T11:44:59Z</time>
      </trkpt>
      <trkpt lat="44.1008" lon="7.41119">
        <ele>2382.76</ele>
        <time>2011-10-13T11:45:34Z</time>
      </trkpt>
      <trkpt lat="44.1008" lon="7.41119">
        <ele>2383.73</ele>
        <time>2011-10-13T11:45:39Z</time>
      </trkpt>
      <trkpt lat="44.1008" lon="7.4112">
        <ele>2384.21</ele>
        <time>2011-10-13T11:46:09Z</time>
      </trkpt>
      <trkpt lat="44.1008" lon="7.4112">
        <ele>2383.73</ele>
        <time>2011-10-13T11:46:16Z</time>
      </trkpt>
      <trkpt lat="44.1008" lon="7.41121">
        <ele>2384.21</ele>
        <time>2011-10-13T11:46:47Z</time>
      </trkpt>
      <trkpt lat="44.1008" lon="7.41121">
        <ele>2383.25</ele>
        <time>2011-10-13T11:47:21Z</time>
      </trkpt>
      <trkpt lat="44.1008" lon="7.41121">
        <ele>2383.73</ele>
        <time>2011-10-13T11:47:51Z</time>
      </trkpt>
      <trkpt lat="44.1008" lon="7.41121">
        <ele>2384.69</ele>
        <time>2011-10-13T11:48:25Z</time>
      </trkpt>
      <trkpt lat="44.1008" lon="7.41121">
        <ele>2385.65</ele>
        <time>2011-10-13T11:49:00Z</time>
      </trkpt>
      <trkpt lat="44.1008" lon="7.41121">
        <ele>2385.17</ele>
        <time>2011-10-13T11:49:38Z</time>
      </trkpt>
      <trkpt lat="44.1008" lon="7.41121">
        <ele>2385.17</ele>
        <time>2011-10-13T11:50:21Z</time>
      </trkpt>
      <trkpt lat="44.1008" lon="7.41121">
        <ele>2384.69</ele>
        <time>2011-10-13T11:51:07Z</time>
      </trkpt>
      <trkpt lat="44.1008" lon="7.41121">
        <ele>2386.13</ele>
        <time>2011-10-13T11:51:51Z</time>
      </trkpt>
      <trkpt lat="44.1008" lon="7.41122">
        <ele>2385.17</ele>
        <time>2011-10-13T11:52:21Z</time>
      </trkpt>
      <trkpt lat="44.1008" lon="7.41122">
        <ele>2385.17</ele>
        <time>2011-10-13T11:52:56Z</time>
      </trkpt>
      <trkpt lat="44.1008" lon="7.41122">
        <ele>2385.17</ele>
        <time>2011-10-13T11:53:26Z</time>
      </trkpt>
      <trkpt lat="44.1008" lon="7.41122">
        <ele>2386.61</ele>
        <time>2011-10-13T11:54:02Z</time>
      </trkpt>
      <trkpt lat="44.1008" lon="7.41122">
        <ele>2384.69</ele>
        <time>2011-10-13T11:54:04Z</time>
      </trkpt>
      <trkpt lat="44.1008" lon="7.41122">
        <ele>2385.65</ele>
        <time>2011-10-13T11:54:43Z</time>
      </trkpt>
      <trkpt lat="44.1008" lon="7.41122">
        <ele>2384.69</ele>
        <time>2011-10-13T11:55:23Z</time>
      </trkpt>
      <trkpt lat="44.1008" lon="7.41122">
        <ele>2385.17</ele>
        <time>2011-10-13T11:56:11Z</time>
      </trkpt>
      <trkpt lat="44.1008" lon="7.41123">
        <ele>2385.17</ele>
        <time>2011-10-13T11:56:48Z</time>
      </trkpt>
      <trkpt lat="44.1008" lon="7.41123">
        <ele>2384.69</ele>
        <time>2011-10-13T11:57:28Z</time>
      </trkpt>
      <trkpt lat="44.1008" lon="7.41121">
        <ele>2385.17</ele>
        <time>2011-10-13T11:58:02Z</time>
      </trkpt>
      <trkpt lat="44.1008" lon="7.41121">
        <ele>2384.69</ele>
        <time>2011-10-13T11:58:38Z</time>
      </trkpt>
      <trkpt lat="44.10079" lon="7.41121">
        <ele>2383.73</ele>
        <time>2011-10-13T11:59:10Z</time>
      </trkpt>
      <trkpt lat="44.10079" lon="7.41121">
        <ele>2385.65</ele>
        <time>2011-10-13T11:59:45Z</time>
      </trkpt>
      <trkpt lat="44.10078" lon="7.4112">
        <ele>2385.17</ele>
        <time>2011-10-13T12:00:23Z</time>
      </trkpt>
      <trkpt lat="44.10078" lon="7.41121">
        <ele>2384.21</ele>
        <time>2011-10-13T12:00:54Z</time>
      </trkpt>
      <trkpt lat="44.10078" lon="7.41121">
        <ele>2385.17</ele>
        <time>2011-10-13T12:01:29Z</time>
      </trkpt>
      <trkpt lat="44.10077" lon="7.41122">
        <ele>2385.17</ele>
        <time>2011-10-13T12:01:55Z</time>
      </trkpt>
      <trkpt lat="44.10077" lon="7.41123">
        <ele>2383.25</ele>
        <time>2011-10-13T12:02:20Z</time>
      </trkpt>
      <trkpt lat="44.10077" lon="7.41123">
        <ele>2385.17</ele>
        <time>2011-10-13T12:02:48Z</time>
      </trkpt>
      <trkpt lat="44.10077" lon="7.41124">
        <ele>2384.69</ele>
        <time>2011-10-13T12:03:19Z</time>
      </trkpt>
      <trkpt lat="44.10077" lon="7.41124">
        <ele>2382.76</ele>
        <time>2011-10-13T12:03:28Z</time>
      </trkpt>
      <trkpt lat="44.10077" lon="7.41124">
        <ele>2382.76</ele>
        <time>2011-10-13T12:03:56Z</time>
      </trkpt>
      <trkpt lat="44.10077" lon="7.41124">
        <ele>2383.73</ele>
        <time>2011-10-13T12:04:31Z</time>
      </trkpt>
      <trkpt lat="44.10077" lon="7.41124">
        <ele>2383.25</ele>
        <time>2011-10-13T12:04:32Z</time>
      </trkpt>
      <trkpt lat="44.10078" lon="7.41125">
        <ele>2385.65</ele>
        <time>2011-10-13T12:05:01Z</time>
      </trkpt>
      <trkpt lat="44.10078" lon="7.41125">
        <ele>2383.73</ele>
        <time>2011-10-13T12:05:21Z</time>
      </trkpt>
      <trkpt lat="44.10078" lon="7.41125">
        <ele>2382.28</ele>
        <time>2011-10-13T12:05:32Z</time>
      </trkpt>
      <trkpt lat="44.10078" lon="7.41125">
        <ele>2384.21</ele>
        <time>2011-10-13T12:05:49Z</time>
      </trkpt>
      <trkpt lat="44.10078" lon="7.41126">
        <ele>2384.21</ele>
        <time>2011-10-13T12:06:08Z</time>
      </trkpt>
      <trkpt lat="44.10078" lon="7.41126">
        <ele>2382.76</ele>
        <time>2011-10-13T12:06:34Z</time>
      </trkpt>
      <trkpt lat="44.10078" lon="7.41126">
        <ele>2381.8</ele>
        <time>2011-10-13T12:07:09Z</time>
      </trkpt>
      <trkpt lat="44.10078" lon="7.41126">
        <ele>2383.25</ele>
        <time>2011-10-13T12:07:12Z</time>
      </trkpt>
      <trkpt lat="44.10078" lon="7.41126">
        <ele>2383.73</ele>
        <time>2011-10-13T12:07:26Z</time>
      </trkpt>
      <trkpt lat="44.10077" lon="7.41126">
        <ele>2383.73</ele>
        <time>2011-10-13T12:07:43Z</time>
      </trkpt>
      <trkpt lat="44.10077" lon="7.41126">
        <ele>2382.76</ele>
        <time>2011-10-13T12:08:06Z</time>
      </trkpt>
      <trkpt lat="44.10078" lon="7.41126">
        <ele>2382.76</ele>
        <time>2011-10-13T12:08:24Z</time>
      </trkpt>
      <trkpt lat="44.10081" lon="7.41129">
        <ele>2383.25</ele>
        <time>2011-10-13T12:08:49Z</time>
      </trkpt>
      <trkpt lat="44.10083" lon="7.41125">
        <ele>2383.73</ele>
        <time>2011-10-13T12:08:53Z</time>
      </trkpt>
      <trkpt lat="44.10085" lon="7.4112">
        <ele>2384.21</ele>
        <time>2011-10-13T12:08:57Z</time>
      </trkpt>
      <trkpt lat="44.10088" lon="7.41118">
        <ele>2383.73</ele>
        <time>2011-10-13T12:09:00Z</time>
      </trkpt>
      <trkpt lat="44.10096" lon="7.41109">
        <ele>2383.25</ele>
        <time>2011-10-13T12:09:13Z</time>
      </trkpt>
      <trkpt lat="44.10096" lon="7.41107">
        <ele>2385.65</ele>
        <time>2011-10-13T12:09:15Z</time>
      </trkpt>
      <trkpt lat="44.10095" lon="7.41094">
        <ele>2386.61</ele>
        <time>2011-10-13T12:09:27Z</time>
      </trkpt>
      <trkpt lat="44.10095" lon="7.41094">
        <ele>2383.25</ele>
        <time>2011-10-13T12:09:30Z</time>
      </trkpt>
      <trkpt lat="44.10095" lon="7.41094">
        <ele>2383.25</ele>
        <time>2011-10-13T12:09:31Z</time>
      </trkpt>
      <trkpt lat="44.10095" lon="7.41094">
        <ele>2386.13</ele>
        <time>2011-10-13T12:09:37Z</time>
      </trkpt>
      <trkpt lat="44.10095" lon="7.41094">
        <ele>2383.25</ele>
        <time>2011-10-13T12:09:47Z</time>
      </trkpt>
      <trkpt lat="44.10095" lon="7.41094">
        <ele>2384.69</ele>
        <time>2011-10-13T12:09:59Z</time>
      </trkpt>
      <trkpt lat="44.10095" lon="7.41095">
        <ele>2383.73</ele>
        <time>2011-10-13T12:10:13Z</time>
      </trkpt>
      <trkpt lat="44.10095" lon="7.41095">
        <ele>2385.17</ele>
        <time>2011-10-13T12:10:15Z</time>
      </trkpt>
      <trkpt lat="44.10095" lon="7.41095">
        <ele>2383.25</ele>
        <time>2011-10-13T12:10:35Z</time>
      </trkpt>
      <trkpt lat="44.10095" lon="7.41095">
        <ele>2382.76</ele>
        <time>2011-10-13T12:10:41Z</time>
      </trkpt>
      <trkpt lat="44.10095" lon="7.41095">
        <ele>2381.8</ele>
        <time>2011-10-13T12:11:08Z</time>
      </trkpt>
      <trkpt lat="44.10095" lon="7.41095">
        <ele>2385.65</ele>
        <time>2011-10-13T12:11:21Z</time>
      </trkpt>
      <trkpt lat="44.10095" lon="7.41095">
        <ele>2387.57</ele>
        <time>2011-10-13T12:11:52Z</time>
      </trkpt>
      <trkpt lat="44.10095" lon="7.41095">
        <ele>2385.17</ele>
        <time>2011-10-13T12:11:55Z</time>
      </trkpt>
      <trkpt lat="44.10095" lon="7.41095">
        <ele>2383.73</ele>
        <time>2011-10-13T12:12:20Z</time>
      </trkpt>
      <trkpt lat="44.10097" lon="7.41095">
        <ele>2383.25</ele>
        <time>2011-10-13T12:12:43Z</time>
      </trkpt>
      <trkpt lat="44.101" lon="7.41092">
        <ele>2384.21</ele>
        <time>2011-10-13T12:12:59Z</time>
      </trkpt>
      <trkpt lat="44.10108" lon="7.41076">
        <ele>2382.76</ele>
        <time>2011-10-13T12:13:13Z</time>
      </trkpt>
      <trkpt lat="44.10115" lon="7.41058">
        <ele>2379.4</ele>
        <time>2011-10-13T12:13:24Z</time>
      </trkpt>
      <trkpt lat="44.10119" lon="7.41051">
        <ele>2379.88</ele>
        <time>2011-10-13T12:13:29Z</time>
      </trkpt>
      <trkpt lat="44.10123" lon="7.41026">
        <ele>2381.8</ele>
        <time>2011-10-13T12:13:45Z</time>
      </trkpt>
      <trkpt lat="44.10123" lon="7.41025">
        <ele>2381.8</ele>
        <time>2011-10-13T12:13:46Z</time>
      </trkpt>
      <trkpt lat="44.10127" lon="7.41018">
        <ele>2382.76</ele>
        <time>2011-10-13T12:13:53Z</time>
      </trkpt>
      <trkpt lat="44.10128" lon="7.41017">
        <ele>2382.28</ele>
        <time>2011-10-13T12:13:54Z</time>
      </trkpt>
      <trkpt lat="44.1013" lon="7.41015">
        <ele>2382.76</ele>
        <time>2011-10-13T12:13:56Z</time>
      </trkpt>
      <trkpt lat="44.10133" lon="7.41013">
        <ele>2382.28</ele>
        <time>2011-10-13T12:14:00Z</time>
      </trkpt>
      <trkpt lat="44.10144" lon="7.40991">
        <ele>2381.32</ele>
        <time>2011-10-13T12:14:15Z</time>
      </trkpt>
      <trkpt lat="44.10144" lon="7.40981">
        <ele>2380.84</ele>
        <time>2011-10-13T12:14:21Z</time>
      </trkpt>
      <trkpt lat="44.10143" lon="7.40974">
        <ele>2379.88</ele>
        <time>2011-10-13T12:14:25Z</time>
      </trkpt>
      <trkpt lat="44.10144" lon="7.4097">
        <ele>2381.8</ele>
        <time>2011-10-13T12:14:29Z</time>
      </trkpt>
      <trkpt lat="44.10145" lon="7.4096">
        <ele>2383.73</ele>
        <time>2011-10-13T12:14:41Z</time>
      </trkpt>
      <trkpt lat="44.10144" lon="7.40948">
        <ele>2384.69</ele>
        <time>2011-10-13T12:14:51Z</time>
      </trkpt>
      <trkpt lat="44.10144" lon="7.40945">
        <ele>2384.21</ele>
        <time>2011-10-13T12:14:53Z</time>
      </trkpt>
      <trkpt lat="44.10146" lon="7.40931">
        <ele>2385.17</ele>
        <time>2011-10-13T12:15:02Z</time>
      </trkpt>
      <trkpt lat="44.10145" lon="7.40918">
        <ele>2383.25</ele>
        <time>2011-10-13T12:15:11Z</time>
      </trkpt>
      <trkpt lat="44.10152" lon="7.40906">
        <ele>2380.36</ele>
        <time>2011-10-13T12:15:21Z</time>
      </trkpt>
      <trkpt lat="44.10154" lon="7.40905">
        <ele>2379.4</ele>
        <time>2011-10-13T12:15:23Z</time>
      </trkpt>
      <trkpt lat="44.1016" lon="7.40901">
        <ele>2383.25</ele>
        <time>2011-10-13T12:15:29Z</time>
      </trkpt>
      <trkpt lat="44.10163" lon="7.409">
        <ele>2381.32</ele>
        <time>2011-10-13T12:15:32Z</time>
      </trkpt>
      <trkpt lat="44.10166" lon="7.409">
        <ele>2377</ele>
        <time>2011-10-13T12:15:34Z</time>
      </trkpt>
      <trkpt lat="44.10167" lon="7.40901">
        <ele>2383.73</ele>
        <time>2011-10-13T12:15:35Z</time>
      </trkpt>
      <trkpt lat="44.10168" lon="7.40901">
        <ele>2380.36</ele>
        <time>2011-10-13T12:15:36Z</time>
      </trkpt>
      <trkpt lat="44.1017" lon="7.40901">
        <ele>2377.48</ele>
        <time>2011-10-13T12:15:38Z</time>
      </trkpt>
      <trkpt lat="44.10171" lon="7.40902">
        <ele>2381.8</ele>
        <time>2011-10-13T12:15:40Z</time>
      </trkpt>
      <trkpt lat="44.10172" lon="7.40902">
        <ele>2378.92</ele>
        <time>2011-10-13T12:15:41Z</time>
      </trkpt>
      <trkpt lat="44.10173" lon="7.40903">
        <ele>2375.07</ele>
        <time>2011-10-13T12:15:42Z</time>
      </trkpt>
      <trkpt lat="44.10174" lon="7.40904">
        <ele>2375.55</ele>
        <time>2011-10-13T12:15:43Z</time>
      </trkpt>
      <trkpt lat="44.10175" lon="7.40905">
        <ele>2379.4</ele>
        <time>2011-10-13T12:15:45Z</time>
      </trkpt>
      <trkpt lat="44.10176" lon="7.40906">
        <ele>2376.04</ele>
        <time>2011-10-13T12:15:46Z</time>
      </trkpt>
      <trkpt lat="44.10178" lon="7.40906">
        <ele>2377</ele>
        <time>2011-10-13T12:15:52Z</time>
      </trkpt>
      <trkpt lat="44.10178" lon="7.40904">
        <ele>2375.07</ele>
        <time>2011-10-13T12:15:54Z</time>
      </trkpt>
      <trkpt lat="44.10179" lon="7.40901">
        <ele>2376.52</ele>
        <time>2011-10-13T12:15:57Z</time>
      </trkpt>
      <trkpt lat="44.1018" lon="7.40897">
        <ele>2374.59</ele>
        <time>2011-10-13T12:16:02Z</time>
      </trkpt>
      <trkpt lat="44.1018" lon="7.40891">
        <ele>2370.27</ele>
        <time>2011-10-13T12:16:08Z</time>
      </trkpt>
      <trkpt lat="44.10181" lon="7.4089">
        <ele>2373.63</ele>
        <time>2011-10-13T12:16:09Z</time>
      </trkpt>
      <trkpt lat="44.10181" lon="7.40889">
        <ele>2373.15</ele>
        <time>2011-10-13T12:16:10Z</time>
      </trkpt>
      <trkpt lat="44.10183" lon="7.40888">
        <ele>2369.31</ele>
        <time>2011-10-13T12:16:13Z</time>
      </trkpt>
      <trkpt lat="44.10181" lon="7.40876">
        <ele>2368.35</ele>
        <time>2011-10-13T12:16:27Z</time>
      </trkpt>
      <trkpt lat="44.10181" lon="7.40873">
        <ele>2366.9</ele>
        <time>2011-10-13T12:16:31Z</time>
      </trkpt>
      <trkpt lat="44.10186" lon="7.40871">
        <ele>2364.5</ele>
        <time>2011-10-13T12:16:36Z</time>
      </trkpt>
      <trkpt lat="44.10187" lon="7.40865">
        <ele>2363.06</ele>
        <time>2011-10-13T12:16:48Z</time>
      </trkpt>
      <trkpt lat="44.10191" lon="7.40868">
        <ele>2361.14</ele>
        <time>2011-10-13T12:16:53Z</time>
      </trkpt>
      <trkpt lat="44.10192" lon="7.40866">
        <ele>2360.65</ele>
        <time>2011-10-13T12:16:55Z</time>
      </trkpt>
      <trkpt lat="44.10194" lon="7.40863">
        <ele>2359.21</ele>
        <time>2011-10-13T12:16:57Z</time>
      </trkpt>
      <trkpt lat="44.10194" lon="7.4086">
        <ele>2358.73</ele>
        <time>2011-10-13T12:16:59Z</time>
      </trkpt>
      <trkpt lat="44.10193" lon="7.40854">
        <ele>2355.37</ele>
        <time>2011-10-13T12:17:03Z</time>
      </trkpt>
      <trkpt lat="44.10194" lon="7.40848">
        <ele>2356.33</ele>
        <time>2011-10-13T12:17:08Z</time>
      </trkpt>
      <trkpt lat="44.10193" lon="7.40843">
        <ele>2354.89</ele>
        <time>2011-10-13T12:17:15Z</time>
      </trkpt>
      <trkpt lat="44.10195" lon="7.40839">
        <ele>2352.96</ele>
        <time>2011-10-13T12:17:18Z</time>
      </trkpt>
      <trkpt lat="44.10197" lon="7.40833">
        <ele>2351.52</ele>
        <time>2011-10-13T12:17:22Z</time>
      </trkpt>
      <trkpt lat="44.10199" lon="7.40821">
        <ele>2352.96</ele>
        <time>2011-10-13T12:17:31Z</time>
      </trkpt>
      <trkpt lat="44.10202" lon="7.40814">
        <ele>2352.96</ele>
        <time>2011-10-13T12:17:38Z</time>
      </trkpt>
      <trkpt lat="44.10207" lon="7.40805">
        <ele>2350.56</ele>
        <time>2011-10-13T12:17:49Z</time>
      </trkpt>
      <trkpt lat="44.10212" lon="7.40795">
        <ele>2348.64</ele>
        <time>2011-10-13T12:18:02Z</time>
      </trkpt>
      <trkpt lat="44.10213" lon="7.40788">
        <ele>2348.64</ele>
        <time>2011-10-13T12:18:14Z</time>
      </trkpt>
      <trkpt lat="44.10215" lon="7.40784">
        <ele>2348.16</ele>
        <time>2011-10-13T12:18:29Z</time>
      </trkpt>
      <trkpt lat="44.10216" lon="7.40781">
        <ele>2346.72</ele>
        <time>2011-10-13T12:18:32Z</time>
      </trkpt>
      <trkpt lat="44.10217" lon="7.40779">
        <ele>2343.35</ele>
        <time>2011-10-13T12:18:34Z</time>
      </trkpt>
      <trkpt lat="44.10218" lon="7.40778">
        <ele>2343.83</ele>
        <time>2011-10-13T12:18:35Z</time>
      </trkpt>
      <trkpt lat="44.1023" lon="7.40778">
        <ele>2341.43</ele>
        <time>2011-10-13T12:18:48Z</time>
      </trkpt>
      <trkpt lat="44.10235" lon="7.40776">
        <ele>2340.95</ele>
        <time>2011-10-13T12:18:54Z</time>
      </trkpt>
      <trkpt lat="44.10238" lon="7.4077">
        <ele>2337.58</ele>
        <time>2011-10-13T12:19:04Z</time>
      </trkpt>
      <trkpt lat="44.10238" lon="7.4077">
        <ele>2337.58</ele>
        <time>2011-10-13T12:19:05Z</time>
      </trkpt>
      <trkpt lat="44.10241" lon="7.40767">
        <ele>2336.62</ele>
        <time>2011-10-13T12:19:16Z</time>
      </trkpt>
      <trkpt lat="44.10242" lon="7.40767">
        <ele>2335.66</ele>
        <time>2011-10-13T12:19:17Z</time>
      </trkpt>
      <trkpt lat="44.10243" lon="7.40764">
        <ele>2337.1</ele>
        <time>2011-10-13T12:19:19Z</time>
      </trkpt>
      <trkpt lat="44.10253" lon="7.40765">
        <ele>2335.66</ele>
        <time>2011-10-13T12:19:32Z</time>
      </trkpt>
      <trkpt lat="44.10256" lon="7.40765">
        <ele>2333.26</ele>
        <time>2011-10-13T12:19:49Z</time>
      </trkpt>
      <trkpt lat="44.10256" lon="7.40765">
        <ele>2331.81</ele>
        <time>2011-10-13T12:20:13Z</time>
      </trkpt>
      <trkpt lat="44.10256" lon="7.40765">
        <ele>2333.74</ele>
        <time>2011-10-13T12:20:19Z</time>
      </trkpt>
      <trkpt lat="44.10257" lon="7.40764">
        <ele>2333.26</ele>
        <time>2011-10-13T12:20:42Z</time>
      </trkpt>
      <trkpt lat="44.10258" lon="7.40766">
        <ele>2334.7</ele>
        <time>2011-10-13T12:20:45Z</time>
      </trkpt>
      <trkpt lat="44.10259" lon="7.40766">
        <ele>2334.7</ele>
        <time>2011-10-13T12:20:49Z</time>
      </trkpt>
      <trkpt lat="44.10265" lon="7.40773">
        <ele>2331.33</ele>
        <time>2011-10-13T12:21:00Z</time>
      </trkpt>
      <trkpt lat="44.10269" lon="7.40773">
        <ele>2332.78</ele>
        <time>2011-10-13T12:21:04Z</time>
      </trkpt>
      <trkpt lat="44.10278" lon="7.40782">
        <ele>2331.81</ele>
        <time>2011-10-13T12:21:15Z</time>
      </trkpt>
      <trkpt lat="44.10283" lon="7.40783">
        <ele>2332.3</ele>
        <time>2011-10-13T12:21:21Z</time>
      </trkpt>
      <trkpt lat="44.10285" lon="7.40783">
        <ele>2330.37</ele>
        <time>2011-10-13T12:21:24Z</time>
      </trkpt>
      <trkpt lat="44.10289" lon="7.40785">
        <ele>2326.53</ele>
        <time>2011-10-13T12:21:29Z</time>
      </trkpt>
      <trkpt lat="44.1029" lon="7.40785">
        <ele>2327.49</ele>
        <time>2011-10-13T12:21:30Z</time>
      </trkpt>
      <trkpt lat="44.10291" lon="7.40785">
        <ele>2324.12</ele>
        <time>2011-10-13T12:21:32Z</time>
      </trkpt>
      <trkpt lat="44.10292" lon="7.40785">
        <ele>2325.09</ele>
        <time>2011-10-13T12:21:33Z</time>
      </trkpt>
      <trkpt lat="44.10294" lon="7.40786">
        <ele>2327.01</ele>
        <time>2011-10-13T12:21:35Z</time>
      </trkpt>
      <trkpt lat="44.10295" lon="7.40788">
        <ele>2327.01</ele>
        <time>2011-10-13T12:21:40Z</time>
      </trkpt>
      <trkpt lat="44.10296" lon="7.40791">
        <ele>2323.64</ele>
        <time>2011-10-13T12:21:49Z</time>
      </trkpt>
      <trkpt lat="44.10298" lon="7.40793">
        <ele>2330.37</ele>
        <time>2011-10-13T12:21:52Z</time>
      </trkpt>
      <trkpt lat="44.10299" lon="7.40794">
        <ele>2328.45</ele>
        <time>2011-10-13T12:21:53Z</time>
      </trkpt>
      <trkpt lat="44.10299" lon="7.40795">
        <ele>2325.09</ele>
        <time>2011-10-13T12:22:01Z</time>
      </trkpt>
      <trkpt lat="44.10299" lon="7.40795">
        <ele>2330.37</ele>
        <time>2011-10-13T12:22:19Z</time>
      </trkpt>
      <trkpt lat="44.10299" lon="7.40795">
        <ele>2326.53</ele>
        <time>2011-10-13T12:22:23Z</time>
      </trkpt>
      <trkpt lat="44.10296" lon="7.40798">
        <ele>2324.12</ele>
        <time>2011-10-13T12:22:29Z</time>
      </trkpt>
      <trkpt lat="44.10297" lon="7.40804">
        <ele>2321.72</ele>
        <time>2011-10-13T12:22:41Z</time>
      </trkpt>
      <trkpt lat="44.10302" lon="7.40807">
        <ele>2318.84</ele>
        <time>2011-10-13T12:22:55Z</time>
      </trkpt>
      <trkpt lat="44.10302" lon="7.40808">
        <ele>2318.84</ele>
        <time>2011-10-13T12:22:56Z</time>
      </trkpt>
      <trkpt lat="44.10304" lon="7.40808">
        <ele>2317.4</ele>
        <time>2011-10-13T12:23:04Z</time>
      </trkpt>
      <trkpt lat="44.10307" lon="7.40806">
        <ele>2315.47</ele>
        <time>2011-10-13T12:23:15Z</time>
      </trkpt>
      <trkpt lat="44.1031" lon="7.408">
        <ele>2313.07</ele>
        <time>2011-10-13T12:23:21Z</time>
      </trkpt>
      <trkpt lat="44.10312" lon="7.40793">
        <ele>2308.74</ele>
        <time>2011-10-13T12:23:31Z</time>
      </trkpt>
      <trkpt lat="44.10312" lon="7.40791">
        <ele>2307.78</ele>
        <time>2011-10-13T12:23:33Z</time>
      </trkpt>
      <trkpt lat="44.10313" lon="7.4079">
        <ele>2307.78</ele>
        <time>2011-10-13T12:23:34Z</time>
      </trkpt>
      <trkpt lat="44.10314" lon="7.40786">
        <ele>2306.34</ele>
        <time>2011-10-13T12:23:37Z</time>
      </trkpt>
      <trkpt lat="44.10317" lon="7.40773">
        <ele>2304.9</ele>
        <time>2011-10-13T12:23:46Z</time>
      </trkpt>
      <trkpt lat="44.10318" lon="7.40768">
        <ele>2303.46</ele>
        <time>2011-10-13T12:23:59Z</time>
      </trkpt>
      <trkpt lat="44.10318" lon="7.40755">
        <ele>2302.98</ele>
        <time>2011-10-13T12:24:10Z</time>
      </trkpt>
      <trkpt lat="44.10316" lon="7.40749">
        <ele>2300.09</ele>
        <time>2011-10-13T12:24:18Z</time>
      </trkpt>
      <trkpt lat="44.10313" lon="7.40735">
        <ele>2299.61</ele>
        <time>2011-10-13T12:24:31Z</time>
      </trkpt>
      <trkpt lat="44.10315" lon="7.40726">
        <ele>2297.69</ele>
        <time>2011-10-13T12:24:45Z</time>
      </trkpt>
      <trkpt lat="44.10314" lon="7.40717">
        <ele>2296.73</ele>
        <time>2011-10-13T12:24:52Z</time>
      </trkpt>
      <trkpt lat="44.10317" lon="7.40711">
        <ele>2296.25</ele>
        <time>2011-10-13T12:24:56Z</time>
      </trkpt>
      <trkpt lat="44.10322" lon="7.40693">
        <ele>2293.36</ele>
        <time>2011-10-13T12:25:09Z</time>
      </trkpt>
      <trkpt lat="44.10322" lon="7.40689">
        <ele>2293.84</ele>
        <time>2011-10-13T12:25:11Z</time>
      </trkpt>
      <trkpt lat="44.10314" lon="7.4067">
        <ele>2294.32</ele>
        <time>2011-10-13T12:25:26Z</time>
      </trkpt>
      <trkpt lat="44.10302" lon="7.40658">
        <ele>2292.4</ele>
        <time>2011-10-13T12:25:42Z</time>
      </trkpt>
      <trkpt lat="44.10297" lon="7.40653">
        <ele>2289.04</ele>
        <time>2011-10-13T12:25:54Z</time>
      </trkpt>
      <trkpt lat="44.10293" lon="7.40642">
        <ele>2286.63</ele>
        <time>2011-10-13T12:26:05Z</time>
      </trkpt>
      <trkpt lat="44.10294" lon="7.40635">
        <ele>2283.27</ele>
        <time>2011-10-13T12:26:12Z</time>
      </trkpt>
      <trkpt lat="44.10294" lon="7.40634">
        <ele>2283.27</ele>
        <time>2011-10-13T12:26:13Z</time>
      </trkpt>
      <trkpt lat="44.10296" lon="7.40633">
        <ele>2282.31</ele>
        <time>2011-10-13T12:26:16Z</time>
      </trkpt>
      <trkpt lat="44.10301" lon="7.4063">
        <ele>2279.9</ele>
        <time>2011-10-13T12:26:21Z</time>
      </trkpt>
      <trkpt lat="44.10299" lon="7.40625">
        <ele>2279.42</ele>
        <time>2011-10-13T12:26:24Z</time>
      </trkpt>
      <trkpt lat="44.10297" lon="7.40614">
        <ele>2278.94</ele>
        <time>2011-10-13T12:26:36Z</time>
      </trkpt>
      <trkpt lat="44.103" lon="7.40611">
        <ele>2278.94</ele>
        <time>2011-10-13T12:26:41Z</time>
      </trkpt>
      <trkpt lat="44.10302" lon="7.40608">
        <ele>2278.46</ele>
        <time>2011-10-13T12:26:43Z</time>
      </trkpt>
      <trkpt lat="44.10305" lon="7.4059">
        <ele>2279.9</ele>
        <time>2011-10-13T12:26:59Z</time>
      </trkpt>
      <trkpt lat="44.10306" lon="7.4059">
        <ele>2279.9</ele>
        <time>2011-10-13T12:27:17Z</time>
      </trkpt>
      <trkpt lat="44.10307" lon="7.40579">
        <ele>2277.5</ele>
        <time>2011-10-13T12:27:37Z</time>
      </trkpt>
      <trkpt lat="44.1031" lon="7.40576">
        <ele>2277.5</ele>
        <time>2011-10-13T12:27:40Z</time>
      </trkpt>
      <trkpt lat="44.10311" lon="7.4057">
        <ele>2276.54</ele>
        <time>2011-10-13T12:27:44Z</time>
      </trkpt>
      <trkpt lat="44.10313" lon="7.40565">
        <ele>2276.54</ele>
        <time>2011-10-13T12:27:47Z</time>
      </trkpt>
      <trkpt lat="44.10318" lon="7.40561">
        <ele>2277.02</ele>
        <time>2011-10-13T12:27:51Z</time>
      </trkpt>
      <trkpt lat="44.10321" lon="7.40556">
        <ele>2278.46</ele>
        <time>2011-10-13T12:27:55Z</time>
      </trkpt>
      <trkpt lat="44.10324" lon="7.40549">
        <ele>2278.46</ele>
        <time>2011-10-13T12:28:00Z</time>
      </trkpt>
      <trkpt lat="44.10326" lon="7.40535">
        <ele>2277.02</ele>
        <time>2011-10-13T12:28:14Z</time>
      </trkpt>
      <trkpt lat="44.10326" lon="7.40533">
        <ele>2276.54</ele>
        <time>2011-10-13T12:28:15Z</time>
      </trkpt>
      <trkpt lat="44.10325" lon="7.40531">
        <ele>2277.02</ele>
        <time>2011-10-13T12:28:17Z</time>
      </trkpt>
      <trkpt lat="44.10325" lon="7.40525">
        <ele>2274.62</ele>
        <time>2011-10-13T12:28:21Z</time>
      </trkpt>
      <trkpt lat="44.10327" lon="7.40524">
        <ele>2273.66</ele>
        <time>2011-10-13T12:28:24Z</time>
      </trkpt>
      <trkpt lat="44.10331" lon="7.40521">
        <ele>2273.17</ele>
        <time>2011-10-13T12:28:28Z</time>
      </trkpt>
      <trkpt lat="44.10335" lon="7.40514">
        <ele>2271.73</ele>
        <time>2011-10-13T12:28:33Z</time>
      </trkpt>
      <trkpt lat="44.10341" lon="7.40506">
        <ele>2271.25</ele>
        <time>2011-10-13T12:28:38Z</time>
      </trkpt>
      <trkpt lat="44.10341" lon="7.40502">
        <ele>2271.73</ele>
        <time>2011-10-13T12:28:40Z</time>
      </trkpt>
      <trkpt lat="44.10345" lon="7.40495">
        <ele>2271.73</ele>
        <time>2011-10-13T12:28:44Z</time>
      </trkpt>
      <trkpt lat="44.10347" lon="7.40474">
        <ele>2273.66</ele>
        <time>2011-10-13T12:28:58Z</time>
      </trkpt>
      <trkpt lat="44.10348" lon="7.40469">
        <ele>2272.21</ele>
        <time>2011-10-13T12:29:02Z</time>
      </trkpt>
      <trkpt lat="44.10348" lon="7.40464">
        <ele>2272.69</ele>
        <time>2011-10-13T12:29:05Z</time>
      </trkpt>
      <trkpt lat="44.10348" lon="7.40455">
        <ele>2275.1</ele>
        <time>2011-10-13T12:29:10Z</time>
      </trkpt>
      <trkpt lat="44.10347" lon="7.4045">
        <ele>2275.1</ele>
        <time>2011-10-13T12:29:13Z</time>
      </trkpt>
      <trkpt lat="44.10351" lon="7.40426">
        <ele>2274.62</ele>
        <time>2011-10-13T12:29:28Z</time>
      </trkpt>
      <trkpt lat="44.10354" lon="7.40408">
        <ele>2272.69</ele>
        <time>2011-10-13T12:29:41Z</time>
      </trkpt>
      <trkpt lat="44.10361" lon="7.40398">
        <ele>2268.85</ele>
        <time>2011-10-13T12:29:53Z</time>
      </trkpt>
      <trkpt lat="44.1037" lon="7.4039">
        <ele>2265.48</ele>
        <time>2011-10-13T12:30:03Z</time>
      </trkpt>
      <trkpt lat="44.10374" lon="7.40386">
        <ele>2262.6</ele>
        <time>2011-10-13T12:30:11Z</time>
      </trkpt>
      <trkpt lat="44.10375" lon="7.40379">
        <ele>2260.2</ele>
        <time>2011-10-13T12:30:18Z</time>
      </trkpt>
      <trkpt lat="44.10377" lon="7.40371">
        <ele>2256.35</ele>
        <time>2011-10-13T12:30:29Z</time>
      </trkpt>
      <trkpt lat="44.10377" lon="7.4037">
        <ele>2256.35</ele>
        <time>2011-10-13T12:30:30Z</time>
      </trkpt>
      <trkpt lat="44.10379" lon="7.40365">
        <ele>2253.95</ele>
        <time>2011-10-13T12:30:37Z</time>
      </trkpt>
      <trkpt lat="44.10384" lon="7.40364">
        <ele>2252.51</ele>
        <time>2011-10-13T12:30:42Z</time>
      </trkpt>
      <trkpt lat="44.10388" lon="7.40367">
        <ele>2250.58</ele>
        <time>2011-10-13T12:30:46Z</time>
      </trkpt>
      <trkpt lat="44.10403" lon="7.40364">
        <ele>2250.58</ele>
        <time>2011-10-13T12:30:55Z</time>
      </trkpt>
      <trkpt lat="44.1042" lon="7.40359">
        <ele>2249.62</ele>
        <time>2011-10-13T12:31:06Z</time>
      </trkpt>
      <trkpt lat="44.10437" lon="7.4036">
        <ele>2252.99</ele>
        <time>2011-10-13T12:31:17Z</time>
      </trkpt>
      <trkpt lat="44.10443" lon="7.40339">
        <ele>2255.39</ele>
        <time>2011-10-13T12:31:32Z</time>
      </trkpt>
      <trkpt lat="44.10455" lon="7.40331">
        <ele>2258.75</ele>
        <time>2011-10-13T12:31:47Z</time>
      </trkpt>
      <trkpt lat="44.10469" lon="7.40326">
        <ele>2261.16</ele>
        <time>2011-10-13T12:32:01Z</time>
      </trkpt>
      <trkpt lat="44.10473" lon="7.40318">
        <ele>2261.16</ele>
        <time>2011-10-13T12:32:15Z</time>
      </trkpt>
      <trkpt lat="44.10473" lon="7.40318">
        <ele>2263.08</ele>
        <time>2011-10-13T12:32:36Z</time>
      </trkpt>
      <trkpt lat="44.10473" lon="7.40317">
        <ele>2262.6</ele>
        <time>2011-10-13T12:32:38Z</time>
      </trkpt>
      <trkpt lat="44.10474" lon="7.40315">
        <ele>2261.64</ele>
        <time>2011-10-13T12:32:40Z</time>
      </trkpt>
      <trkpt lat="44.10474" lon="7.40314">
        <ele>2261.64</ele>
        <time>2011-10-13T12:32:41Z</time>
      </trkpt>
      <trkpt lat="44.10482" lon="7.40296">
        <ele>2260.2</ele>
        <time>2011-10-13T12:32:55Z</time>
      </trkpt>
      <trkpt lat="44.10483" lon="7.40293">
        <ele>2259.72</ele>
        <time>2011-10-13T12:32:57Z</time>
      </trkpt>
      <trkpt lat="44.10483" lon="7.4029">
        <ele>2258.75</ele>
        <time>2011-10-13T12:32:59Z</time>
      </trkpt>
      <trkpt lat="44.10484" lon="7.40281">
        <ele>2259.72</ele>
        <time>2011-10-13T12:33:05Z</time>
      </trkpt>
      <trkpt lat="44.10481" lon="7.40265">
        <ele>2261.16</ele>
        <time>2011-10-13T12:33:15Z</time>
      </trkpt>
      <trkpt lat="44.10483" lon="7.40253">
        <ele>2260.68</ele>
        <time>2011-10-13T12:33:23Z</time>
      </trkpt>
      <trkpt lat="44.1048" lon="7.40238">
        <ele>2260.2</ele>
        <time>2011-10-13T12:33:33Z</time>
      </trkpt>
      <trkpt lat="44.10481" lon="7.40225">
        <ele>2259.72</ele>
        <time>2011-10-13T12:33:41Z</time>
      </trkpt>
      <trkpt lat="44.10476" lon="7.40203">
        <ele>2257.79</ele>
        <time>2011-10-13T12:33:54Z</time>
      </trkpt>
      <trkpt lat="44.10474" lon="7.402">
        <ele>2258.75</ele>
        <time>2011-10-13T12:33:57Z</time>
      </trkpt>
      <trkpt lat="44.10474" lon="7.40182">
        <ele>2259.24</ele>
        <time>2011-10-13T12:34:11Z</time>
      </trkpt>
      <trkpt lat="44.10474" lon="7.40169">
        <ele>2261.64</ele>
        <time>2011-10-13T12:34:24Z</time>
      </trkpt>
      <trkpt lat="44.10473" lon="7.40165">
        <ele>2264.52</ele>
        <time>2011-10-13T12:34:30Z</time>
      </trkpt>
      <trkpt lat="44.10474" lon="7.40157">
        <ele>2263.08</ele>
        <time>2011-10-13T12:34:37Z</time>
      </trkpt>
      <trkpt lat="44.10471" lon="7.40145">
        <ele>2259.24</ele>
        <time>2011-10-13T12:34:48Z</time>
      </trkpt>
      <trkpt lat="44.10471" lon="7.40136">
        <ele>2257.79</ele>
        <time>2011-10-13T12:35:01Z</time>
      </trkpt>
      <trkpt lat="44.10477" lon="7.40131">
        <ele>2256.35</ele>
        <time>2011-10-13T12:35:07Z</time>
      </trkpt>
      <trkpt lat="44.10478" lon="7.40129">
        <ele>2256.83</ele>
        <time>2011-10-13T12:35:09Z</time>
      </trkpt>
      <trkpt lat="44.10479" lon="7.40127">
        <ele>2257.31</ele>
        <time>2011-10-13T12:35:11Z</time>
      </trkpt>
      <trkpt lat="44.1048" lon="7.4012">
        <ele>2253.95</ele>
        <time>2011-10-13T12:35:20Z</time>
      </trkpt>
      <trkpt lat="44.10478" lon="7.40109">
        <ele>2252.51</ele>
        <time>2011-10-13T12:35:30Z</time>
      </trkpt>
      <trkpt lat="44.10477" lon="7.40104">
        <ele>2249.14</ele>
        <time>2011-10-13T12:35:38Z</time>
      </trkpt>
      <trkpt lat="44.10475" lon="7.40102">
        <ele>2248.66</ele>
        <time>2011-10-13T12:35:41Z</time>
      </trkpt>
      <trkpt lat="44.10467" lon="7.40095">
        <ele>2244.82</ele>
        <time>2011-10-13T12:35:53Z</time>
      </trkpt>
      <trkpt lat="44.10465" lon="7.40093">
        <ele>2243.37</ele>
        <time>2011-10-13T12:35:56Z</time>
      </trkpt>
      <trkpt lat="44.10463" lon="7.4009">
        <ele>2242.89</ele>
        <time>2011-10-13T12:36:00Z</time>
      </trkpt>
      <trkpt lat="44.1046" lon="7.40085">
        <ele>2241.45</ele>
        <time>2011-10-13T12:36:05Z</time>
      </trkpt>
      <trkpt lat="44.10457" lon="7.40079">
        <ele>2240.49</ele>
        <time>2011-10-13T12:36:11Z</time>
      </trkpt>
      <trkpt lat="44.1045" lon="7.40063">
        <ele>2240.01</ele>
        <time>2011-10-13T12:36:24Z</time>
      </trkpt>
      <trkpt lat="44.10447" lon="7.40061">
        <ele>2239.53</ele>
        <time>2011-10-13T12:36:38Z</time>
      </trkpt>
      <trkpt lat="44.10447" lon="7.40061">
        <ele>2240.01</ele>
        <time>2011-10-13T12:37:05Z</time>
      </trkpt>
      <trkpt lat="44.10447" lon="7.40061">
        <ele>2238.57</ele>
        <time>2011-10-13T12:37:31Z</time>
      </trkpt>
      <trkpt lat="44.10447" lon="7.40061">
        <ele>2240.49</ele>
        <time>2011-10-13T12:37:56Z</time>
      </trkpt>
      <trkpt lat="44.10447" lon="7.40061">
        <ele>2239.05</ele>
        <time>2011-10-13T12:38:22Z</time>
      </trkpt>
      <trkpt lat="44.10447" lon="7.40061">
        <ele>2238.57</ele>
        <time>2011-10-13T12:38:44Z</time>
      </trkpt>
      <trkpt lat="44.10447" lon="7.40057">
        <ele>2238.57</ele>
        <time>2011-10-13T12:39:08Z</time>
      </trkpt>
      <trkpt lat="44.10448" lon="7.4005">
        <ele>2239.53</ele>
        <time>2011-10-13T12:39:12Z</time>
      </trkpt>
      <trkpt lat="44.10449" lon="7.40031">
        <ele>2241.93</ele>
        <time>2011-10-13T12:39:28Z</time>
      </trkpt>
      <trkpt lat="44.10448" lon="7.40029">
        <ele>2243.85</ele>
        <time>2011-10-13T12:39:29Z</time>
      </trkpt>
      <trkpt lat="44.10445" lon="7.40027">
        <ele>2242.89</ele>
        <time>2011-10-13T12:39:33Z</time>
      </trkpt>
      <trkpt lat="44.10439" lon="7.40023">
        <ele>2240.97</ele>
        <time>2011-10-13T12:39:47Z</time>
      </trkpt>
      <trkpt lat="44.10435" lon="7.40019">
        <ele>2240.49</ele>
        <time>2011-10-13T12:40:05Z</time>
      </trkpt>
      <trkpt lat="44.10435" lon="7.40019">
        <ele>2240.97</ele>
        <time>2011-10-13T12:40:29Z</time>
      </trkpt>
      <trkpt lat="44.10435" lon="7.40019">
        <ele>2240.49</ele>
        <time>2011-10-13T12:41:00Z</time>
      </trkpt>
      <trkpt lat="44.10435" lon="7.40019">
        <ele>2241.45</ele>
        <time>2011-10-13T12:41:20Z</time>
      </trkpt>
      <trkpt lat="44.10435" lon="7.40019">
        <ele>2241.45</ele>
        <time>2011-10-13T12:41:42Z</time>
      </trkpt>
      <trkpt lat="44.10435" lon="7.40019">
        <ele>2241.93</ele>
        <time>2011-10-13T12:41:55Z</time>
      </trkpt>
      <trkpt lat="44.10435" lon="7.4002">
        <ele>2240.01</ele>
        <time>2011-10-13T12:42:06Z</time>
      </trkpt>
      <trkpt lat="44.10435" lon="7.4002">
        <ele>2240.01</ele>
        <time>2011-10-13T12:42:40Z</time>
      </trkpt>
      <trkpt lat="44.10435" lon="7.40021">
        <ele>2240.49</ele>
        <time>2011-10-13T12:42:52Z</time>
      </trkpt>
      <trkpt lat="44.10436" lon="7.40021">
        <ele>2239.05</ele>
        <time>2011-10-13T12:43:17Z</time>
      </trkpt>
      <trkpt lat="44.10439" lon="7.40025">
        <ele>2240.49</ele>
        <time>2011-10-13T12:43:32Z</time>
      </trkpt>
      <trkpt lat="44.10439" lon="7.40026">
        <ele>2240.01</ele>
        <time>2011-10-13T12:43:33Z</time>
      </trkpt>
      <trkpt lat="44.1045" lon="7.40045">
        <ele>2238.57</ele>
        <time>2011-10-13T12:43:48Z</time>
      </trkpt>
      <trkpt lat="44.1045" lon="7.40052">
        <ele>2239.53</ele>
        <time>2011-10-13T12:44:01Z</time>
      </trkpt>
      <trkpt lat="44.1045" lon="7.40052">
        <ele>2240.01</ele>
        <time>2011-10-13T12:44:09Z</time>
      </trkpt>
      <trkpt lat="44.1045" lon="7.40052">
        <ele>2238.57</ele>
        <time>2011-10-13T12:44:17Z</time>
      </trkpt>
      <trkpt lat="44.1045" lon="7.40052">
        <ele>2239.53</ele>
        <time>2011-10-13T12:44:39Z</time>
      </trkpt>
      <trkpt lat="44.1045" lon="7.40052">
        <ele>2240.49</ele>
        <time>2011-10-13T12:44:57Z</time>
      </trkpt>
      <trkpt lat="44.1045" lon="7.40053">
        <ele>2239.05</ele>
        <time>2011-10-13T12:45:27Z</time>
      </trkpt>
      <trkpt lat="44.10449" lon="7.40053">
        <ele>2238.57</ele>
        <time>2011-10-13T12:45:44Z</time>
      </trkpt>
      <trkpt lat="44.10449" lon="7.40053">
        <ele>2239.05</ele>
        <time>2011-10-13T12:46:07Z</time>
      </trkpt>
      <trkpt lat="44.1045" lon="7.40053">
        <ele>2239.05</ele>
        <time>2011-10-13T12:46:25Z</time>
      </trkpt>
      <trkpt lat="44.1045" lon="7.40053">
        <ele>2238.09</ele>
        <time>2011-10-13T12:46:48Z</time>
      </trkpt>
      <trkpt lat="44.1045" lon="7.40051">
        <ele>2238.57</ele>
        <time>2011-10-13T12:46:55Z</time>
      </trkpt>
      <trkpt lat="44.1045" lon="7.40051">
        <ele>2238.57</ele>
        <time>2011-10-13T12:47:22Z</time>
      </trkpt>
      <trkpt lat="44.1045" lon="7.4005">
        <ele>2239.05</ele>
        <time>2011-10-13T12:47:48Z</time>
      </trkpt>
      <trkpt lat="44.1045" lon="7.4005">
        <ele>2239.53</ele>
        <time>2011-10-13T12:48:18Z</time>
      </trkpt>
      <trkpt lat="44.1045" lon="7.4005">
        <ele>2240.01</ele>
        <time>2011-10-13T12:48:47Z</time>
      </trkpt>
      <trkpt lat="44.1045" lon="7.40051">
        <ele>2239.53</ele>
        <time>2011-10-13T12:49:14Z</time>
      </trkpt>
      <trkpt lat="44.10449" lon="7.40051">
        <ele>2239.53</ele>
        <time>2011-10-13T12:49:39Z</time>
      </trkpt>
      <trkpt lat="44.10449" lon="7.40051">
        <ele>2238.57</ele>
        <time>2011-10-13T12:50:06Z</time>
      </trkpt>
      <trkpt lat="44.10448" lon="7.40051">
        <ele>2240.49</ele>
        <time>2011-10-13T12:50:32Z</time>
      </trkpt>
      <trkpt lat="44.10448" lon="7.40051">
        <ele>2237.13</ele>
        <time>2011-10-13T12:50:46Z</time>
      </trkpt>
      <trkpt lat="44.10448" lon="7.40051">
        <ele>2239.05</ele>
        <time>2011-10-13T12:50:49Z</time>
      </trkpt>
      <trkpt lat="44.10448" lon="7.40051">
        <ele>2239.53</ele>
        <time>2011-10-13T12:51:24Z</time>
      </trkpt>
      <trkpt lat="44.10448" lon="7.40051">
        <ele>2238.09</ele>
        <time>2011-10-13T12:51:49Z</time>
      </trkpt>
      <trkpt lat="44.10447" lon="7.40052">
        <ele>2238.57</ele>
        <time>2011-10-13T12:51:59Z</time>
      </trkpt>
      <trkpt lat="44.10447" lon="7.40052">
        <ele>2236.64</ele>
        <time>2011-10-13T12:52:15Z</time>
      </trkpt>
      <trkpt lat="44.10447" lon="7.40052">
        <ele>2235.68</ele>
        <time>2011-10-13T12:52:35Z</time>
      </trkpt>
      <trkpt lat="44.10447" lon="7.40052">
        <ele>2239.05</ele>
        <time>2011-10-13T12:52:51Z</time>
      </trkpt>
      <trkpt lat="44.10447" lon="7.40052">
        <ele>2238.09</ele>
        <time>2011-10-13T12:53:22Z</time>
      </trkpt>
      <trkpt lat="44.10447" lon="7.40052">
        <ele>2239.05</ele>
        <time>2011-10-13T12:53:42Z</time>
      </trkpt>
      <trkpt lat="44.10447" lon="7.40053">
        <ele>2240.49</ele>
        <time>2011-10-13T12:54:09Z</time>
      </trkpt>
      <trkpt lat="44.10447" lon="7.40053">
        <ele>2240.49</ele>
        <time>2011-10-13T12:54:37Z</time>
      </trkpt>
      <trkpt lat="44.10447" lon="7.40053">
        <ele>2237.61</ele>
        <time>2011-10-13T12:54:51Z</time>
      </trkpt>
      <trkpt lat="44.10447" lon="7.40053">
        <ele>2239.05</ele>
        <time>2011-10-13T12:55:14Z</time>
      </trkpt>
      <trkpt lat="44.10447" lon="7.40053">
        <ele>2240.49</ele>
        <time>2011-10-13T12:55:41Z</time>
      </trkpt>
      <trkpt lat="44.10446" lon="7.40053">
        <ele>2239.05</ele>
        <time>2011-10-13T12:56:06Z</time>
      </trkpt>
      <trkpt lat="44.1045" lon="7.40057">
        <ele>2238.57</ele>
        <time>2011-10-13T12:56:24Z</time>
      </trkpt>
      <trkpt lat="44.10452" lon="7.40058">
        <ele>2238.57</ele>
        <time>2011-10-13T12:56:27Z</time>
      </trkpt>
      <trkpt lat="44.10452" lon="7.40059">
        <ele>2238.09</ele>
        <time>2011-10-13T12:56:45Z</time>
      </trkpt>
      <trkpt lat="44.10453" lon="7.40061">
        <ele>2237.13</ele>
        <time>2011-10-13T12:57:03Z</time>
      </trkpt>
      <trkpt lat="44.10454" lon="7.40062">
        <ele>2239.53</ele>
        <time>2011-10-13T12:57:07Z</time>
      </trkpt>
      <trkpt lat="44.10456" lon="7.40063">
        <ele>2236.64</ele>
        <time>2011-10-13T12:57:09Z</time>
      </trkpt>
      <trkpt lat="44.10457" lon="7.40065">
        <ele>2235.2</ele>
        <time>2011-10-13T12:57:11Z</time>
      </trkpt>
      <trkpt lat="44.10459" lon="7.40064">
        <ele>2233.28</ele>
        <time>2011-10-13T12:57:14Z</time>
      </trkpt>
      <trkpt lat="44.10463" lon="7.40058">
        <ele>2231.36</ele>
        <time>2011-10-13T12:57:19Z</time>
      </trkpt>
      <trkpt lat="44.10463" lon="7.40052">
        <ele>2229.43</ele>
        <time>2011-10-13T12:57:25Z</time>
      </trkpt>
      <trkpt lat="44.10463" lon="7.40043">
        <ele>2228.47</ele>
        <time>2011-10-13T12:57:31Z</time>
      </trkpt>
      <trkpt lat="44.10468" lon="7.40047">
        <ele>2227.51</ele>
        <time>2011-10-13T12:57:38Z</time>
      </trkpt>
      <trkpt lat="44.10481" lon="7.4005">
        <ele>2224.63</ele>
        <time>2011-10-13T12:57:51Z</time>
      </trkpt>
      <trkpt lat="44.10489" lon="7.40052">
        <ele>2222.22</ele>
        <time>2011-10-13T12:57:58Z</time>
      </trkpt>
      <trkpt lat="44.10503" lon="7.40054">
        <ele>2219.82</ele>
        <time>2011-10-13T12:58:10Z</time>
      </trkpt>
      <trkpt lat="44.10505" lon="7.40055">
        <ele>2218.38</ele>
        <time>2011-10-13T12:58:13Z</time>
      </trkpt>
      <trkpt lat="44.10514" lon="7.40056">
        <ele>2215.5</ele>
        <time>2011-10-13T12:58:25Z</time>
      </trkpt>
      <trkpt lat="44.10513" lon="7.40055">
        <ele>2214.53</ele>
        <time>2011-10-13T12:58:26Z</time>
      </trkpt>
      <trkpt lat="44.10515" lon="7.40047">
        <ele>2213.57</ele>
        <time>2011-10-13T12:58:33Z</time>
      </trkpt>
      <trkpt lat="44.1053" lon="7.4004">
        <ele>2213.57</ele>
        <time>2011-10-13T12:58:43Z</time>
      </trkpt>
      <trkpt lat="44.10529" lon="7.40032">
        <ele>2213.57</ele>
        <time>2011-10-13T12:58:49Z</time>
      </trkpt>
      <trkpt lat="44.10509" lon="7.40003">
        <ele>2214.53</ele>
        <time>2011-10-13T12:59:07Z</time>
      </trkpt>
      <trkpt lat="44.10509" lon="7.40003">
        <ele>2215.5</ele>
        <time>2011-10-13T12:59:08Z</time>
      </trkpt>
      <trkpt lat="44.10508" lon="7.4">
        <ele>2216.46</ele>
        <time>2011-10-13T12:59:12Z</time>
      </trkpt>
      <trkpt lat="44.10498" lon="7.39975">
        <ele>2213.57</ele>
        <time>2011-10-13T12:59:28Z</time>
      </trkpt>
      <trkpt lat="44.10497" lon="7.3995">
        <ele>2211.65</ele>
        <time>2011-10-13T12:59:44Z</time>
      </trkpt>
      <trkpt lat="44.10498" lon="7.39948">
        <ele>2211.65</ele>
        <time>2011-10-13T12:59:45Z</time>
      </trkpt>
      <trkpt lat="44.105" lon="7.39941">
        <ele>2212.61</ele>
        <time>2011-10-13T12:59:51Z</time>
      </trkpt>
      <trkpt lat="44.10501" lon="7.39915">
        <ele>2212.13</ele>
        <time>2011-10-13T13:00:07Z</time>
      </trkpt>
      <trkpt lat="44.10498" lon="7.39899">
        <ele>2212.13</ele>
        <time>2011-10-13T13:00:19Z</time>
      </trkpt>
      <trkpt lat="44.10488" lon="7.39877">
        <ele>2212.61</ele>
        <time>2011-10-13T13:00:36Z</time>
      </trkpt>
      <trkpt lat="44.10485" lon="7.39866">
        <ele>2211.17</ele>
        <time>2011-10-13T13:00:45Z</time>
      </trkpt>
      <trkpt lat="44.10483" lon="7.39859">
        <ele>2210.69</ele>
        <time>2011-10-13T13:00:53Z</time>
      </trkpt>
      <trkpt lat="44.10477" lon="7.39841">
        <ele>2213.57</ele>
        <time>2011-10-13T13:01:07Z</time>
      </trkpt>
      <trkpt lat="44.10478" lon="7.39834">
        <ele>2214.53</ele>
        <time>2011-10-13T13:01:13Z</time>
      </trkpt>
      <trkpt lat="44.10474" lon="7.39815">
        <ele>2215.01</ele>
        <time>2011-10-13T13:01:27Z</time>
      </trkpt>
      <trkpt lat="44.10471" lon="7.39806">
        <ele>2216.94</ele>
        <time>2011-10-13T13:01:33Z</time>
      </trkpt>
      <trkpt lat="44.10471" lon="7.39784">
        <ele>2215.5</ele>
        <time>2011-10-13T13:01:49Z</time>
      </trkpt>
      <trkpt lat="44.10471" lon="7.39762">
        <ele>2213.57</ele>
        <time>2011-10-13T13:02:03Z</time>
      </trkpt>
      <trkpt lat="44.10468" lon="7.39742">
        <ele>2212.13</ele>
        <time>2011-10-13T13:02:17Z</time>
      </trkpt>
      <trkpt lat="44.10468" lon="7.3974">
        <ele>2212.61</ele>
        <time>2011-10-13T13:02:19Z</time>
      </trkpt>
      <trkpt lat="44.10465" lon="7.39734">
        <ele>2210.69</ele>
        <time>2011-10-13T13:02:25Z</time>
      </trkpt>
      <trkpt lat="44.10456" lon="7.39733">
        <ele>2212.13</ele>
        <time>2011-10-13T13:02:34Z</time>
      </trkpt>
      <trkpt lat="44.10453" lon="7.3973">
        <ele>2212.13</ele>
        <time>2011-10-13T13:02:37Z</time>
      </trkpt>
      <trkpt lat="44.10453" lon="7.39721">
        <ele>2212.13</ele>
        <time>2011-10-13T13:02:43Z</time>
      </trkpt>
      <trkpt lat="44.10452" lon="7.39716">
        <ele>2212.13</ele>
        <time>2011-10-13T13:02:47Z</time>
      </trkpt>
      <trkpt lat="44.10449" lon="7.39693">
        <ele>2212.61</ele>
        <time>2011-10-13T13:03:03Z</time>
      </trkpt>
      <trkpt lat="44.10446" lon="7.39678">
        <ele>2213.09</ele>
        <time>2011-10-13T13:03:17Z</time>
      </trkpt>
      <trkpt lat="44.10443" lon="7.39675">
        <ele>2213.09</ele>
        <time>2011-10-13T13:03:21Z</time>
      </trkpt>
      <trkpt lat="44.10436" lon="7.39664">
        <ele>2212.61</ele>
        <time>2011-10-13T13:03:32Z</time>
      </trkpt>
      <trkpt lat="44.10424" lon="7.39649">
        <ele>2213.09</ele>
        <time>2011-10-13T13:03:47Z</time>
      </trkpt>
      <trkpt lat="44.10416" lon="7.39644">
        <ele>2214.53</ele>
        <time>2011-10-13T13:03:58Z</time>
      </trkpt>
      <trkpt lat="44.104" lon="7.39641">
        <ele>2212.61</ele>
        <time>2011-10-13T13:04:13Z</time>
      </trkpt>
      <trkpt lat="44.104" lon="7.39641">
        <ele>2213.09</ele>
        <time>2011-10-13T13:04:14Z</time>
      </trkpt>
      <trkpt lat="44.10393" lon="7.39637">
        <ele>2212.13</ele>
        <time>2011-10-13T13:04:21Z</time>
      </trkpt>
      <trkpt lat="44.10382" lon="7.39628">
        <ele>2211.65</ele>
        <time>2011-10-13T13:04:33Z</time>
      </trkpt>
      <trkpt lat="44.1038" lon="7.39625">
        <ele>2211.65</ele>
        <time>2011-10-13T13:04:35Z</time>
      </trkpt>
      <trkpt lat="44.10367" lon="7.3962">
        <ele>2212.13</ele>
        <time>2011-10-13T13:04:50Z</time>
      </trkpt>
      <trkpt lat="44.10365" lon="7.39622">
        <ele>2212.13</ele>
        <time>2011-10-13T13:04:53Z</time>
      </trkpt>
      <trkpt lat="44.10354" lon="7.39624">
        <ele>2211.65</ele>
        <time>2011-10-13T13:05:07Z</time>
      </trkpt>
      <trkpt lat="44.10346" lon="7.39625">
        <ele>2211.65</ele>
        <time>2011-10-13T13:05:16Z</time>
      </trkpt>
      <trkpt lat="44.10342" lon="7.39624">
        <ele>2211.17</ele>
        <time>2011-10-13T13:05:19Z</time>
      </trkpt>
      <trkpt lat="44.10328" lon="7.39623">
        <ele>2211.65</ele>
        <time>2011-10-13T13:05:34Z</time>
      </trkpt>
      <trkpt lat="44.1032" lon="7.39619">
        <ele>2211.17</ele>
        <time>2011-10-13T13:05:44Z</time>
      </trkpt>
      <trkpt lat="44.10306" lon="7.39614">
        <ele>2210.69</ele>
        <time>2011-10-13T13:05:58Z</time>
      </trkpt>
      <trkpt lat="44.10295" lon="7.39609">
        <ele>2211.65</ele>
        <time>2011-10-13T13:06:10Z</time>
      </trkpt>
      <trkpt lat="44.10289" lon="7.39607">
        <ele>2211.65</ele>
        <time>2011-10-13T13:06:17Z</time>
      </trkpt>
      <trkpt lat="44.10274" lon="7.39604">
        <ele>2211.17</ele>
        <time>2011-10-13T13:06:31Z</time>
      </trkpt>
      <trkpt lat="44.1026" lon="7.39595">
        <ele>2209.25</ele>
        <time>2011-10-13T13:06:45Z</time>
      </trkpt>
      <trkpt lat="44.10258" lon="7.39593">
        <ele>2209.73</ele>
        <time>2011-10-13T13:06:47Z</time>
      </trkpt>
      <trkpt lat="44.10244" lon="7.39585">
        <ele>2209.25</ele>
        <time>2011-10-13T13:07:02Z</time>
      </trkpt>
      <trkpt lat="44.10243" lon="7.39585">
        <ele>2209.73</ele>
        <time>2011-10-13T13:07:03Z</time>
      </trkpt>
      <trkpt lat="44.10234" lon="7.39584">
        <ele>2209.25</ele>
        <time>2011-10-13T13:07:10Z</time>
      </trkpt>
      <trkpt lat="44.10229" lon="7.39587">
        <ele>2208.77</ele>
        <time>2011-10-13T13:07:15Z</time>
      </trkpt>
      <trkpt lat="44.1022" lon="7.39595">
        <ele>2207.81</ele>
        <time>2011-10-13T13:07:25Z</time>
      </trkpt>
      <trkpt lat="44.10217" lon="7.39598">
        <ele>2207.32</ele>
        <time>2011-10-13T13:07:28Z</time>
      </trkpt>
      <trkpt lat="44.10213" lon="7.39599">
        <ele>2207.81</ele>
        <time>2011-10-13T13:07:31Z</time>
      </trkpt>
      <trkpt lat="44.10204" lon="7.39598">
        <ele>2208.29</ele>
        <time>2011-10-13T13:07:39Z</time>
      </trkpt>
      <trkpt lat="44.10191" lon="7.396">
        <ele>2210.21</ele>
        <time>2011-10-13T13:07:53Z</time>
      </trkpt>
      <trkpt lat="44.10186" lon="7.396">
        <ele>2210.69</ele>
        <time>2011-10-13T13:07:58Z</time>
      </trkpt>
      <trkpt lat="44.10183" lon="7.39601">
        <ele>2210.69</ele>
        <time>2011-10-13T13:08:00Z</time>
      </trkpt>
      <trkpt lat="44.10176" lon="7.39606">
        <ele>2211.65</ele>
        <time>2011-10-13T13:08:06Z</time>
      </trkpt>
      <trkpt lat="44.10162" lon="7.3961">
        <ele>2213.09</ele>
        <time>2011-10-13T13:08:21Z</time>
      </trkpt>
      <trkpt lat="44.10159" lon="7.39611">
        <ele>2213.57</ele>
        <time>2011-10-13T13:08:23Z</time>
      </trkpt>
      <trkpt lat="44.10146" lon="7.3961">
        <ele>2215.01</ele>
        <time>2011-10-13T13:08:35Z</time>
      </trkpt>
      <trkpt lat="44.10132" lon="7.39609">
        <ele>2214.53</ele>
        <time>2011-10-13T13:08:48Z</time>
      </trkpt>
      <trkpt lat="44.10128" lon="7.39609">
        <ele>2215.01</ele>
        <time>2011-10-13T13:08:52Z</time>
      </trkpt>
      <trkpt lat="44.10117" lon="7.39611">
        <ele>2214.05</ele>
        <time>2011-10-13T13:09:01Z</time>
      </trkpt>
      <trkpt lat="44.10105" lon="7.3962">
        <ele>2214.05</ele>
        <time>2011-10-13T13:09:11Z</time>
      </trkpt>
      <trkpt lat="44.1009" lon="7.39637">
        <ele>2213.09</ele>
        <time>2011-10-13T13:09:28Z</time>
      </trkpt>
      <trkpt lat="44.10086" lon="7.39639">
        <ele>2213.57</ele>
        <time>2011-10-13T13:09:32Z</time>
      </trkpt>
      <trkpt lat="44.10081" lon="7.39636">
        <ele>2214.05</ele>
        <time>2011-10-13T13:09:37Z</time>
      </trkpt>
      <trkpt lat="44.10078" lon="7.39635">
        <ele>2213.09</ele>
        <time>2011-10-13T13:09:39Z</time>
      </trkpt>
      <trkpt lat="44.1007" lon="7.39634">
        <ele>2212.13</ele>
        <time>2011-10-13T13:09:46Z</time>
      </trkpt>
      <trkpt lat="44.10051" lon="7.3964">
        <ele>2210.21</ele>
        <time>2011-10-13T13:10:01Z</time>
      </trkpt>
      <trkpt lat="44.10049" lon="7.39641">
        <ele>2209.73</ele>
        <time>2011-10-13T13:10:13Z</time>
      </trkpt>
      <trkpt lat="44.10048" lon="7.39647">
        <ele>2209.25</ele>
        <time>2011-10-13T13:10:19Z</time>
      </trkpt>
      <trkpt lat="44.10043" lon="7.39642">
        <ele>2209.73</ele>
        <time>2011-10-13T13:10:24Z</time>
      </trkpt>
      <trkpt lat="44.10041" lon="7.39639">
        <ele>2209.73</ele>
        <time>2011-10-13T13:10:26Z</time>
      </trkpt>
      <trkpt lat="44.10038" lon="7.39639">
        <ele>2207.81</ele>
        <time>2011-10-13T13:10:30Z</time>
      </trkpt>
      <trkpt lat="44.1003" lon="7.39638">
        <ele>2207.32</ele>
        <time>2011-10-13T13:10:45Z</time>
      </trkpt>
      <trkpt lat="44.10023" lon="7.39635">
        <ele>2205.88</ele>
        <time>2011-10-13T13:10:59Z</time>
      </trkpt>
      <trkpt lat="44.1002" lon="7.39633">
        <ele>2203.96</ele>
        <time>2011-10-13T13:11:12Z</time>
      </trkpt>
      <trkpt lat="44.1001" lon="7.39634">
        <ele>2203.96</ele>
        <time>2011-10-13T13:11:32Z</time>
      </trkpt>
      <trkpt lat="44.10005" lon="7.39639">
        <ele>2204.92</ele>
        <time>2011-10-13T13:11:37Z</time>
      </trkpt>
      <trkpt lat="44.10001" lon="7.39641">
        <ele>2203.48</ele>
        <time>2011-10-13T13:11:41Z</time>
      </trkpt>
      <trkpt lat="44.10001" lon="7.39641">
        <ele>2205.88</ele>
        <time>2011-10-13T13:11:44Z</time>
      </trkpt>
      <trkpt lat="44.09999" lon="7.39644">
        <ele>2203</ele>
        <time>2011-10-13T13:11:50Z</time>
      </trkpt>
      <trkpt lat="44.09993" lon="7.39645">
        <ele>2202.52</ele>
        <time>2011-10-13T13:11:56Z</time>
      </trkpt>
      <trkpt lat="44.09985" lon="7.39641">
        <ele>2199.63</ele>
        <time>2011-10-13T13:12:10Z</time>
      </trkpt>
      <trkpt lat="44.09985" lon="7.39641">
        <ele>2200.11</ele>
        <time>2011-10-13T13:12:13Z</time>
      </trkpt>
      <trkpt lat="44.09972" lon="7.39643">
        <ele>2199.15</ele>
        <time>2011-10-13T13:12:24Z</time>
      </trkpt>
      <trkpt lat="44.09959" lon="7.39641">
        <ele>2199.63</ele>
        <time>2011-10-13T13:12:35Z</time>
      </trkpt>
      <trkpt lat="44.09954" lon="7.3964">
        <ele>2196.75</ele>
        <time>2011-10-13T13:12:39Z</time>
      </trkpt>
      <trkpt lat="44.09953" lon="7.3964">
        <ele>2196.27</ele>
        <time>2011-10-13T13:12:40Z</time>
      </trkpt>
      <trkpt lat="44.09951" lon="7.39645">
        <ele>2198.19</ele>
        <time>2011-10-13T13:12:44Z</time>
      </trkpt>
      <trkpt lat="44.0995" lon="7.39646">
        <ele>2198.67</ele>
        <time>2011-10-13T13:12:45Z</time>
      </trkpt>
      <trkpt lat="44.09948" lon="7.39647">
        <ele>2196.27</ele>
        <time>2011-10-13T13:12:48Z</time>
      </trkpt>
      <trkpt lat="44.09947" lon="7.39646">
        <ele>2195.79</ele>
        <time>2011-10-13T13:12:49Z</time>
      </trkpt>
      <trkpt lat="44.09942" lon="7.39643">
        <ele>2195.79</ele>
        <time>2011-10-13T13:12:54Z</time>
      </trkpt>
      <trkpt lat="44.0994" lon="7.39645">
        <ele>2190.02</ele>
        <time>2011-10-13T13:12:57Z</time>
      </trkpt>
      <trkpt lat="44.0994" lon="7.39648">
        <ele>2190.02</ele>
        <time>2011-10-13T13:12:58Z</time>
      </trkpt>
      <trkpt lat="44.09943" lon="7.39653">
        <ele>2190.02</ele>
        <time>2011-10-13T13:13:01Z</time>
      </trkpt>
      <trkpt lat="44.09945" lon="7.39657">
        <ele>2188.58</ele>
        <time>2011-10-13T13:13:04Z</time>
      </trkpt>
      <trkpt lat="44.09948" lon="7.39662">
        <ele>2192.42</ele>
        <time>2011-10-13T13:13:10Z</time>
      </trkpt>
      <trkpt lat="44.09948" lon="7.39662">
        <ele>2191.94</ele>
        <time>2011-10-13T13:13:11Z</time>
      </trkpt>
      <trkpt lat="44.09941" lon="7.39668">
        <ele>2189.06</ele>
        <time>2011-10-13T13:13:19Z</time>
      </trkpt>
      <trkpt lat="44.09945" lon="7.3967">
        <ele>2186.18</ele>
        <time>2011-10-13T13:13:26Z</time>
      </trkpt>
      <trkpt lat="44.09948" lon="7.39672">
        <ele>2185.21</ele>
        <time>2011-10-13T13:13:30Z</time>
      </trkpt>
      <trkpt lat="44.09942" lon="7.39683">
        <ele>2183.29</ele>
        <time>2011-10-13T13:13:42Z</time>
      </trkpt>
      <trkpt lat="44.09936" lon="7.39686">
        <ele>2182.81</ele>
        <time>2011-10-13T13:13:51Z</time>
      </trkpt>
      <trkpt lat="44.09934" lon="7.39688">
        <ele>2181.37</ele>
        <time>2011-10-13T13:13:53Z</time>
      </trkpt>
      <trkpt lat="44.0993" lon="7.39689">
        <ele>2181.85</ele>
        <time>2011-10-13T13:13:57Z</time>
      </trkpt>
      <trkpt lat="44.09928" lon="7.39696">
        <ele>2180.41</ele>
        <time>2011-10-13T13:14:02Z</time>
      </trkpt>
      <trkpt lat="44.09924" lon="7.39698">
        <ele>2179.93</ele>
        <time>2011-10-13T13:14:13Z</time>
      </trkpt>
      <trkpt lat="44.09918" lon="7.397">
        <ele>2178.97</ele>
        <time>2011-10-13T13:14:19Z</time>
      </trkpt>
      <trkpt lat="44.09912" lon="7.39696">
        <ele>2178.48</ele>
        <time>2011-10-13T13:14:25Z</time>
      </trkpt>
      <trkpt lat="44.09905" lon="7.39701">
        <ele>2178</ele>
        <time>2011-10-13T13:14:32Z</time>
      </trkpt>
      <trkpt lat="44.09899" lon="7.39697">
        <ele>2176.08</ele>
        <time>2011-10-13T13:14:40Z</time>
      </trkpt>
      <trkpt lat="44.09895" lon="7.39676">
        <ele>2174.16</ele>
        <time>2011-10-13T13:14:53Z</time>
      </trkpt>
      <trkpt lat="44.09886" lon="7.39655">
        <ele>2171.27</ele>
        <time>2011-10-13T13:15:09Z</time>
      </trkpt>
      <trkpt lat="44.09883" lon="7.39637">
        <ele>2168.87</ele>
        <time>2011-10-13T13:15:24Z</time>
      </trkpt>
      <trkpt lat="44.09881" lon="7.39624">
        <ele>2168.39</ele>
        <time>2011-10-13T13:15:35Z</time>
      </trkpt>
      <trkpt lat="44.09885" lon="7.39604">
        <ele>2166.95</ele>
        <time>2011-10-13T13:15:51Z</time>
      </trkpt>
      <trkpt lat="44.09883" lon="7.396">
        <ele>2166.47</ele>
        <time>2011-10-13T13:15:57Z</time>
      </trkpt>
      <trkpt lat="44.09875" lon="7.39589">
        <ele>2165.03</ele>
        <time>2011-10-13T13:16:10Z</time>
      </trkpt>
      <trkpt lat="44.09872" lon="7.3958">
        <ele>2165.03</ele>
        <time>2011-10-13T13:16:22Z</time>
      </trkpt>
      <trkpt lat="44.09864" lon="7.39577">
        <ele>2163.1</ele>
        <time>2011-10-13T13:16:36Z</time>
      </trkpt>
      <trkpt lat="44.09865" lon="7.39588">
        <ele>2160.7</ele>
        <time>2011-10-13T13:16:50Z</time>
      </trkpt>
      <trkpt lat="44.09859" lon="7.39581">
        <ele>2157.82</ele>
        <time>2011-10-13T13:17:01Z</time>
      </trkpt>
      <trkpt lat="44.09856" lon="7.39583">
        <ele>2153.97</ele>
        <time>2011-10-13T13:17:07Z</time>
      </trkpt>
      <trkpt lat="44.09856" lon="7.39583">
        <ele>2154.45</ele>
        <time>2011-10-13T13:17:08Z</time>
      </trkpt>
      <trkpt lat="44.09856" lon="7.39584">
        <ele>2155.41</ele>
        <time>2011-10-13T13:17:09Z</time>
      </trkpt>
      <trkpt lat="44.09849" lon="7.39581">
        <ele>2153.97</ele>
        <time>2011-10-13T13:17:21Z</time>
      </trkpt>
      <trkpt lat="44.09847" lon="7.39579">
        <ele>2153.01</ele>
        <time>2011-10-13T13:17:24Z</time>
      </trkpt>
      <trkpt lat="44.09846" lon="7.39578">
        <ele>2152.53</ele>
        <time>2011-10-13T13:17:26Z</time>
      </trkpt>
      <trkpt lat="44.09844" lon="7.39574">
        <ele>2152.05</ele>
        <time>2011-10-13T13:17:29Z</time>
      </trkpt>
      <trkpt lat="44.09835" lon="7.39566">
        <ele>2150.13</ele>
        <time>2011-10-13T13:17:43Z</time>
      </trkpt>
      <trkpt lat="44.09826" lon="7.39556">
        <ele>2147.24</ele>
        <time>2011-10-13T13:17:56Z</time>
      </trkpt>
      <trkpt lat="44.09825" lon="7.39555">
        <ele>2147.24</ele>
        <time>2011-10-13T13:17:59Z</time>
      </trkpt>
      <trkpt lat="44.09817" lon="7.39548">
        <ele>2148.2</ele>
        <time>2011-10-13T13:18:11Z</time>
      </trkpt>
      <trkpt lat="44.09813" lon="7.39548">
        <ele>2147.24</ele>
        <time>2011-10-13T13:18:16Z</time>
      </trkpt>
      <trkpt lat="44.09808" lon="7.39552">
        <ele>2146.76</ele>
        <time>2011-10-13T13:18:24Z</time>
      </trkpt>
      <trkpt lat="44.09806" lon="7.39551">
        <ele>2145.8</ele>
        <time>2011-10-13T13:18:26Z</time>
      </trkpt>
      <trkpt lat="44.09802" lon="7.39547">
        <ele>2146.28</ele>
        <time>2011-10-13T13:18:32Z</time>
      </trkpt>
      <trkpt lat="44.09789" lon="7.39545">
        <ele>2144.84</ele>
        <time>2011-10-13T13:18:47Z</time>
      </trkpt>
      <trkpt lat="44.09779" lon="7.39543">
        <ele>2142.92</ele>
        <time>2011-10-13T13:19:00Z</time>
      </trkpt>
      <trkpt lat="44.09775" lon="7.39543">
        <ele>2141.95</ele>
        <time>2011-10-13T13:19:04Z</time>
      </trkpt>
      <trkpt lat="44.09771" lon="7.39546">
        <ele>2141.47</ele>
        <time>2011-10-13T13:19:08Z</time>
      </trkpt>
      <trkpt lat="44.09761" lon="7.39546">
        <ele>2141.95</ele>
        <time>2011-10-13T13:19:22Z</time>
      </trkpt>
      <trkpt lat="44.09757" lon="7.3955">
        <ele>2140.03</ele>
        <time>2011-10-13T13:19:34Z</time>
      </trkpt>
      <trkpt lat="44.09748" lon="7.39551">
        <ele>2140.51</ele>
        <time>2011-10-13T13:19:47Z</time>
      </trkpt>
      <trkpt lat="44.09737" lon="7.39555">
        <ele>2140.03</ele>
        <time>2011-10-13T13:20:00Z</time>
      </trkpt>
      <trkpt lat="44.09734" lon="7.39558">
        <ele>2138.59</ele>
        <time>2011-10-13T13:20:04Z</time>
      </trkpt>
      <trkpt lat="44.09718" lon="7.39558">
        <ele>2138.59</ele>
        <time>2011-10-13T13:20:19Z</time>
      </trkpt>
      <trkpt lat="44.09717" lon="7.39557">
        <ele>2138.11</ele>
        <time>2011-10-13T13:20:20Z</time>
      </trkpt>
      <trkpt lat="44.09695" lon="7.39556">
        <ele>2137.63</ele>
        <time>2011-10-13T13:20:38Z</time>
      </trkpt>
      <trkpt lat="44.0969" lon="7.39555">
        <ele>2139.07</ele>
        <time>2011-10-13T13:20:44Z</time>
      </trkpt>
      <trkpt lat="44.09685" lon="7.39556">
        <ele>2138.59</ele>
        <time>2011-10-13T13:20:48Z</time>
      </trkpt>
      <trkpt lat="44.09683" lon="7.39558">
        <ele>2139.55</ele>
        <time>2011-10-13T13:20:50Z</time>
      </trkpt>
      <trkpt lat="44.09679" lon="7.39559">
        <ele>2140.99</ele>
        <time>2011-10-13T13:20:53Z</time>
      </trkpt>
      <trkpt lat="44.09672" lon="7.39559">
        <ele>2139.07</ele>
        <time>2011-10-13T13:20:59Z</time>
      </trkpt>
      <trkpt lat="44.09657" lon="7.39558">
        <ele>2136.67</ele>
        <time>2011-10-13T13:21:14Z</time>
      </trkpt>
      <trkpt lat="44.09641" lon="7.39558">
        <ele>2136.19</ele>
        <time>2011-10-13T13:21:27Z</time>
      </trkpt>
      <trkpt lat="44.09622" lon="7.39555">
        <ele>2135.23</ele>
        <time>2011-10-13T13:21:42Z</time>
      </trkpt>
      <trkpt lat="44.09617" lon="7.39554">
        <ele>2134.74</ele>
        <time>2011-10-13T13:21:47Z</time>
      </trkpt>
      <trkpt lat="44.09603" lon="7.3955">
        <ele>2133.78</ele>
        <time>2011-10-13T13:22:01Z</time>
      </trkpt>
      <trkpt lat="44.09589" lon="7.39546">
        <ele>2132.34</ele>
        <time>2011-10-13T13:22:14Z</time>
      </trkpt>
      <trkpt lat="44.09587" lon="7.39545">
        <ele>2132.34</ele>
        <time>2011-10-13T13:22:17Z</time>
      </trkpt>
      <trkpt lat="44.09582" lon="7.39547">
        <ele>2132.34</ele>
        <time>2011-10-13T13:22:22Z</time>
      </trkpt>
      <trkpt lat="44.0958" lon="7.3955">
        <ele>2132.34</ele>
        <time>2011-10-13T13:22:25Z</time>
      </trkpt>
      <trkpt lat="44.09573" lon="7.39552">
        <ele>2131.86</ele>
        <time>2011-10-13T13:22:34Z</time>
      </trkpt>
      <trkpt lat="44.0957" lon="7.39563">
        <ele>2131.86</ele>
        <time>2011-10-13T13:22:43Z</time>
      </trkpt>
      <trkpt lat="44.09564" lon="7.39571">
        <ele>2132.34</ele>
        <time>2011-10-13T13:22:50Z</time>
      </trkpt>
      <trkpt lat="44.0955" lon="7.39566">
        <ele>2132.82</ele>
        <time>2011-10-13T13:23:04Z</time>
      </trkpt>
      <trkpt lat="44.09539" lon="7.39563">
        <ele>2132.34</ele>
        <time>2011-10-13T13:23:18Z</time>
      </trkpt>
      <trkpt lat="44.09538" lon="7.39563">
        <ele>2132.34</ele>
        <time>2011-10-13T13:23:19Z</time>
      </trkpt>
      <trkpt lat="44.09528" lon="7.39555">
        <ele>2134.74</ele>
        <time>2011-10-13T13:23:33Z</time>
      </trkpt>
      <trkpt lat="44.09518" lon="7.39544">
        <ele>2136.19</ele>
        <time>2011-10-13T13:23:46Z</time>
      </trkpt>
      <trkpt lat="44.09513" lon="7.39544">
        <ele>2135.71</ele>
        <time>2011-10-13T13:23:51Z</time>
      </trkpt>
      <trkpt lat="44.0951" lon="7.39544">
        <ele>2134.26</ele>
        <time>2011-10-13T13:23:55Z</time>
      </trkpt>
      <trkpt lat="44.09503" lon="7.39539">
        <ele>2135.23</ele>
        <time>2011-10-13T13:24:04Z</time>
      </trkpt>
      <trkpt lat="44.09497" lon="7.39537">
        <ele>2136.19</ele>
        <time>2011-10-13T13:24:09Z</time>
      </trkpt>
      <trkpt lat="44.09493" lon="7.39535">
        <ele>2137.63</ele>
        <time>2011-10-13T13:24:14Z</time>
      </trkpt>
      <trkpt lat="44.09481" lon="7.3954">
        <ele>2136.67</ele>
        <time>2011-10-13T13:24:24Z</time>
      </trkpt>
      <trkpt lat="44.09473" lon="7.39533">
        <ele>2135.23</ele>
        <time>2011-10-13T13:24:34Z</time>
      </trkpt>
      <trkpt lat="44.09472" lon="7.39533">
        <ele>2135.23</ele>
        <time>2011-10-13T13:24:36Z</time>
      </trkpt>
      <trkpt lat="44.09464" lon="7.39533">
        <ele>2135.23</ele>
        <time>2011-10-13T13:24:45Z</time>
      </trkpt>
      <trkpt lat="44.09457" lon="7.39536">
        <ele>2134.74</ele>
        <time>2011-10-13T13:24:51Z</time>
      </trkpt>
      <trkpt lat="44.09444" lon="7.39529">
        <ele>2136.67</ele>
        <time>2011-10-13T13:25:07Z</time>
      </trkpt>
      <trkpt lat="44.09435" lon="7.39529">
        <ele>2135.23</ele>
        <time>2011-10-13T13:25:16Z</time>
      </trkpt>
      <trkpt lat="44.09431" lon="7.3953">
        <ele>2134.74</ele>
        <time>2011-10-13T13:25:20Z</time>
      </trkpt>
      <trkpt lat="44.09426" lon="7.3953">
        <ele>2134.74</ele>
        <time>2011-10-13T13:25:25Z</time>
      </trkpt>
      <trkpt lat="44.09417" lon="7.39533">
        <ele>2132.82</ele>
        <time>2011-10-13T13:25:33Z</time>
      </trkpt>
      <trkpt lat="44.09405" lon="7.39533">
        <ele>2131.86</ele>
        <time>2011-10-13T13:25:47Z</time>
      </trkpt>
      <trkpt lat="44.09398" lon="7.39536">
        <ele>2130.9</ele>
        <time>2011-10-13T13:25:56Z</time>
      </trkpt>
      <trkpt lat="44.09395" lon="7.39534">
        <ele>2131.38</ele>
        <time>2011-10-13T13:25:59Z</time>
      </trkpt>
      <trkpt lat="44.09378" lon="7.3953">
        <ele>2131.86</ele>
        <time>2011-10-13T13:26:17Z</time>
      </trkpt>
      <trkpt lat="44.0937" lon="7.39528">
        <ele>2132.34</ele>
        <time>2011-10-13T13:26:24Z</time>
      </trkpt>
      <trkpt lat="44.09361" lon="7.39522">
        <ele>2130.9</ele>
        <time>2011-10-13T13:26:34Z</time>
      </trkpt>
      <trkpt lat="44.09355" lon="7.39517">
        <ele>2131.86</ele>
        <time>2011-10-13T13:26:41Z</time>
      </trkpt>
      <trkpt lat="44.09342" lon="7.39515">
        <ele>2131.38</ele>
        <time>2011-10-13T13:26:55Z</time>
      </trkpt>
      <trkpt lat="44.09338" lon="7.39515">
        <ele>2131.38</ele>
        <time>2011-10-13T13:26:59Z</time>
      </trkpt>
      <trkpt lat="44.09326" lon="7.39523">
        <ele>2131.38</ele>
        <time>2011-10-13T13:27:12Z</time>
      </trkpt>
      <trkpt lat="44.09322" lon="7.39525">
        <ele>2132.34</ele>
        <time>2011-10-13T13:27:17Z</time>
      </trkpt>
      <trkpt lat="44.09314" lon="7.3953">
        <ele>2132.82</ele>
        <time>2011-10-13T13:27:29Z</time>
      </trkpt>
      <trkpt lat="44.09304" lon="7.39536">
        <ele>2134.74</ele>
        <time>2011-10-13T13:27:43Z</time>
      </trkpt>
      <trkpt lat="44.09295" lon="7.39542">
        <ele>2135.71</ele>
        <time>2011-10-13T13:27:55Z</time>
      </trkpt>
      <trkpt lat="44.0929" lon="7.39544">
        <ele>2136.19</ele>
        <time>2011-10-13T13:28:04Z</time>
      </trkpt>
      <trkpt lat="44.09278" lon="7.39548">
        <ele>2138.11</ele>
        <time>2011-10-13T13:28:18Z</time>
      </trkpt>
      <trkpt lat="44.09267" lon="7.39549">
        <ele>2135.71</ele>
        <time>2011-10-13T13:28:32Z</time>
      </trkpt>
      <trkpt lat="44.09267" lon="7.3955">
        <ele>2134.26</ele>
        <time>2011-10-13T13:28:35Z</time>
      </trkpt>
      <trkpt lat="44.09261" lon="7.39559">
        <ele>2133.3</ele>
        <time>2011-10-13T13:28:48Z</time>
      </trkpt>
      <trkpt lat="44.0926" lon="7.39561">
        <ele>2132.82</ele>
        <time>2011-10-13T13:28:50Z</time>
      </trkpt>
      <trkpt lat="44.09256" lon="7.39567">
        <ele>2133.3</ele>
        <time>2011-10-13T13:28:55Z</time>
      </trkpt>
      <trkpt lat="44.09253" lon="7.3957">
        <ele>2133.78</ele>
        <time>2011-10-13T13:29:00Z</time>
      </trkpt>
      <trkpt lat="44.09243" lon="7.39578">
        <ele>2136.19</ele>
        <time>2011-10-13T13:29:13Z</time>
      </trkpt>
      <trkpt lat="44.09242" lon="7.39579">
        <ele>2135.71</ele>
        <time>2011-10-13T13:29:15Z</time>
      </trkpt>
      <trkpt lat="44.09238" lon="7.39581">
        <ele>2135.23</ele>
        <time>2011-10-13T13:29:19Z</time>
      </trkpt>
      <trkpt lat="44.09227" lon="7.39581">
        <ele>2133.78</ele>
        <time>2011-10-13T13:29:34Z</time>
      </trkpt>
      <trkpt lat="44.09224" lon="7.39582">
        <ele>2133.78</ele>
        <time>2011-10-13T13:29:37Z</time>
      </trkpt>
      <trkpt lat="44.09215" lon="7.39586">
        <ele>2132.82</ele>
        <time>2011-10-13T13:29:46Z</time>
      </trkpt>
      <trkpt lat="44.09207" lon="7.39596">
        <ele>2130.9</ele>
        <time>2011-10-13T13:29:56Z</time>
      </trkpt>
      <trkpt lat="44.09204" lon="7.39603">
        <ele>2128.5</ele>
        <time>2011-10-13T13:30:02Z</time>
      </trkpt>
      <trkpt lat="44.09198" lon="7.39618">
        <ele>2127.05</ele>
        <time>2011-10-13T13:30:16Z</time>
      </trkpt>
      <trkpt lat="44.09193" lon="7.39627">
        <ele>2123.69</ele>
        <time>2011-10-13T13:30:25Z</time>
      </trkpt>
      <trkpt lat="44.09193" lon="7.39631">
        <ele>2123.21</ele>
        <time>2011-10-13T13:30:28Z</time>
      </trkpt>
      <trkpt lat="44.09182" lon="7.39632">
        <ele>2120.81</ele>
        <time>2011-10-13T13:30:41Z</time>
      </trkpt>
      <trkpt lat="44.09175" lon="7.39645">
        <ele>2117.92</ele>
        <time>2011-10-13T13:30:52Z</time>
      </trkpt>
      <trkpt lat="44.09174" lon="7.39651">
        <ele>2116.48</ele>
        <time>2011-10-13T13:30:57Z</time>
      </trkpt>
      <trkpt lat="44.09166" lon="7.39651">
        <ele>2114.08</ele>
        <time>2011-10-13T13:31:10Z</time>
      </trkpt>
      <trkpt lat="44.09163" lon="7.39656">
        <ele>2112.63</ele>
        <time>2011-10-13T13:31:16Z</time>
      </trkpt>
      <trkpt lat="44.09155" lon="7.39656">
        <ele>2110.23</ele>
        <time>2011-10-13T13:31:28Z</time>
      </trkpt>
      <trkpt lat="44.09155" lon="7.39658">
        <ele>2110.23</ele>
        <time>2011-10-13T13:31:29Z</time>
      </trkpt>
      <trkpt lat="44.09154" lon="7.39663">
        <ele>2108.31</ele>
        <time>2011-10-13T13:31:33Z</time>
      </trkpt>
      <trkpt lat="44.0915" lon="7.39666">
        <ele>2105.91</ele>
        <time>2011-10-13T13:31:41Z</time>
      </trkpt>
      <trkpt lat="44.09144" lon="7.39658">
        <ele>2104.46</ele>
        <time>2011-10-13T13:31:51Z</time>
      </trkpt>
      <trkpt lat="44.09142" lon="7.39657">
        <ele>2104.46</ele>
        <time>2011-10-13T13:31:53Z</time>
      </trkpt>
      <trkpt lat="44.09133" lon="7.39662">
        <ele>2101.58</ele>
        <time>2011-10-13T13:32:08Z</time>
      </trkpt>
      <trkpt lat="44.09134" lon="7.39664">
        <ele>2101.1</ele>
        <time>2011-10-13T13:32:10Z</time>
      </trkpt>
      <trkpt lat="44.09133" lon="7.39678">
        <ele>2098.21</ele>
        <time>2011-10-13T13:32:25Z</time>
      </trkpt>
      <trkpt lat="44.09129" lon="7.39688">
        <ele>2095.33</ele>
        <time>2011-10-13T13:32:37Z</time>
      </trkpt>
      <trkpt lat="44.09129" lon="7.39695">
        <ele>2094.37</ele>
        <time>2011-10-13T13:32:45Z</time>
      </trkpt>
      <trkpt lat="44.09129" lon="7.397">
        <ele>2093.89</ele>
        <time>2011-10-13T13:32:48Z</time>
      </trkpt>
      <trkpt lat="44.09124" lon="7.39706">
        <ele>2092.45</ele>
        <time>2011-10-13T13:32:56Z</time>
      </trkpt>
      <trkpt lat="44.09128" lon="7.39711">
        <ele>2090.04</ele>
        <time>2011-10-13T13:33:06Z</time>
      </trkpt>
      <trkpt lat="44.09129" lon="7.39713">
        <ele>2089.08</ele>
        <time>2011-10-13T13:33:10Z</time>
      </trkpt>
      <trkpt lat="44.09127" lon="7.39723">
        <ele>2086.68</ele>
        <time>2011-10-13T13:33:22Z</time>
      </trkpt>
      <trkpt lat="44.09126" lon="7.39725">
        <ele>2086.68</ele>
        <time>2011-10-13T13:33:25Z</time>
      </trkpt>
      <trkpt lat="44.09123" lon="7.39728">
        <ele>2084.76</ele>
        <time>2011-10-13T13:33:30Z</time>
      </trkpt>
      <trkpt lat="44.09119" lon="7.39736">
        <ele>2081.87</ele>
        <time>2011-10-13T13:33:42Z</time>
      </trkpt>
      <trkpt lat="44.09122" lon="7.39737">
        <ele>2080.43</ele>
        <time>2011-10-13T13:33:45Z</time>
      </trkpt>
      <trkpt lat="44.09123" lon="7.39747">
        <ele>2078.03</ele>
        <time>2011-10-13T13:33:59Z</time>
      </trkpt>
      <trkpt lat="44.09124" lon="7.39749">
        <ele>2077.07</ele>
        <time>2011-10-13T13:34:01Z</time>
      </trkpt>
      <trkpt lat="44.09126" lon="7.39753">
        <ele>2076.1</ele>
        <time>2011-10-13T13:34:06Z</time>
      </trkpt>
      <trkpt lat="44.09118" lon="7.39761">
        <ele>2073.22</ele>
        <time>2011-10-13T13:34:19Z</time>
      </trkpt>
      <trkpt lat="44.09115" lon="7.39765">
        <ele>2071.78</ele>
        <time>2011-10-13T13:34:24Z</time>
      </trkpt>
      <trkpt lat="44.0911" lon="7.39766">
        <ele>2068.41</ele>
        <time>2011-10-13T13:34:32Z</time>
      </trkpt>
      <trkpt lat="44.09101" lon="7.39766">
        <ele>2065.05</ele>
        <time>2011-10-13T13:34:43Z</time>
      </trkpt>
      <trkpt lat="44.09104" lon="7.39773">
        <ele>2063.13</ele>
        <time>2011-10-13T13:34:55Z</time>
      </trkpt>
      <trkpt lat="44.09099" lon="7.39782">
        <ele>2061.2</ele>
        <time>2011-10-13T13:35:09Z</time>
      </trkpt>
      <trkpt lat="44.09105" lon="7.39791">
        <ele>2058.32</ele>
        <time>2011-10-13T13:35:21Z</time>
      </trkpt>
      <trkpt lat="44.09099" lon="7.39795">
        <ele>2056.88</ele>
        <time>2011-10-13T13:35:32Z</time>
      </trkpt>
      <trkpt lat="44.09099" lon="7.39797">
        <ele>2056.4</ele>
        <time>2011-10-13T13:35:35Z</time>
      </trkpt>
      <trkpt lat="44.09096" lon="7.39805">
        <ele>2053.51</ele>
        <time>2011-10-13T13:35:43Z</time>
      </trkpt>
      <trkpt lat="44.09098" lon="7.39808">
        <ele>2052.55</ele>
        <time>2011-10-13T13:35:46Z</time>
      </trkpt>
      <trkpt lat="44.09101" lon="7.39811">
        <ele>2051.11</ele>
        <time>2011-10-13T13:35:50Z</time>
      </trkpt>
      <trkpt lat="44.091" lon="7.39829">
        <ele>2047.75</ele>
        <time>2011-10-13T13:36:00Z</time>
      </trkpt>
      <trkpt lat="44.09099" lon="7.3984">
        <ele>2045.82</ele>
        <time>2011-10-13T13:36:05Z</time>
      </trkpt>
      <trkpt lat="44.09102" lon="7.39846">
        <ele>2044.86</ele>
        <time>2011-10-13T13:36:09Z</time>
      </trkpt>
      <trkpt lat="44.09098" lon="7.39855">
        <ele>2041.02</ele>
        <time>2011-10-13T13:36:21Z</time>
      </trkpt>
      <trkpt lat="44.09097" lon="7.39856">
        <ele>2039.57</ele>
        <time>2011-10-13T13:36:25Z</time>
      </trkpt>
      <trkpt lat="44.09098" lon="7.39861">
        <ele>2038.61</ele>
        <time>2011-10-13T13:36:30Z</time>
      </trkpt>
      <trkpt lat="44.091" lon="7.39871">
        <ele>2035.25</ele>
        <time>2011-10-13T13:36:39Z</time>
      </trkpt>
      <trkpt lat="44.09101" lon="7.3988">
        <ele>2031.88</ele>
        <time>2011-10-13T13:36:47Z</time>
      </trkpt>
      <trkpt lat="44.09103" lon="7.39884">
        <ele>2031.88</ele>
        <time>2011-10-13T13:36:51Z</time>
      </trkpt>
      <trkpt lat="44.09104" lon="7.39893">
        <ele>2030.92</ele>
        <time>2011-10-13T13:36:58Z</time>
      </trkpt>
      <trkpt lat="44.09103" lon="7.39902">
        <ele>2029.48</ele>
        <time>2011-10-13T13:37:03Z</time>
      </trkpt>
      <trkpt lat="44.09098" lon="7.39914">
        <ele>2029</ele>
        <time>2011-10-13T13:37:12Z</time>
      </trkpt>
      <trkpt lat="44.09084" lon="7.39913">
        <ele>2027.56</ele>
        <time>2011-10-13T13:37:27Z</time>
      </trkpt>
      <trkpt lat="44.09079" lon="7.39916">
        <ele>2026.12</ele>
        <time>2011-10-13T13:37:40Z</time>
      </trkpt>
      <trkpt lat="44.09079" lon="7.39918">
        <ele>2026.12</ele>
        <time>2011-10-13T13:37:42Z</time>
      </trkpt>
      <trkpt lat="44.09077" lon="7.39926">
        <ele>2022.75</ele>
        <time>2011-10-13T13:37:52Z</time>
      </trkpt>
      <trkpt lat="44.09077" lon="7.39929">
        <ele>2021.79</ele>
        <time>2011-10-13T13:37:58Z</time>
      </trkpt>
      <trkpt lat="44.09078" lon="7.39931">
        <ele>2021.79</ele>
        <time>2011-10-13T13:38:00Z</time>
      </trkpt>
      <trkpt lat="44.09083" lon="7.39941">
        <ele>2019.39</ele>
        <time>2011-10-13T13:38:13Z</time>
      </trkpt>
      <trkpt lat="44.09077" lon="7.39948">
        <ele>2019.87</ele>
        <time>2011-10-13T13:38:22Z</time>
      </trkpt>
      <trkpt lat="44.09075" lon="7.39954">
        <ele>2019.39</ele>
        <time>2011-10-13T13:38:27Z</time>
      </trkpt>
      <trkpt lat="44.09072" lon="7.39963">
        <ele>2019.87</ele>
        <time>2011-10-13T13:38:40Z</time>
      </trkpt>
      <trkpt lat="44.09072" lon="7.39966">
        <ele>2022.75</ele>
        <time>2011-10-13T13:38:54Z</time>
      </trkpt>
      <trkpt lat="44.09075" lon="7.39972">
        <ele>2025.15</ele>
        <time>2011-10-13T13:39:08Z</time>
      </trkpt>
      <trkpt lat="44.09079" lon="7.39962">
        <ele>2027.08</ele>
        <time>2011-10-13T13:39:22Z</time>
      </trkpt>
      <trkpt lat="44.09079" lon="7.39962">
        <ele>2026.6</ele>
        <time>2011-10-13T13:39:43Z</time>
      </trkpt>
      <trkpt lat="44.09079" lon="7.39963">
        <ele>2026.6</ele>
        <time>2011-10-13T13:40:13Z</time>
      </trkpt>
      <trkpt lat="44.09079" lon="7.39963">
        <ele>2026.6</ele>
        <time>2011-10-13T13:40:41Z</time>
      </trkpt>
      <trkpt lat="44.09079" lon="7.39963">
        <ele>2026.12</ele>
        <time>2011-10-13T13:41:09Z</time>
      </trkpt>
      <trkpt lat="44.09079" lon="7.39963">
        <ele>2027.56</ele>
        <time>2011-10-13T13:41:12Z</time>
      </trkpt>
      <trkpt lat="44.09078" lon="7.39962">
        <ele>2026.12</ele>
        <time>2011-10-13T13:41:31Z</time>
      </trkpt>
      <trkpt lat="44.09077" lon="7.39967">
        <ele>2027.56</ele>
        <time>2011-10-13T13:41:53Z</time>
      </trkpt>
      <trkpt lat="44.09077" lon="7.39966">
        <ele>2026.12</ele>
        <time>2011-10-13T13:42:14Z</time>
      </trkpt>
      <trkpt lat="44.09077" lon="7.39966">
        <ele>2025.15</ele>
        <time>2011-10-13T13:42:38Z</time>
      </trkpt>
      <trkpt lat="44.09077" lon="7.39966">
        <ele>2026.12</ele>
        <time>2011-10-13T13:42:40Z</time>
      </trkpt>
      <trkpt lat="44.09077" lon="7.39965">
        <ele>2024.67</ele>
        <time>2011-10-13T13:43:02Z</time>
      </trkpt>
      <trkpt lat="44.09077" lon="7.39965">
        <ele>2024.67</ele>
        <time>2011-10-13T13:43:24Z</time>
      </trkpt>
      <trkpt lat="44.09077" lon="7.39965">
        <ele>2025.64</ele>
        <time>2011-10-13T13:43:56Z</time>
      </trkpt>
      <trkpt lat="44.09077" lon="7.39965">
        <ele>2026.6</ele>
        <time>2011-10-13T13:44:18Z</time>
      </trkpt>
      <trkpt lat="44.09077" lon="7.39965">
        <ele>2024.67</ele>
        <time>2011-10-13T13:44:21Z</time>
      </trkpt>
      <trkpt lat="44.09077" lon="7.39965">
        <ele>2024.67</ele>
        <time>2011-10-13T13:44:49Z</time>
      </trkpt>
      <trkpt lat="44.09077" lon="7.39965">
        <ele>2025.64</ele>
        <time>2011-10-13T13:44:55Z</time>
      </trkpt>
      <trkpt lat="44.09077" lon="7.39965">
        <ele>2025.15</ele>
        <time>2011-10-13T13:45:29Z</time>
      </trkpt>
      <trkpt lat="44.09076" lon="7.39963">
        <ele>2024.19</ele>
        <time>2011-10-13T13:46:02Z</time>
      </trkpt>
      <trkpt lat="44.09076" lon="7.39962">
        <ele>2025.64</ele>
        <time>2011-10-13T13:46:20Z</time>
      </trkpt>
      <trkpt lat="44.09076" lon="7.39962">
        <ele>2025.15</ele>
        <time>2011-10-13T13:46:45Z</time>
      </trkpt>
      <trkpt lat="44.09076" lon="7.39962">
        <ele>2024.19</ele>
        <time>2011-10-13T13:47:21Z</time>
      </trkpt>
      <trkpt lat="44.09076" lon="7.39962">
        <ele>2023.23</ele>
        <time>2011-10-13T13:47:38Z</time>
      </trkpt>
      <trkpt lat="44.09076" lon="7.39962">
        <ele>2025.15</ele>
        <time>2011-10-13T13:47:48Z</time>
      </trkpt>
      <trkpt lat="44.09076" lon="7.39962">
        <ele>2023.71</ele>
        <time>2011-10-13T13:47:53Z</time>
      </trkpt>
      <trkpt lat="44.09076" lon="7.3996">
        <ele>2022.75</ele>
        <time>2011-10-13T13:48:24Z</time>
      </trkpt>
      <trkpt lat="44.09076" lon="7.3996">
        <ele>2024.67</ele>
        <time>2011-10-13T13:48:49Z</time>
      </trkpt>
      <trkpt lat="44.09074" lon="7.39962">
        <ele>2026.12</ele>
        <time>2011-10-13T13:49:09Z</time>
      </trkpt>
      <trkpt lat="44.09073" lon="7.39963">
        <ele>2025.15</ele>
        <time>2011-10-13T13:49:44Z</time>
      </trkpt>
      <trkpt lat="44.09073" lon="7.39963">
        <ele>2025.15</ele>
        <time>2011-10-13T13:49:54Z</time>
      </trkpt>
      <trkpt lat="44.09073" lon="7.39963">
        <ele>2024.19</ele>
        <time>2011-10-13T13:50:05Z</time>
      </trkpt>
      <trkpt lat="44.09073" lon="7.39963">
        <ele>2026.12</ele>
        <time>2011-10-13T13:50:22Z</time>
      </trkpt>
      <trkpt lat="44.09073" lon="7.39963">
        <ele>2023.71</ele>
        <time>2011-10-13T13:50:41Z</time>
      </trkpt>
      <trkpt lat="44.09073" lon="7.39963">
        <ele>2025.64</ele>
        <time>2011-10-13T13:50:51Z</time>
      </trkpt>
      <trkpt lat="44.09073" lon="7.39963">
        <ele>2026.6</ele>
        <time>2011-10-13T13:50:55Z</time>
      </trkpt>
      <trkpt lat="44.09074" lon="7.39962">
        <ele>2023.71</ele>
        <time>2011-10-13T13:51:00Z</time>
      </trkpt>
      <trkpt lat="44.09074" lon="7.39962">
        <ele>2024.67</ele>
        <time>2011-10-13T13:51:22Z</time>
      </trkpt>
      <trkpt lat="44.09074" lon="7.39962">
        <ele>2025.15</ele>
        <time>2011-10-13T13:51:37Z</time>
      </trkpt>
      <trkpt lat="44.09073" lon="7.39962">
        <ele>2021.79</ele>
        <time>2011-10-13T13:51:50Z</time>
      </trkpt>
      <trkpt lat="44.09073" lon="7.39962">
        <ele>2023.23</ele>
        <time>2011-10-13T13:51:53Z</time>
      </trkpt>
      <trkpt lat="44.09073" lon="7.39962">
        <ele>2023.23</ele>
        <time>2011-10-13T13:52:24Z</time>
      </trkpt>
      <trkpt lat="44.09073" lon="7.39962">
        <ele>2022.75</ele>
        <time>2011-10-13T13:52:51Z</time>
      </trkpt>
      <trkpt lat="44.09073" lon="7.39963">
        <ele>2022.27</ele>
        <time>2011-10-13T13:53:20Z</time>
      </trkpt>
      <trkpt lat="44.09073" lon="7.39963">
        <ele>2022.27</ele>
        <time>2011-10-13T13:53:39Z</time>
      </trkpt>
      <trkpt lat="44.09074" lon="7.39962">
        <ele>2022.27</ele>
        <time>2011-10-13T13:54:10Z</time>
      </trkpt>
      <trkpt lat="44.09073" lon="7.3998">
        <ele>2022.27</ele>
        <time>2011-10-13T13:54:22Z</time>
      </trkpt>
      <trkpt lat="44.09072" lon="7.39981">
        <ele>2022.75</ele>
        <time>2011-10-13T13:54:23Z</time>
      </trkpt>
      <trkpt lat="44.09058" lon="7.39994">
        <ele>2021.31</ele>
        <time>2011-10-13T13:54:37Z</time>
      </trkpt>
      <trkpt lat="44.09057" lon="7.39996">
        <ele>2020.83</ele>
        <time>2011-10-13T13:54:39Z</time>
      </trkpt>
      <trkpt lat="44.09046" lon="7.40007">
        <ele>2018.43</ele>
        <time>2011-10-13T13:54:54Z</time>
      </trkpt>
      <trkpt lat="44.09042" lon="7.40009">
        <ele>2017.94</ele>
        <time>2011-10-13T13:55:01Z</time>
      </trkpt>
      <trkpt lat="44.09035" lon="7.40012">
        <ele>2016.02</ele>
        <time>2011-10-13T13:55:06Z</time>
      </trkpt>
      <trkpt lat="44.09032" lon="7.40014">
        <ele>2016.02</ele>
        <time>2011-10-13T13:55:10Z</time>
      </trkpt>
      <trkpt lat="44.09022" lon="7.40022">
        <ele>2016.02</ele>
        <time>2011-10-13T13:55:21Z</time>
      </trkpt>
      <trkpt lat="44.09017" lon="7.40034">
        <ele>2015.54</ele>
        <time>2011-10-13T13:55:29Z</time>
      </trkpt>
      <trkpt lat="44.09007" lon="7.40038">
        <ele>2016.02</ele>
        <time>2011-10-13T13:55:39Z</time>
      </trkpt>
      <trkpt lat="44.09002" lon="7.4004">
        <ele>2015.06</ele>
        <time>2011-10-13T13:55:44Z</time>
      </trkpt>
      <trkpt lat="44.08988" lon="7.40058">
        <ele>2017.46</ele>
        <time>2011-10-13T13:56:00Z</time>
      </trkpt>
      <trkpt lat="44.08985" lon="7.40067">
        <ele>2018.43</ele>
        <time>2011-10-13T13:56:05Z</time>
      </trkpt>
      <trkpt lat="44.08984" lon="7.4007">
        <ele>2018.43</ele>
        <time>2011-10-13T13:56:07Z</time>
      </trkpt>
      <trkpt lat="44.08975" lon="7.40088">
        <ele>2020.35</ele>
        <time>2011-10-13T13:56:22Z</time>
      </trkpt>
      <trkpt lat="44.08975" lon="7.40087">
        <ele>2021.31</ele>
        <time>2011-10-13T13:56:27Z</time>
      </trkpt>
      <trkpt lat="44.08962" lon="7.40086">
        <ele>2024.19</ele>
        <time>2011-10-13T13:56:36Z</time>
      </trkpt>
      <trkpt lat="44.0896" lon="7.40084">
        <ele>2025.64</ele>
        <time>2011-10-13T13:56:38Z</time>
      </trkpt>
      <trkpt lat="44.08957" lon="7.4008">
        <ele>2024.67</ele>
        <time>2011-10-13T13:56:41Z</time>
      </trkpt>
      <trkpt lat="44.08955" lon="7.40077">
        <ele>2022.27</ele>
        <time>2011-10-13T13:56:44Z</time>
      </trkpt>
      <trkpt lat="44.08948" lon="7.40075">
        <ele>2024.19</ele>
        <time>2011-10-13T13:56:49Z</time>
      </trkpt>
      <trkpt lat="44.08945" lon="7.40074">
        <ele>2027.08</ele>
        <time>2011-10-13T13:56:53Z</time>
      </trkpt>
      <trkpt lat="44.08944" lon="7.40075">
        <ele>2027.08</ele>
        <time>2011-10-13T13:56:54Z</time>
      </trkpt>
      <trkpt lat="44.08936" lon="7.40091">
        <ele>2027.56</ele>
        <time>2011-10-13T13:57:04Z</time>
      </trkpt>
      <trkpt lat="44.08929" lon="7.40095">
        <ele>2032.84</ele>
        <time>2011-10-13T13:57:17Z</time>
      </trkpt>
      <trkpt lat="44.08929" lon="7.40095">
        <ele>2032.84</ele>
        <time>2011-10-13T13:57:23Z</time>
      </trkpt>
      <trkpt lat="44.08929" lon="7.40095">
        <ele>2019.87</ele>
        <time>2011-10-13T13:57:28Z</time>
      </trkpt>
      <trkpt lat="44.0893" lon="7.40094">
        <ele>2017.94</ele>
        <time>2011-10-13T13:57:29Z</time>
      </trkpt>
      <trkpt lat="44.08933" lon="7.40091">
        <ele>2023.23</ele>
        <time>2011-10-13T13:57:33Z</time>
      </trkpt>
      <trkpt lat="44.08938" lon="7.4009">
        <ele>2023.71</ele>
        <time>2011-10-13T13:57:37Z</time>
      </trkpt>
      <trkpt lat="44.08945" lon="7.40081">
        <ele>2023.23</ele>
        <time>2011-10-13T13:57:45Z</time>
      </trkpt>
      <trkpt lat="44.08947" lon="7.40079">
        <ele>2023.71</ele>
        <time>2011-10-13T13:57:47Z</time>
      </trkpt>
      <trkpt lat="44.08949" lon="7.40076">
        <ele>2022.27</ele>
        <time>2011-10-13T13:57:50Z</time>
      </trkpt>
      <trkpt lat="44.08952" lon="7.40076">
        <ele>2017.94</ele>
        <time>2011-10-13T13:57:52Z</time>
      </trkpt>
      <trkpt lat="44.08955" lon="7.40074">
        <ele>2020.83</ele>
        <time>2011-10-13T13:57:55Z</time>
      </trkpt>
      <trkpt lat="44.08956" lon="7.40076">
        <ele>2024.67</ele>
        <time>2011-10-13T13:57:57Z</time>
      </trkpt>
      <trkpt lat="44.08959" lon="7.40079">
        <ele>2023.71</ele>
        <time>2011-10-13T13:57:59Z</time>
      </trkpt>
      <trkpt lat="44.08959" lon="7.40085">
        <ele>2020.83</ele>
        <time>2011-10-13T13:58:01Z</time>
      </trkpt>
      <trkpt lat="44.08963" lon="7.40091">
        <ele>2018.91</ele>
        <time>2011-10-13T13:58:06Z</time>
      </trkpt>
      <trkpt lat="44.08965" lon="7.40088">
        <ele>2017.46</ele>
        <time>2011-10-13T13:58:09Z</time>
      </trkpt>
      <trkpt lat="44.08971" lon="7.40087">
        <ele>2018.91</ele>
        <time>2011-10-13T13:58:14Z</time>
      </trkpt>
      <trkpt lat="44.08972" lon="7.4009">
        <ele>2020.35</ele>
        <time>2011-10-13T13:58:16Z</time>
      </trkpt>
      <trkpt lat="44.08972" lon="7.40092">
        <ele>2020.35</ele>
        <time>2011-10-13T13:58:17Z</time>
      </trkpt>
      <trkpt lat="44.08971" lon="7.40095">
        <ele>2018.91</ele>
        <time>2011-10-13T13:58:19Z</time>
      </trkpt>
      <trkpt lat="44.08969" lon="7.401">
        <ele>2020.83</ele>
        <time>2011-10-13T13:58:32Z</time>
      </trkpt>
      <trkpt lat="44.08964" lon="7.40107">
        <ele>2017.94</ele>
        <time>2011-10-13T13:58:44Z</time>
      </trkpt>
      <trkpt lat="44.08959" lon="7.4011">
        <ele>2016.02</ele>
        <time>2011-10-13T13:58:53Z</time>
      </trkpt>
      <trkpt lat="44.08953" lon="7.40111">
        <ele>2014.1</ele>
        <time>2011-10-13T13:59:04Z</time>
      </trkpt>
      <trkpt lat="44.08944" lon="7.40113">
        <ele>2012.66</ele>
        <time>2011-10-13T13:59:18Z</time>
      </trkpt>
      <trkpt lat="44.08937" lon="7.40119">
        <ele>2011.7</ele>
        <time>2011-10-13T13:59:30Z</time>
      </trkpt>
      <trkpt lat="44.08938" lon="7.40122">
        <ele>2011.22</ele>
        <time>2011-10-13T13:59:32Z</time>
      </trkpt>
      <trkpt lat="44.08934" lon="7.40127">
        <ele>2010.25</ele>
        <time>2011-10-13T13:59:45Z</time>
      </trkpt>
      <trkpt lat="44.08934" lon="7.40127">
        <ele>2010.25</ele>
        <time>2011-10-13T14:00:03Z</time>
      </trkpt>
      <trkpt lat="44.08934" lon="7.40127">
        <ele>2010.73</ele>
        <time>2011-10-13T14:00:21Z</time>
      </trkpt>
      <trkpt lat="44.08934" lon="7.40127">
        <ele>2011.22</ele>
        <time>2011-10-13T14:00:40Z</time>
      </trkpt>
      <trkpt lat="44.08934" lon="7.40127">
        <ele>2010.25</ele>
        <time>2011-10-13T14:01:06Z</time>
      </trkpt>
      <trkpt lat="44.08934" lon="7.40127">
        <ele>2009.77</ele>
        <time>2011-10-13T14:01:28Z</time>
      </trkpt>
      <trkpt lat="44.08934" lon="7.40127">
        <ele>2010.25</ele>
        <time>2011-10-13T14:01:54Z</time>
      </trkpt>
      <trkpt lat="44.08934" lon="7.40127">
        <ele>2010.73</ele>
        <time>2011-10-13T14:02:18Z</time>
      </trkpt>
      <trkpt lat="44.08934" lon="7.40127">
        <ele>2010.25</ele>
        <time>2011-10-13T14:02:41Z</time>
      </trkpt>
      <trkpt lat="44.08934" lon="7.40128">
        <ele>2011.22</ele>
        <time>2011-10-13T14:03:05Z</time>
      </trkpt>
      <trkpt lat="44.08934" lon="7.40128">
        <ele>2009.77</ele>
        <time>2011-10-13T14:03:35Z</time>
      </trkpt>
      <trkpt lat="44.08934" lon="7.40129">
        <ele>2010.25</ele>
        <time>2011-10-13T14:03:58Z</time>
      </trkpt>
      <trkpt lat="44.08932" lon="7.40127">
        <ele>2008.81</ele>
        <time>2011-10-13T14:04:20Z</time>
      </trkpt>
      <trkpt lat="44.08931" lon="7.40127">
        <ele>2008.33</ele>
        <time>2011-10-13T14:04:23Z</time>
      </trkpt>
      <trkpt lat="44.08927" lon="7.40122">
        <ele>2007.37</ele>
        <time>2011-10-13T14:04:28Z</time>
      </trkpt>
      <trkpt lat="44.08918" lon="7.40115">
        <ele>2004.97</ele>
        <time>2011-10-13T14:04:41Z</time>
      </trkpt>
      <trkpt lat="44.08921" lon="7.40121">
        <ele>2004.97</ele>
        <time>2011-10-13T14:04:44Z</time>
      </trkpt>
      <trkpt lat="44.08925" lon="7.40126">
        <ele>2004.49</ele>
        <time>2011-10-13T14:04:48Z</time>
      </trkpt>
      <trkpt lat="44.08923" lon="7.40135">
        <ele>2003.04</ele>
        <time>2011-10-13T14:04:55Z</time>
      </trkpt>
      <trkpt lat="44.08917" lon="7.40129">
        <ele>2002.08</ele>
        <time>2011-10-13T14:05:03Z</time>
      </trkpt>
      <trkpt lat="44.08911" lon="7.40125">
        <ele>1999.68</ele>
        <time>2011-10-13T14:05:13Z</time>
      </trkpt>
      <trkpt lat="44.08911" lon="7.40129">
        <ele>1999.2</ele>
        <time>2011-10-13T14:05:16Z</time>
      </trkpt>
      <trkpt lat="44.08907" lon="7.40139">
        <ele>1996.32</ele>
        <time>2011-10-13T14:05:28Z</time>
      </trkpt>
      <trkpt lat="44.089" lon="7.40138">
        <ele>1992.95</ele>
        <time>2011-10-13T14:05:41Z</time>
      </trkpt>
      <trkpt lat="44.08899" lon="7.40141">
        <ele>1992.95</ele>
        <time>2011-10-13T14:05:43Z</time>
      </trkpt>
      <trkpt lat="44.08892" lon="7.40136">
        <ele>1990.55</ele>
        <time>2011-10-13T14:05:55Z</time>
      </trkpt>
      <trkpt lat="44.08887" lon="7.40143">
        <ele>1988.14</ele>
        <time>2011-10-13T14:06:08Z</time>
      </trkpt>
      <trkpt lat="44.08887" lon="7.40142">
        <ele>1986.22</ele>
        <time>2011-10-13T14:06:13Z</time>
      </trkpt>
      <trkpt lat="44.0888" lon="7.40144">
        <ele>1984.78</ele>
        <time>2011-10-13T14:06:26Z</time>
      </trkpt>
      <trkpt lat="44.08876" lon="7.40154">
        <ele>1981.41</ele>
        <time>2011-10-13T14:06:39Z</time>
      </trkpt>
      <trkpt lat="44.08874" lon="7.40157">
        <ele>1980.45</ele>
        <time>2011-10-13T14:06:46Z</time>
      </trkpt>
      <trkpt lat="44.0887" lon="7.40154">
        <ele>1979.01</ele>
        <time>2011-10-13T14:06:55Z</time>
      </trkpt>
      <trkpt lat="44.08869" lon="7.40163">
        <ele>1975.65</ele>
        <time>2011-10-13T14:07:09Z</time>
      </trkpt>
      <trkpt lat="44.08867" lon="7.40174">
        <ele>1972.76</ele>
        <time>2011-10-13T14:07:23Z</time>
      </trkpt>
      <trkpt lat="44.08864" lon="7.40185">
        <ele>1969.88</ele>
        <time>2011-10-13T14:07:34Z</time>
      </trkpt>
      <trkpt lat="44.08858" lon="7.40186">
        <ele>1968.44</ele>
        <time>2011-10-13T14:07:43Z</time>
      </trkpt>
      <trkpt lat="44.08852" lon="7.40175">
        <ele>1965.07</ele>
        <time>2011-10-13T14:07:55Z</time>
      </trkpt>
      <trkpt lat="44.08845" lon="7.40187">
        <ele>1963.15</ele>
        <time>2011-10-13T14:08:09Z</time>
      </trkpt>
      <trkpt lat="44.0884" lon="7.40194">
        <ele>1962.19</ele>
        <time>2011-10-13T14:08:18Z</time>
      </trkpt>
      <trkpt lat="44.0883" lon="7.40203">
        <ele>1958.34</ele>
        <time>2011-10-13T14:08:32Z</time>
      </trkpt>
      <trkpt lat="44.08828" lon="7.40211">
        <ele>1956.42</ele>
        <time>2011-10-13T14:08:45Z</time>
      </trkpt>
      <trkpt lat="44.08824" lon="7.40214">
        <ele>1956.42</ele>
        <time>2011-10-13T14:08:49Z</time>
      </trkpt>
      <trkpt lat="44.08818" lon="7.40222">
        <ele>1953.06</ele>
        <time>2011-10-13T14:09:00Z</time>
      </trkpt>
      <trkpt lat="44.08811" lon="7.40228">
        <ele>1949.69</ele>
        <time>2011-10-13T14:09:12Z</time>
      </trkpt>
      <trkpt lat="44.08806" lon="7.40225">
        <ele>1947.77</ele>
        <time>2011-10-13T14:09:21Z</time>
      </trkpt>
      <trkpt lat="44.08807" lon="7.40211">
        <ele>1944.4</ele>
        <time>2011-10-13T14:09:35Z</time>
      </trkpt>
      <trkpt lat="44.08798" lon="7.40209">
        <ele>1941.52</ele>
        <time>2011-10-13T14:09:50Z</time>
      </trkpt>
      <trkpt lat="44.08798" lon="7.40199">
        <ele>1938.64</ele>
        <time>2011-10-13T14:09:59Z</time>
      </trkpt>
      <trkpt lat="44.08795" lon="7.40195">
        <ele>1935.27</ele>
        <time>2011-10-13T14:10:11Z</time>
      </trkpt>
      <trkpt lat="44.08791" lon="7.40195">
        <ele>1934.31</ele>
        <time>2011-10-13T14:10:16Z</time>
      </trkpt>
      <trkpt lat="44.08789" lon="7.40184">
        <ele>1932.39</ele>
        <time>2011-10-13T14:10:29Z</time>
      </trkpt>
      <trkpt lat="44.08785" lon="7.4019">
        <ele>1929.5</ele>
        <time>2011-10-13T14:10:38Z</time>
      </trkpt>
      <trkpt lat="44.08776" lon="7.40194">
        <ele>1926.14</ele>
        <time>2011-10-13T14:10:51Z</time>
      </trkpt>
      <trkpt lat="44.08775" lon="7.40196">
        <ele>1925.18</ele>
        <time>2011-10-13T14:10:53Z</time>
      </trkpt>
      <trkpt lat="44.0877" lon="7.40201">
        <ele>1924.7</ele>
        <time>2011-10-13T14:10:58Z</time>
      </trkpt>
      <trkpt lat="44.08763" lon="7.40216">
        <ele>1921.81</ele>
        <time>2011-10-13T14:11:11Z</time>
      </trkpt>
      <trkpt lat="44.08757" lon="7.40222">
        <ele>1918.45</ele>
        <time>2011-10-13T14:11:24Z</time>
      </trkpt>
      <trkpt lat="44.08752" lon="7.40224">
        <ele>1916.53</ele>
        <time>2011-10-13T14:11:38Z</time>
      </trkpt>
      <trkpt lat="44.08748" lon="7.40224">
        <ele>1913.16</ele>
        <time>2011-10-13T14:11:49Z</time>
      </trkpt>
      <trkpt lat="44.08744" lon="7.40236">
        <ele>1910.76</ele>
        <time>2011-10-13T14:12:02Z</time>
      </trkpt>
      <trkpt lat="44.08737" lon="7.40243">
        <ele>1908.83</ele>
        <time>2011-10-13T14:12:16Z</time>
      </trkpt>
      <trkpt lat="44.08736" lon="7.40244">
        <ele>1908.35</ele>
        <time>2011-10-13T14:12:18Z</time>
      </trkpt>
      <trkpt lat="44.0873" lon="7.40239">
        <ele>1904.99</ele>
        <time>2011-10-13T14:12:32Z</time>
      </trkpt>
      <trkpt lat="44.08725" lon="7.40247">
        <ele>1901.63</ele>
        <time>2011-10-13T14:12:42Z</time>
      </trkpt>
      <trkpt lat="44.08725" lon="7.40248">
        <ele>1900.66</ele>
        <time>2011-10-13T14:12:43Z</time>
      </trkpt>
      <trkpt lat="44.08718" lon="7.40255">
        <ele>1900.18</ele>
        <time>2011-10-13T14:12:56Z</time>
      </trkpt>
      <trkpt lat="44.08716" lon="7.40251">
        <ele>1897.78</ele>
        <time>2011-10-13T14:13:02Z</time>
      </trkpt>
      <trkpt lat="44.08715" lon="7.40249">
        <ele>1896.82</ele>
        <time>2011-10-13T14:13:04Z</time>
      </trkpt>
      <trkpt lat="44.08713" lon="7.4023">
        <ele>1895.38</ele>
        <time>2011-10-13T14:13:18Z</time>
      </trkpt>
      <trkpt lat="44.08713" lon="7.40222">
        <ele>1892.01</ele>
        <time>2011-10-13T14:13:30Z</time>
      </trkpt>
      <trkpt lat="44.08713" lon="7.40222">
        <ele>1891.53</ele>
        <time>2011-10-13T14:13:33Z</time>
      </trkpt>
      <trkpt lat="44.0871" lon="7.40228">
        <ele>1891.05</ele>
        <time>2011-10-13T14:13:38Z</time>
      </trkpt>
      <trkpt lat="44.08703" lon="7.40237">
        <ele>1888.65</ele>
        <time>2011-10-13T14:13:50Z</time>
      </trkpt>
      <trkpt lat="44.087" lon="7.40235">
        <ele>1887.69</ele>
        <time>2011-10-13T14:13:58Z</time>
      </trkpt>
      <trkpt lat="44.08699" lon="7.40219">
        <ele>1884.8</ele>
        <time>2011-10-13T14:14:10Z</time>
      </trkpt>
      <trkpt lat="44.08693" lon="7.4021">
        <ele>1881.44</ele>
        <time>2011-10-13T14:14:23Z</time>
      </trkpt>
      <trkpt lat="44.08691" lon="7.4021">
        <ele>1880.96</ele>
        <time>2011-10-13T14:14:29Z</time>
      </trkpt>
      <trkpt lat="44.08687" lon="7.40206">
        <ele>1878.55</ele>
        <time>2011-10-13T14:14:34Z</time>
      </trkpt>
      <trkpt lat="44.08683" lon="7.40207">
        <ele>1876.15</ele>
        <time>2011-10-13T14:14:45Z</time>
      </trkpt>
      <trkpt lat="44.08679" lon="7.40209">
        <ele>1875.67</ele>
        <time>2011-10-13T14:14:49Z</time>
      </trkpt>
      <trkpt lat="44.08666" lon="7.40216">
        <ele>1875.67</ele>
        <time>2011-10-13T14:15:02Z</time>
      </trkpt>
      <trkpt lat="44.08665" lon="7.40218">
        <ele>1876.15</ele>
        <time>2011-10-13T14:15:27Z</time>
      </trkpt>
      <trkpt lat="44.08669" lon="7.40228">
        <ele>1875.67</ele>
        <time>2011-10-13T14:15:42Z</time>
      </trkpt>
      <trkpt lat="44.08671" lon="7.40232">
        <ele>1875.67</ele>
        <time>2011-10-13T14:15:46Z</time>
      </trkpt>
      <trkpt lat="44.0867" lon="7.40242">
        <ele>1874.71</ele>
        <time>2011-10-13T14:15:54Z</time>
      </trkpt>
      <trkpt lat="44.08665" lon="7.40242">
        <ele>1873.75</ele>
        <time>2011-10-13T14:15:58Z</time>
      </trkpt>
      <trkpt lat="44.08654" lon="7.40258">
        <ele>1869.9</ele>
        <time>2011-10-13T14:16:12Z</time>
      </trkpt>
      <trkpt lat="44.08653" lon="7.40261">
        <ele>1870.38</ele>
        <time>2011-10-13T14:16:14Z</time>
      </trkpt>
      <trkpt lat="44.08649" lon="7.40263">
        <ele>1870.38</ele>
        <time>2011-10-13T14:16:19Z</time>
      </trkpt>
      <trkpt lat="44.08647" lon="7.40266">
        <ele>1870.86</ele>
        <time>2011-10-13T14:16:24Z</time>
      </trkpt>
      <trkpt lat="44.08644" lon="7.40268">
        <ele>1869.42</ele>
        <time>2011-10-13T14:16:27Z</time>
      </trkpt>
      <trkpt lat="44.08642" lon="7.40278">
        <ele>1869.42</ele>
        <time>2011-10-13T14:16:42Z</time>
      </trkpt>
      <trkpt lat="44.08642" lon="7.40278">
        <ele>1868.94</ele>
        <time>2011-10-13T14:17:03Z</time>
      </trkpt>
      <trkpt lat="44.08641" lon="7.40278">
        <ele>1869.9</ele>
        <time>2011-10-13T14:17:23Z</time>
      </trkpt>
      <trkpt lat="44.08636" lon="7.4029">
        <ele>1871.34</ele>
        <time>2011-10-13T14:17:38Z</time>
      </trkpt>
      <trkpt lat="44.08633" lon="7.40295">
        <ele>1870.38</ele>
        <time>2011-10-13T14:17:42Z</time>
      </trkpt>
      <trkpt lat="44.08628" lon="7.40299">
        <ele>1868.46</ele>
        <time>2011-10-13T14:17:48Z</time>
      </trkpt>
      <trkpt lat="44.08625" lon="7.40301">
        <ele>1865.58</ele>
        <time>2011-10-13T14:18:01Z</time>
      </trkpt>
      <trkpt lat="44.08617" lon="7.40302">
        <ele>1862.21</ele>
        <time>2011-10-13T14:18:13Z</time>
      </trkpt>
      <trkpt lat="44.08617" lon="7.40292">
        <ele>1859.33</ele>
        <time>2011-10-13T14:18:25Z</time>
      </trkpt>
      <trkpt lat="44.08612" lon="7.40285">
        <ele>1857.4</ele>
        <time>2011-10-13T14:18:36Z</time>
      </trkpt>
      <trkpt lat="44.08609" lon="7.40284">
        <ele>1855.48</ele>
        <time>2011-10-13T14:18:41Z</time>
      </trkpt>
      <trkpt lat="44.08603" lon="7.40306">
        <ele>1853.56</ele>
        <time>2011-10-13T14:18:56Z</time>
      </trkpt>
      <trkpt lat="44.08596" lon="7.40316">
        <ele>1851.64</ele>
        <time>2011-10-13T14:19:10Z</time>
      </trkpt>
      <trkpt lat="44.08586" lon="7.40326">
        <ele>1850.68</ele>
        <time>2011-10-13T14:19:23Z</time>
      </trkpt>
      <trkpt lat="44.08577" lon="7.40328">
        <ele>1848.27</ele>
        <time>2011-10-13T14:19:36Z</time>
      </trkpt>
      <trkpt lat="44.08572" lon="7.40327">
        <ele>1847.31</ele>
        <time>2011-10-13T14:19:42Z</time>
      </trkpt>
      <trkpt lat="44.08565" lon="7.40331">
        <ele>1846.35</ele>
        <time>2011-10-13T14:19:51Z</time>
      </trkpt>
      <trkpt lat="44.08551" lon="7.40335">
        <ele>1843.95</ele>
        <time>2011-10-13T14:20:05Z</time>
      </trkpt>
      <trkpt lat="44.0855" lon="7.40333">
        <ele>1843.47</ele>
        <time>2011-10-13T14:20:09Z</time>
      </trkpt>
      <trkpt lat="44.08545" lon="7.40332">
        <ele>1842.02</ele>
        <time>2011-10-13T14:20:13Z</time>
      </trkpt>
      <trkpt lat="44.0854" lon="7.40337">
        <ele>1841.54</ele>
        <time>2011-10-13T14:20:19Z</time>
      </trkpt>
      <trkpt lat="44.08536" lon="7.40347">
        <ele>1839.62</ele>
        <time>2011-10-13T14:20:27Z</time>
      </trkpt>
      <trkpt lat="44.08533" lon="7.40349">
        <ele>1838.66</ele>
        <time>2011-10-13T14:20:32Z</time>
      </trkpt>
      <trkpt lat="44.0853" lon="7.4035">
        <ele>1838.18</ele>
        <time>2011-10-13T14:20:35Z</time>
      </trkpt>
      <trkpt lat="44.08524" lon="7.40367">
        <ele>1838.66</ele>
        <time>2011-10-13T14:20:49Z</time>
      </trkpt>
      <trkpt lat="44.08518" lon="7.4037">
        <ele>1838.66</ele>
        <time>2011-10-13T14:20:55Z</time>
      </trkpt>
      <trkpt lat="44.08513" lon="7.40375">
        <ele>1837.7</ele>
        <time>2011-10-13T14:21:01Z</time>
      </trkpt>
      <trkpt lat="44.08506" lon="7.40382">
        <ele>1836.26</ele>
        <time>2011-10-13T14:21:15Z</time>
      </trkpt>
      <trkpt lat="44.08496" lon="7.40384">
        <ele>1833.85</ele>
        <time>2011-10-13T14:21:28Z</time>
      </trkpt>
      <trkpt lat="44.08493" lon="7.40382">
        <ele>1832.89</ele>
        <time>2011-10-13T14:21:32Z</time>
      </trkpt>
      <trkpt lat="44.08491" lon="7.4038">
        <ele>1832.89</ele>
        <time>2011-10-13T14:21:34Z</time>
      </trkpt>
      <trkpt lat="44.08483" lon="7.40373">
        <ele>1831.93</ele>
        <time>2011-10-13T14:21:48Z</time>
      </trkpt>
      <trkpt lat="44.08481" lon="7.40371">
        <ele>1830.01</ele>
        <time>2011-10-13T14:21:52Z</time>
      </trkpt>
      <trkpt lat="44.08479" lon="7.40364">
        <ele>1828.56</ele>
        <time>2011-10-13T14:22:00Z</time>
      </trkpt>
      <trkpt lat="44.0847" lon="7.40351">
        <ele>1825.2</ele>
        <time>2011-10-13T14:22:16Z</time>
      </trkpt>
      <trkpt lat="44.08467" lon="7.40347">
        <ele>1821.35</ele>
        <time>2011-10-13T14:22:27Z</time>
      </trkpt>
      <trkpt lat="44.08461" lon="7.40342">
        <ele>1818.95</ele>
        <time>2011-10-13T14:22:42Z</time>
      </trkpt>
      <trkpt lat="44.08459" lon="7.40336">
        <ele>1816.07</ele>
        <time>2011-10-13T14:22:50Z</time>
      </trkpt>
      <trkpt lat="44.08453" lon="7.40327">
        <ele>1812.7</ele>
        <time>2011-10-13T14:23:01Z</time>
      </trkpt>
      <trkpt lat="44.08449" lon="7.40321">
        <ele>1810.78</ele>
        <time>2011-10-13T14:23:09Z</time>
      </trkpt>
      <trkpt lat="44.08439" lon="7.40313">
        <ele>1808.38</ele>
        <time>2011-10-13T14:23:26Z</time>
      </trkpt>
      <trkpt lat="44.08437" lon="7.40311">
        <ele>1805.97</ele>
        <time>2011-10-13T14:23:29Z</time>
      </trkpt>
      <trkpt lat="44.0843" lon="7.40309">
        <ele>1804.05</ele>
        <time>2011-10-13T14:23:42Z</time>
      </trkpt>
      <trkpt lat="44.08424" lon="7.40298">
        <ele>1800.69</ele>
        <time>2011-10-13T14:23:52Z</time>
      </trkpt>
      <trkpt lat="44.08413" lon="7.40296">
        <ele>1799.73</ele>
        <time>2011-10-13T14:24:06Z</time>
      </trkpt>
      <trkpt lat="44.084" lon="7.40285">
        <ele>1799.24</ele>
        <time>2011-10-13T14:24:19Z</time>
      </trkpt>
      <trkpt lat="44.08394" lon="7.40277">
        <ele>1798.76</ele>
        <time>2011-10-13T14:24:26Z</time>
      </trkpt>
      <trkpt lat="44.08394" lon="7.40275">
        <ele>1799.24</ele>
        <time>2011-10-13T14:24:48Z</time>
      </trkpt>
      <trkpt lat="44.08394" lon="7.40275">
        <ele>1800.21</ele>
        <time>2011-10-13T14:24:54Z</time>
      </trkpt>
      <trkpt lat="44.08394" lon="7.40276">
        <ele>1797.8</ele>
        <time>2011-10-13T14:25:07Z</time>
      </trkpt>
      <trkpt lat="44.08394" lon="7.40276">
        <ele>1799.24</ele>
        <time>2011-10-13T14:25:24Z</time>
      </trkpt>
      <trkpt lat="44.08394" lon="7.40276">
        <ele>1798.28</ele>
        <time>2011-10-13T14:25:28Z</time>
      </trkpt>
      <trkpt lat="44.08395" lon="7.40276">
        <ele>1799.24</ele>
        <time>2011-10-13T14:25:58Z</time>
      </trkpt>
      <trkpt lat="44.08395" lon="7.40276">
        <ele>1798.76</ele>
        <time>2011-10-13T14:26:19Z</time>
      </trkpt>
      <trkpt lat="44.08395" lon="7.40277">
        <ele>1799.73</ele>
        <time>2011-10-13T14:26:40Z</time>
      </trkpt>
      <trkpt lat="44.08394" lon="7.40277">
        <ele>1800.21</ele>
        <time>2011-10-13T14:26:56Z</time>
      </trkpt>
      <trkpt lat="44.08377" lon="7.40273">
        <ele>1802.13</ele>
        <time>2011-10-13T14:27:12Z</time>
      </trkpt>
      <trkpt lat="44.08377" lon="7.40273">
        <ele>1800.69</ele>
        <time>2011-10-13T14:27:44Z</time>
      </trkpt>
      <trkpt lat="44.08379" lon="7.40276">
        <ele>1799.73</ele>
        <time>2011-10-13T14:28:00Z</time>
      </trkpt>
      <trkpt lat="44.08399" lon="7.40275">
        <ele>1798.28</ele>
        <time>2011-10-13T14:28:16Z</time>
      </trkpt>
      <trkpt lat="44.08401" lon="7.40271">
        <ele>1796.36</ele>
        <time>2011-10-13T14:28:21Z</time>
      </trkpt>
      <trkpt lat="44.08399" lon="7.40267">
        <ele>1795.4</ele>
        <time>2011-10-13T14:28:25Z</time>
      </trkpt>
      <trkpt lat="44.08395" lon="7.4026">
        <ele>1793</ele>
        <time>2011-10-13T14:28:32Z</time>
      </trkpt>
      <trkpt lat="44.08392" lon="7.40254">
        <ele>1789.63</ele>
        <time>2011-10-13T14:28:38Z</time>
      </trkpt>
      <trkpt lat="44.08393" lon="7.40252">
        <ele>1788.67</ele>
        <time>2011-10-13T14:28:40Z</time>
      </trkpt>
      <trkpt lat="44.08386" lon="7.40229">
        <ele>1788.67</ele>
        <time>2011-10-13T14:28:54Z</time>
      </trkpt>
      <trkpt lat="44.08385" lon="7.40228">
        <ele>1788.19</ele>
        <time>2011-10-13T14:28:55Z</time>
      </trkpt>
      <trkpt lat="44.08375" lon="7.40212">
        <ele>1791.55</ele>
        <time>2011-10-13T14:29:09Z</time>
      </trkpt>
      <trkpt lat="44.08367" lon="7.4021">
        <ele>1789.63</ele>
        <time>2011-10-13T14:29:19Z</time>
      </trkpt>
      <trkpt lat="44.08362" lon="7.40213">
        <ele>1787.71</ele>
        <time>2011-10-13T14:29:26Z</time>
      </trkpt>
      <trkpt lat="44.08354" lon="7.40217">
        <ele>1786.75</ele>
        <time>2011-10-13T14:29:32Z</time>
      </trkpt>
      <trkpt lat="44.08345" lon="7.40211">
        <ele>1784.82</ele>
        <time>2011-10-13T14:29:42Z</time>
      </trkpt>
      <trkpt lat="44.08326" lon="7.40216">
        <ele>1783.38</ele>
        <time>2011-10-13T14:29:57Z</time>
      </trkpt>
      <trkpt lat="44.08322" lon="7.40218">
        <ele>1782.42</ele>
        <time>2011-10-13T14:30:00Z</time>
      </trkpt>
      <trkpt lat="44.08306" lon="7.40216">
        <ele>1782.42</ele>
        <time>2011-10-13T14:30:15Z</time>
      </trkpt>
      <trkpt lat="44.08303" lon="7.40215">
        <ele>1781.46</ele>
        <time>2011-10-13T14:30:19Z</time>
      </trkpt>
      <trkpt lat="44.08301" lon="7.40214">
        <ele>1781.46</ele>
        <time>2011-10-13T14:30:21Z</time>
      </trkpt>
      <trkpt lat="44.08285" lon="7.4021">
        <ele>1778.58</ele>
        <time>2011-10-13T14:30:37Z</time>
      </trkpt>
      <trkpt lat="44.08273" lon="7.40203">
        <ele>1777.13</ele>
        <time>2011-10-13T14:30:52Z</time>
      </trkpt>
      <trkpt lat="44.08262" lon="7.40201">
        <ele>1775.69</ele>
        <time>2011-10-13T14:31:03Z</time>
      </trkpt>
      <trkpt lat="44.0825" lon="7.40202">
        <ele>1773.77</ele>
        <time>2011-10-13T14:31:18Z</time>
      </trkpt>
      <trkpt lat="44.08247" lon="7.40202">
        <ele>1772.81</ele>
        <time>2011-10-13T14:31:22Z</time>
      </trkpt>
      <trkpt lat="44.08241" lon="7.40205">
        <ele>1771.37</ele>
        <time>2011-10-13T14:31:28Z</time>
      </trkpt>
      <trkpt lat="44.08222" lon="7.40203">
        <ele>1768.48</ele>
        <time>2011-10-13T14:31:43Z</time>
      </trkpt>
      <trkpt lat="44.08208" lon="7.40198">
        <ele>1767.52</ele>
        <time>2011-10-13T14:31:57Z</time>
      </trkpt>
      <trkpt lat="44.08195" lon="7.40192">
        <ele>1768</ele>
        <time>2011-10-13T14:32:12Z</time>
      </trkpt>
      <trkpt lat="44.08186" lon="7.40194">
        <ele>1767.04</ele>
        <time>2011-10-13T14:32:21Z</time>
      </trkpt>
      <trkpt lat="44.08178" lon="7.40189">
        <ele>1767.04</ele>
        <time>2011-10-13T14:32:34Z</time>
      </trkpt>
      <trkpt lat="44.08168" lon="7.40197">
        <ele>1762.71</ele>
        <time>2011-10-13T14:32:48Z</time>
      </trkpt>
      <trkpt lat="44.08163" lon="7.402">
        <ele>1759.35</ele>
        <time>2011-10-13T14:32:57Z</time>
      </trkpt>
      <trkpt lat="44.08161" lon="7.40198">
        <ele>1759.35</ele>
        <time>2011-10-13T14:33:00Z</time>
      </trkpt>
      <trkpt lat="44.08158" lon="7.40196">
        <ele>1758.39</ele>
        <time>2011-10-13T14:33:03Z</time>
      </trkpt>
      <trkpt lat="44.08157" lon="7.40196">
        <ele>1757.91</ele>
        <time>2011-10-13T14:33:04Z</time>
      </trkpt>
      <trkpt lat="44.08154" lon="7.40196">
        <ele>1757.91</ele>
        <time>2011-10-13T14:33:07Z</time>
      </trkpt>
      <trkpt lat="44.08151" lon="7.40196">
        <ele>1757.43</ele>
        <time>2011-10-13T14:33:10Z</time>
      </trkpt>
      <trkpt lat="44.08142" lon="7.40202">
        <ele>1754.06</ele>
        <time>2011-10-13T14:33:24Z</time>
      </trkpt>
      <trkpt lat="44.08138" lon="7.40203">
        <ele>1753.1</ele>
        <time>2011-10-13T14:33:27Z</time>
      </trkpt>
      <trkpt lat="44.08131" lon="7.40208">
        <ele>1751.66</ele>
        <time>2011-10-13T14:33:35Z</time>
      </trkpt>
      <trkpt lat="44.0813" lon="7.40208">
        <ele>1751.18</ele>
        <time>2011-10-13T14:33:37Z</time>
      </trkpt>
      <trkpt lat="44.08122" lon="7.40211">
        <ele>1750.7</ele>
        <time>2011-10-13T14:33:45Z</time>
      </trkpt>
      <trkpt lat="44.08109" lon="7.40213">
        <ele>1749.74</ele>
        <time>2011-10-13T14:33:58Z</time>
      </trkpt>
      <trkpt lat="44.08095" lon="7.40219">
        <ele>1747.33</ele>
        <time>2011-10-13T14:34:12Z</time>
      </trkpt>
      <trkpt lat="44.08086" lon="7.40218">
        <ele>1745.89</ele>
        <time>2011-10-13T14:34:24Z</time>
      </trkpt>
      <trkpt lat="44.08077" lon="7.40223">
        <ele>1744.93</ele>
        <time>2011-10-13T14:34:33Z</time>
      </trkpt>
      <trkpt lat="44.08072" lon="7.40226">
        <ele>1744.93</ele>
        <time>2011-10-13T14:34:37Z</time>
      </trkpt>
      <trkpt lat="44.08068" lon="7.40232">
        <ele>1743.97</ele>
        <time>2011-10-13T14:34:43Z</time>
      </trkpt>
      <trkpt lat="44.08061" lon="7.40241">
        <ele>1743.01</ele>
        <time>2011-10-13T14:34:52Z</time>
      </trkpt>
      <trkpt lat="44.08054" lon="7.40244">
        <ele>1741.57</ele>
        <time>2011-10-13T14:34:57Z</time>
      </trkpt>
      <trkpt lat="44.08051" lon="7.40246">
        <ele>1742.05</ele>
        <time>2011-10-13T14:35:00Z</time>
      </trkpt>
      <trkpt lat="44.08047" lon="7.40243">
        <ele>1740.6</ele>
        <time>2011-10-13T14:35:06Z</time>
      </trkpt>
      <trkpt lat="44.08031" lon="7.40254">
        <ele>1739.16</ele>
        <time>2011-10-13T14:35:22Z</time>
      </trkpt>
      <trkpt lat="44.08029" lon="7.40264">
        <ele>1737.24</ele>
        <time>2011-10-13T14:35:28Z</time>
      </trkpt>
      <trkpt lat="44.08026" lon="7.40269">
        <ele>1736.76</ele>
        <time>2011-10-13T14:35:32Z</time>
      </trkpt>
      <trkpt lat="44.08021" lon="7.40274">
        <ele>1736.28</ele>
        <time>2011-10-13T14:35:39Z</time>
      </trkpt>
      <trkpt lat="44.08018" lon="7.40274">
        <ele>1734.84</ele>
        <time>2011-10-13T14:35:41Z</time>
      </trkpt>
      <trkpt lat="44.0801" lon="7.40279">
        <ele>1735.8</ele>
        <time>2011-10-13T14:35:48Z</time>
      </trkpt>
      <trkpt lat="44.07996" lon="7.40285">
        <ele>1736.28</ele>
        <time>2011-10-13T14:36:03Z</time>
      </trkpt>
      <trkpt lat="44.07988" lon="7.40284">
        <ele>1735.32</ele>
        <time>2011-10-13T14:36:12Z</time>
      </trkpt>
      <trkpt lat="44.07972" lon="7.40284">
        <ele>1734.84</ele>
        <time>2011-10-13T14:36:27Z</time>
      </trkpt>
      <trkpt lat="44.0797" lon="7.40284">
        <ele>1733.88</ele>
        <time>2011-10-13T14:36:29Z</time>
      </trkpt>
      <trkpt lat="44.07965" lon="7.40286">
        <ele>1731.95</ele>
        <time>2011-10-13T14:36:35Z</time>
      </trkpt>
      <trkpt lat="44.07948" lon="7.40298">
        <ele>1730.03</ele>
        <time>2011-10-13T14:36:50Z</time>
      </trkpt>
      <trkpt lat="44.07941" lon="7.40302">
        <ele>1729.07</ele>
        <time>2011-10-13T14:36:58Z</time>
      </trkpt>
      <trkpt lat="44.07938" lon="7.40301">
        <ele>1728.11</ele>
        <time>2011-10-13T14:37:02Z</time>
      </trkpt>
      <trkpt lat="44.07933" lon="7.40303">
        <ele>1726.67</ele>
        <time>2011-10-13T14:37:06Z</time>
      </trkpt>
      <trkpt lat="44.0793" lon="7.40304">
        <ele>1726.67</ele>
        <time>2011-10-13T14:37:09Z</time>
      </trkpt>
      <trkpt lat="44.07917" lon="7.40287">
        <ele>1726.18</ele>
        <time>2011-10-13T14:37:24Z</time>
      </trkpt>
      <trkpt lat="44.07914" lon="7.40285">
        <ele>1725.22</ele>
        <time>2011-10-13T14:37:26Z</time>
      </trkpt>
      <trkpt lat="44.07908" lon="7.40285">
        <ele>1724.74</ele>
        <time>2011-10-13T14:37:32Z</time>
      </trkpt>
      <trkpt lat="44.07896" lon="7.40281">
        <ele>1723.78</ele>
        <time>2011-10-13T14:37:45Z</time>
      </trkpt>
      <trkpt lat="44.07891" lon="7.40281">
        <ele>1722.82</ele>
        <time>2011-10-13T14:37:55Z</time>
      </trkpt>
      <trkpt lat="44.07875" lon="7.40275">
        <ele>1719.94</ele>
        <time>2011-10-13T14:38:09Z</time>
      </trkpt>
      <trkpt lat="44.07859" lon="7.40266">
        <ele>1718.49</ele>
        <time>2011-10-13T14:38:25Z</time>
      </trkpt>
      <trkpt lat="44.07845" lon="7.40271">
        <ele>1717.05</ele>
        <time>2011-10-13T14:38:37Z</time>
      </trkpt>
      <trkpt lat="44.07842" lon="7.40272">
        <ele>1716.09</ele>
        <time>2011-10-13T14:38:40Z</time>
      </trkpt>
      <trkpt lat="44.0784" lon="7.40275">
        <ele>1716.57</ele>
        <time>2011-10-13T14:38:42Z</time>
      </trkpt>
      <trkpt lat="44.07834" lon="7.40278">
        <ele>1715.13</ele>
        <time>2011-10-13T14:38:49Z</time>
      </trkpt>
      <trkpt lat="44.07819" lon="7.40261">
        <ele>1713.69</ele>
        <time>2011-10-13T14:39:07Z</time>
      </trkpt>
      <trkpt lat="44.07809" lon="7.40254">
        <ele>1712.25</ele>
        <time>2011-10-13T14:39:18Z</time>
      </trkpt>
      <trkpt lat="44.07804" lon="7.4024">
        <ele>1712.25</ele>
        <time>2011-10-13T14:39:27Z</time>
      </trkpt>
      <trkpt lat="44.078" lon="7.40236">
        <ele>1711.76</ele>
        <time>2011-10-13T14:39:31Z</time>
      </trkpt>
      <trkpt lat="44.07785" lon="7.40214">
        <ele>1711.28</ele>
        <time>2011-10-13T14:39:48Z</time>
      </trkpt>
      <trkpt lat="44.07777" lon="7.40208">
        <ele>1710.8</ele>
        <time>2011-10-13T14:39:56Z</time>
      </trkpt>
      <trkpt lat="44.07773" lon="7.40207">
        <ele>1710.32</ele>
        <time>2011-10-13T14:40:00Z</time>
      </trkpt>
      <trkpt lat="44.07755" lon="7.40196">
        <ele>1708.88</ele>
        <time>2011-10-13T14:40:14Z</time>
      </trkpt>
      <trkpt lat="44.07741" lon="7.4018">
        <ele>1707.92</ele>
        <time>2011-10-13T14:40:30Z</time>
      </trkpt>
      <trkpt lat="44.0774" lon="7.40179">
        <ele>1707.92</ele>
        <time>2011-10-13T14:40:31Z</time>
      </trkpt>
      <trkpt lat="44.07735" lon="7.40167">
        <ele>1708.4</ele>
        <time>2011-10-13T14:40:41Z</time>
      </trkpt>
      <trkpt lat="44.07727" lon="7.40168">
        <ele>1707.92</ele>
        <time>2011-10-13T14:40:48Z</time>
      </trkpt>
      <trkpt lat="44.07711" lon="7.40169">
        <ele>1706.96</ele>
        <time>2011-10-13T14:41:00Z</time>
      </trkpt>
      <trkpt lat="44.07694" lon="7.40166">
        <ele>1705.52</ele>
        <time>2011-10-13T14:41:14Z</time>
      </trkpt>
      <trkpt lat="44.0769" lon="7.40165">
        <ele>1704.07</ele>
        <time>2011-10-13T14:41:19Z</time>
      </trkpt>
      <trkpt lat="44.07684" lon="7.40165">
        <ele>1703.59</ele>
        <time>2011-10-13T14:41:24Z</time>
      </trkpt>
      <trkpt lat="44.07675" lon="7.40165">
        <ele>1703.59</ele>
        <time>2011-10-13T14:41:32Z</time>
      </trkpt>
      <trkpt lat="44.07659" lon="7.40169">
        <ele>1702.15</ele>
        <time>2011-10-13T14:41:46Z</time>
      </trkpt>
      <trkpt lat="44.07647" lon="7.4017">
        <ele>1702.15</ele>
        <time>2011-10-13T14:41:58Z</time>
      </trkpt>
      <trkpt lat="44.07625" lon="7.40175">
        <ele>1701.19</ele>
        <time>2011-10-13T14:42:16Z</time>
      </trkpt>
      <trkpt lat="44.07611" lon="7.4018">
        <ele>1700.71</ele>
        <time>2011-10-13T14:42:30Z</time>
      </trkpt>
      <trkpt lat="44.07608" lon="7.4018">
        <ele>1700.71</ele>
        <time>2011-10-13T14:42:32Z</time>
      </trkpt>
      <trkpt lat="44.07595" lon="7.40185">
        <ele>1700.71</ele>
        <time>2011-10-13T14:42:43Z</time>
      </trkpt>
      <trkpt lat="44.07582" lon="7.40186">
        <ele>1700.71</ele>
        <time>2011-10-13T14:42:55Z</time>
      </trkpt>
      <trkpt lat="44.07574" lon="7.40189">
        <ele>1700.23</ele>
        <time>2011-10-13T14:43:02Z</time>
      </trkpt>
      <trkpt lat="44.07568" lon="7.40186">
        <ele>1699.75</ele>
        <time>2011-10-13T14:43:08Z</time>
      </trkpt>
      <trkpt lat="44.07557" lon="7.40183">
        <ele>1699.27</ele>
        <time>2011-10-13T14:43:18Z</time>
      </trkpt>
      <trkpt lat="44.07539" lon="7.40179">
        <ele>1698.79</ele>
        <time>2011-10-13T14:43:33Z</time>
      </trkpt>
      <trkpt lat="44.07521" lon="7.40176">
        <ele>1696.86</ele>
        <time>2011-10-13T14:43:47Z</time>
      </trkpt>
      <trkpt lat="44.07504" lon="7.40171">
        <ele>1697.34</ele>
        <time>2011-10-13T14:44:01Z</time>
      </trkpt>
      <trkpt lat="44.07491" lon="7.4016">
        <ele>1696.38</ele>
        <time>2011-10-13T14:44:14Z</time>
      </trkpt>
      <trkpt lat="44.07489" lon="7.40157">
        <ele>1696.38</ele>
        <time>2011-10-13T14:44:18Z</time>
      </trkpt>
      <trkpt lat="44.07478" lon="7.40143">
        <ele>1693.98</ele>
        <time>2011-10-13T14:44:33Z</time>
      </trkpt>
      <trkpt lat="44.07464" lon="7.40137">
        <ele>1694.94</ele>
        <time>2011-10-13T14:44:48Z</time>
      </trkpt>
      <trkpt lat="44.07452" lon="7.40122">
        <ele>1692.54</ele>
        <time>2011-10-13T14:45:04Z</time>
      </trkpt>
      <trkpt lat="44.07449" lon="7.40116">
        <ele>1692.06</ele>
        <time>2011-10-13T14:45:09Z</time>
      </trkpt>
      <trkpt lat="44.07438" lon="7.40094">
        <ele>1691.1</ele>
        <time>2011-10-13T14:45:25Z</time>
      </trkpt>
      <trkpt lat="44.07437" lon="7.40092">
        <ele>1691.58</ele>
        <time>2011-10-13T14:45:27Z</time>
      </trkpt>
      <trkpt lat="44.07424" lon="7.40084">
        <ele>1692.54</ele>
        <time>2011-10-13T14:45:42Z</time>
      </trkpt>
      <trkpt lat="44.07416" lon="7.40073">
        <ele>1692.54</ele>
        <time>2011-10-13T14:45:58Z</time>
      </trkpt>
      <trkpt lat="44.07413" lon="7.4007">
        <ele>1692.06</ele>
        <time>2011-10-13T14:46:12Z</time>
      </trkpt>
      <trkpt lat="44.07411" lon="7.4006">
        <ele>1691.58</ele>
        <time>2011-10-13T14:46:28Z</time>
      </trkpt>
      <trkpt lat="44.07407" lon="7.40046">
        <ele>1691.1</ele>
        <time>2011-10-13T14:46:38Z</time>
      </trkpt>
      <trkpt lat="44.074" lon="7.40029">
        <ele>1691.1</ele>
        <time>2011-10-13T14:46:53Z</time>
      </trkpt>
      <trkpt lat="44.07399" lon="7.40024">
        <ele>1690.62</ele>
        <time>2011-10-13T14:47:05Z</time>
      </trkpt>
      <trkpt lat="44.07399" lon="7.40025">
        <ele>1691.1</ele>
        <time>2011-10-13T14:47:22Z</time>
      </trkpt>
      <trkpt lat="44.07398" lon="7.40026">
        <ele>1690.62</ele>
        <time>2011-10-13T14:47:39Z</time>
      </trkpt>
      <trkpt lat="44.07399" lon="7.40027">
        <ele>1690.14</ele>
        <time>2011-10-13T14:48:09Z</time>
      </trkpt>
      <trkpt lat="44.07399" lon="7.40027">
        <ele>1690.62</ele>
        <time>2011-10-13T14:48:38Z</time>
      </trkpt>
      <trkpt lat="44.07397" lon="7.40009">
        <ele>1690.14</ele>
        <time>2011-10-13T14:48:51Z</time>
      </trkpt>
      <trkpt lat="44.07389" lon="7.39996">
        <ele>1688.69</ele>
        <time>2011-10-13T14:49:05Z</time>
      </trkpt>
      <trkpt lat="44.07387" lon="7.39996">
        <ele>1689.17</ele>
        <time>2011-10-13T14:49:20Z</time>
      </trkpt>
      <trkpt lat="44.07387" lon="7.39994">
        <ele>1689.17</ele>
        <time>2011-10-13T14:49:30Z</time>
      </trkpt>
      <trkpt lat="44.07379" lon="7.39968">
        <ele>1688.21</ele>
        <time>2011-10-13T14:49:43Z</time>
      </trkpt>
      <trkpt lat="44.0737" lon="7.39955">
        <ele>1686.77</ele>
        <time>2011-10-13T14:49:56Z</time>
      </trkpt>
      <trkpt lat="44.07368" lon="7.39953">
        <ele>1687.25</ele>
        <time>2011-10-13T14:50:18Z</time>
      </trkpt>
      <trkpt lat="44.07369" lon="7.39954">
        <ele>1687.25</ele>
        <time>2011-10-13T14:50:41Z</time>
      </trkpt>
      <trkpt lat="44.07369" lon="7.39954">
        <ele>1686.77</ele>
        <time>2011-10-13T14:50:55Z</time>
      </trkpt>
      <trkpt lat="44.07366" lon="7.39957">
        <ele>1686.77</ele>
        <time>2011-10-13T14:51:08Z</time>
      </trkpt>
      <trkpt lat="44.07369" lon="7.39961">
        <ele>1687.25</ele>
        <time>2011-10-13T14:51:11Z</time>
      </trkpt>
      <trkpt lat="44.07375" lon="7.40001">
        <ele>1687.73</ele>
        <time>2011-10-13T14:51:22Z</time>
      </trkpt>
      <trkpt lat="44.07376" lon="7.40017">
        <ele>1687.73</ele>
        <time>2011-10-13T14:51:28Z</time>
      </trkpt>
      <trkpt lat="44.07374" lon="7.40016">
        <ele>1687.73</ele>
        <time>2011-10-13T14:51:46Z</time>
      </trkpt>
      <trkpt lat="44.07374" lon="7.40016">
        <ele>1686.29</ele>
        <time>2011-10-13T14:51:52Z</time>
      </trkpt>
      <trkpt lat="44.07373" lon="7.40015">
        <ele>1688.21</ele>
        <time>2011-10-13T14:52:20Z</time>
      </trkpt>
      <trkpt lat="44.07369" lon="7.40013">
        <ele>1687.73</ele>
        <time>2011-10-13T14:52:56Z</time>
      </trkpt>
      <trkpt lat="44.07369" lon="7.40013">
        <ele>1687.25</ele>
        <time>2011-10-13T14:53:28Z</time>
      </trkpt>
      <trkpt lat="44.07369" lon="7.40013">
        <ele>1687.73</ele>
        <time>2011-10-13T14:53:57Z</time>
      </trkpt>
      <trkpt lat="44.07366" lon="7.40011">
        <ele>1687.25</ele>
        <time>2011-10-13T14:54:31Z</time>
      </trkpt>
      <trkpt lat="44.07366" lon="7.40011">
        <ele>1687.25</ele>
        <time>2011-10-13T14:55:02Z</time>
      </trkpt>
      <trkpt lat="44.07366" lon="7.40011">
        <ele>1687.25</ele>
        <time>2011-10-13T14:55:29Z</time>
      </trkpt>
      <trkpt lat="44.07365" lon="7.4001">
        <ele>1687.73</ele>
        <time>2011-10-13T14:56:00Z</time>
      </trkpt>
      <trkpt lat="44.07365" lon="7.40011">
        <ele>1687.73</ele>
        <time>2011-10-13T14:56:31Z</time>
      </trkpt>
      <trkpt lat="44.07365" lon="7.40011">
        <ele>1687.25</ele>
        <time>2011-10-13T14:56:58Z</time>
      </trkpt>
      <trkpt lat="44.07365" lon="7.40011">
        <ele>1688.21</ele>
        <time>2011-10-13T14:57:24Z</time>
      </trkpt>
      <trkpt lat="44.07365" lon="7.4001">
        <ele>1687.73</ele>
        <time>2011-10-13T14:57:54Z</time>
      </trkpt>
      <trkpt lat="44.07366" lon="7.4001">
        <ele>1688.21</ele>
        <time>2011-10-13T14:58:31Z</time>
      </trkpt>
      <trkpt lat="44.07366" lon="7.40009">
        <ele>1687.73</ele>
        <time>2011-10-13T14:59:08Z</time>
      </trkpt>
      <trkpt lat="44.07366" lon="7.40009">
        <ele>1686.77</ele>
        <time>2011-10-13T14:59:41Z</time>
      </trkpt>
      <trkpt lat="44.07366" lon="7.40009">
        <ele>1686.77</ele>
        <time>2011-10-13T15:00:13Z</time>
      </trkpt>
      <trkpt lat="44.07366" lon="7.40009">
        <ele>1687.25</ele>
        <time>2011-10-13T15:00:45Z</time>
      </trkpt>
      <trkpt lat="44.07366" lon="7.40009">
        <ele>1686.77</ele>
        <time>2011-10-13T15:01:17Z</time>
      </trkpt>
      <trkpt lat="44.07366" lon="7.40009">
        <ele>1686.29</ele>
        <time>2011-10-13T15:01:47Z</time>
      </trkpt>
      <trkpt lat="44.07366" lon="7.40011">
        <ele>1686.77</ele>
        <time>2011-10-13T15:02:09Z</time>
      </trkpt>
      <trkpt lat="44.07365" lon="7.40012">
        <ele>1687.73</ele>
        <time>2011-10-13T15:02:31Z</time>
      </trkpt>
      <trkpt lat="44.07365" lon="7.40012">
        <ele>1686.29</ele>
        <time>2011-10-13T15:02:48Z</time>
      </trkpt>
      <trkpt lat="44.07365" lon="7.40012">
        <ele>1686.29</ele>
        <time>2011-10-13T15:03:10Z</time>
      </trkpt>
      <trkpt lat="44.07365" lon="7.40012">
        <ele>1686.29</ele>
        <time>2011-10-13T15:03:30Z</time>
      </trkpt>
      <trkpt lat="44.07365" lon="7.40011">
        <ele>1686.77</ele>
        <time>2011-10-13T15:03:48Z</time>
      </trkpt>
      <trkpt lat="44.07365" lon="7.40011">
        <ele>1687.25</ele>
        <time>2011-10-13T15:04:11Z</time>
      </trkpt>
      <trkpt lat="44.07365" lon="7.4001">
        <ele>1686.77</ele>
        <time>2011-10-13T15:04:39Z</time>
      </trkpt>
      <trkpt lat="44.07365" lon="7.40011">
        <ele>1686.29</ele>
        <time>2011-10-13T15:05:06Z</time>
      </trkpt>
      <trkpt lat="44.07365" lon="7.40011">
        <ele>1686.29</ele>
        <time>2011-10-13T15:05:33Z</time>
      </trkpt>
      <trkpt lat="44.07365" lon="7.40011">
        <ele>1686.29</ele>
        <time>2011-10-13T15:05:58Z</time>
      </trkpt>
      <trkpt lat="44.07364" lon="7.40011">
        <ele>1686.29</ele>
        <time>2011-10-13T15:06:32Z</time>
      </trkpt>
      <trkpt lat="44.07364" lon="7.40011">
        <ele>1686.77</ele>
        <time>2011-10-13T15:06:59Z</time>
      </trkpt>
      <trkpt lat="44.07364" lon="7.40011">
        <ele>1686.29</ele>
        <time>2011-10-13T15:07:29Z</time>
      </trkpt>
      <trkpt lat="44.07364" lon="7.40011">
        <ele>1686.29</ele>
        <time>2011-10-13T15:07:56Z</time>
      </trkpt>
      <trkpt lat="44.07364" lon="7.40011">
        <ele>1685.33</ele>
        <time>2011-10-13T15:08:25Z</time>
      </trkpt>
      <trkpt lat="44.07364" lon="7.40011">
        <ele>1685.81</ele>
        <time>2011-10-13T15:08:54Z</time>
      </trkpt>
      <trkpt lat="44.07363" lon="7.40011">
        <ele>1685.81</ele>
        <time>2011-10-13T15:09:24Z</time>
      </trkpt>
      <trkpt lat="44.07363" lon="7.40011">
        <ele>1685.81</ele>
        <time>2011-10-13T15:09:53Z</time>
      </trkpt>
      <trkpt lat="44.07363" lon="7.40011">
        <ele>1685.81</ele>
        <time>2011-10-13T15:10:02Z</time>
      </trkpt>
      <trkpt lat="44.07365" lon="7.4001">
        <ele>1684.85</ele>
        <time>2011-10-13T15:10:04Z</time>
      </trkpt>
      <trkpt lat="44.07365" lon="7.4001">
        <ele>1685.33</ele>
        <time>2011-10-13T15:10:05Z</time>
      </trkpt>
      <trkpt lat="44.07369" lon="7.40005">
        <ele>1684.85</ele>
        <time>2011-10-13T15:10:17Z</time>
      </trkpt>
      <trkpt lat="44.07369" lon="7.40005">
        <ele>1685.81</ele>
        <time>2011-10-13T15:10:29Z</time>
      </trkpt>
      <trkpt lat="44.07369" lon="7.40005">
        <ele>1683.89</ele>
        <time>2011-10-13T15:10:47Z</time>
      </trkpt>
      <trkpt lat="44.07369" lon="7.40005">
        <ele>1686.29</ele>
        <time>2011-10-13T15:10:57Z</time>
      </trkpt>
      <trkpt lat="44.07369" lon="7.40005">
        <ele>1683.89</ele>
        <time>2011-10-13T15:11:33Z</time>
      </trkpt>
      <trkpt lat="44.0737" lon="7.40005">
        <ele>1684.37</ele>
        <time>2011-10-13T15:12:02Z</time>
      </trkpt>
      <trkpt lat="44.0737" lon="7.40005">
        <ele>1684.37</ele>
        <time>2011-10-13T15:12:03Z</time>
      </trkpt>
    </trkseg>
  </trk>
</gpx>